     2              OBSERVATION DATA    GPS                 RINEX VERSION / TYPE
TRRINEXO V2.4.6 UX                                          PGM / RUN BY / DATE
                                                            COMMENT
Original Marker Name: cond                                  COMMENT
Campaign Name: STRC 1995                                    COMMENT
4-Character Station Name: COND                              COMMENT
6-Character Antenna Code: TRMSST                            COMMENT
Vertical Measurement Point: TGP                             COMMENT
Vertical Offset to Rinex Ref. Point: 0.0629                 COMMENT
Radial Measurement Point: NGP                               COMMENT
Radial Offset to Rinex Ref. Point: 0.2334                   COMMENT
Antenna Height from Field Measurement: 1.5172 m             COMMENT
Original XYZ: -2376009.9174 -4835356.3563 3404967.8040      COMMENT
New XYZ position is based on association with SCEC monument COMMENT
E1C8K3O2+0011. Position of that monument is believed to be  COMMENT
valid to within 1 m horizontally; vertical accuracy         COMMENT
should be no worse than 3-times this value.                 COMMENT
                                                            COMMENT
Revised Rinex header created by UCSD GPS archive for        COMMENT
GSAC on 10-Apr-1999 (1999:100) 03:18:24 GMT                 COMMENT
For assistance contact dagnew@ucsd.edu or hjohnson@ucsd.edu COMMENT
                                                            COMMENT
3082 S                                                      MARKER NAME
EL CONDOR                                                   MARKER NUMBER
R. Reilinger MASS INST. OF TECHNOLOGY                       OBSERVER / AGENCY
3052 TRIMBLE 4000 SSE 6.10                                  REC # / TYPE / VERS
68337 TR 4000SST L1/L2 GEO                                  ANT # / TYPE
 -2375983.0000 -4835300.0000  3404909.0000                  APPROX POSITION XYZ
        1.4362        0.0000        0.0000                  ANTENNA: DELTA H/E/N
     1     1     0                                          WAVELENGTH FACT L1/2
     5    C1    L1    L2    P2    P1                        # / TYPES OF OBSERV
    30                                                      INTERVAL
  1995     2    19    16     0   30.000000                  TIME OF FIRST OBS
  1995     2    20     0     0    0.000000                  TIME OF LAST OBS
     0                                                      # OF SATELLITES
                                                            END OF HEADER
 95  2 19 16  0 30.0000000  0  6  1 14 15 22 25 29
  24930197.570     2040241.82915   1508155.81059  24930199.5044
  21532928.656    -2342918.89217  -1741710.84359  21532929.8984
  21948015.125     1718399.40016   1307091.71259  21948017.1764
  22800814.656    -2704213.66316  -1999284.90959  22800817.0824
  21686774.836     1633799.79917   1239488.81959  21686775.1644
  23225271.391    -1922430.98616  -1424392.72759  23225272.6094
 95  2 19 16  1  0.0000000  0  6  1 14 15 22 25 29
  24944503.961     2115423.207 5   1566738.66449  24944506.7384
  21521062.305    -2405277.134 7  -1790301.67249  21521063.1954
  21961768.766     1790675.456 6   1363410.68549  21961771.0274
  22786561.156    -2779115.138 6  -2057649.64949  22786563.2424
  21699687.070     1701653.341 7   1292361.69449  21699687.5744
  23215478.305    -1973895.093 6  -1464494.60549  23215480.1564
 95  2 19 16  1 30.0000000  0  6  1 14 15 22 25 29
  24958876.570     2190957.866 5   1625596.75149  24958881.4104
  21509316.320    -2467001.564 7  -1838398.63349  21509317.3754
  21975671.227     1863734.690 6   1420339.92849  21975673.4534
  22772427.594    -2853384.362 6  -2115521.74149  22772430.0554
  21712728.180     1770187.152 7   1345764.64949  21712728.7894
  23205761.375    -2024959.338 6  -1504284.90849  23205762.5234
 95  2 19 16  2  0.0000000  0  6  1 14 15 22 25 29
  24973315.734     2266834.574 5   1684721.36949  24973319.9534
  21497688.953    -2528103.604 7  -1886010.60549  21497690.5704
  21989720.945     1937565.025 6   1477870.02449  21989723.3364
  22758413.555    -2927029.948 6  -2172907.87449  22758415.6524
  21725901.633     1839412.548 7   1399706.50249  21725901.9964
  23196120.508    -2075623.778 6  -1543763.67949  23196121.5984
 95  2 19 16  2 30.0000000  0  6  1 14 15 22 25 29
  24987817.734     2343035.209 5   1744098.42348  24987820.7234
  21486181.602    -2588573.183 7  -1933129.75549  21486183.2544
  22003915.742     2012159.879 6   1535995.85549  22003917.9344
  22744515.453    -3000068.760 6  -2229821.19149  22744517.1644
  21739206.422     1909329.821 7   1454187.48249  21739207.1374
  23186558.508    -2125873.291 6  -1582919.12749  23186559.6214
 95  2 19 16  3  0.0000000  0  6  1 14 15 22 25 29
  25002379.094     2419552.361 5   1803722.11549  25002382.3284
  21474795.656    -2648407.089 7  -1979753.57949  21474797.3914
  22018253.750     2087507.660 6   1594708.37949  22018255.8364
  22730727.852    -3072519.376 6  -2286276.17649  22730730.0204
  21752640.070     1979922.145 8   1509194.46949  21752640.4924
  23177075.750    -2175701.023 6  -1621745.90549  23177077.2624
 95  2 19 16  3 30.0000000  0  6  1 14 15 22 25 29
  25016990.062     2496344.563 4   1863560.12049  25016993.9534
  21463523.859    -2707642.652 7  -2025911.15549  21463525.6054
  22032726.922     2163564.492 6   1653973.39949  22032729.5824
  22717043.523    -3144430.822 6  -2342311.05049  22717045.3984
  21766192.742     2051142.908 7   1564691.14949  21766193.4454
  23167669.805    -2225128.628 6  -1660260.89749  23167670.8714
 95  2 19 16  4  0.0000000  0  6  1 14 15 22 25 29
  25031654.352     2573405.366 5   1923607.39649  25031658.4884
  21452363.117    -2766291.950 7  -2071611.90649  21452364.5354
  22047333.062     2240318.982 6   1713782.05649  22047335.4654
  22703461.422    -3215805.692 6  -2397927.79849  22703463.1914
  21779863.156     2122980.821 7   1620668.73149  21779863.5554
  23158337.859    -2274172.063 6  -1698476.54749  23158339.0664
 95  2 19 16  4 30.0000000  0  5 14 15 22 25 29
  21441320.250    -2824323.384 7  -2116831.19749  21441321.7274
  22062077.164     2317798.138 6   1774155.39149  22062079.6724
  22689989.664    -3286599.278 6  -2453091.61449  22689991.7504
  21793652.148     2195443.295 7   1677132.97849  21793652.7114
  23149080.789    -2322816.947 6  -1736381.63349  23149081.9374
 95  2 19 16  5  0.0000000  0  5 14 15 22 25 29
  21430392.320    -2881751.376 7  -2161580.28149  21430393.5514
  22076957.117     2395994.364 6   1835087.47849  22076959.7544
  22676634.852    -3356781.829 6  -2507779.28349  22676637.2894
  21807560.336     2268529.554 7   1734083.30049  21807560.9104
  23139895.641    -2371086.447 6  -1773994.19849  23139897.4344
 95  2 19 16  5 30.0000000  0  5 14 15 22 25 29
  21419576.125    -2938589.339 7  -2205869.59949  21419577.2384
  22091972.945     2474901.996 6   1896573.90849  22091975.2194
  22663399.617    -3426332.487 6  -2561974.58849  22663401.5044
  21821587.617     2342244.057 7   1791523.15449  21821588.4144
  23130777.594    -2419002.973 6  -1811331.71849  23130779.1764
 95  2 19 16  6  0.0000000  0  5 14 15 22 25 29
  21408871.367    -2994843.451 7  -2249703.97049  21408872.4924
  22107123.219     2554516.867 6   1958611.43049  22107125.6094
  22650288.258    -3495234.800 6  -2615664.67649  22650290.6604
  21835730.570     2416565.879 7   1849436.23949  21835731.5784
  23121725.586    -2466569.609 6  -1848396.60649  23121726.4414
 95  2 19 16  6 30.0010000  0  5 14 15 22 25 29
  21398276.794    -3050519.433 7  -2293087.85549  21398277.8724
  22122406.317     2634831.223 6   2021194.01049  22122408.8254
  22637297.919    -3563495.340 6  -2668854.70149  22637300.1464
  21849986.731     2491482.877 7   1907813.10549  21849987.6924
  23112743.310    -2513773.563 6  -1885178.90149  23112744.0954
 95  2 19 16  7  0.0010000  0  5 14 15 22 25 29
  21387792.474    -3105615.236 7  -2336019.64649  21387793.5874
  22137821.310     2715834.790 6   2084313.63549  22137823.4784
  22624429.380    -3631124.532 6  -2721552.75549  22624431.4074
  21864356.106     2566993.132 7   1966652.24349  21864356.9034
  23103831.786    -2560598.082 6  -1921665.51249  23103832.8884
 95  2 19 16  7 30.0010000  0  5 14 15 22 25 29
  21377419.474    -3160125.158 7  -2378494.90849  21377420.7864
  22153365.349     2797520.970 6   2147965.17149  22153367.6924
  22611673.653    -3698153.577 6  -2773783.16649  22611675.0364
  21878833.427     2643072.049 7   2025934.50349  21878834.1654
  23094995.185    -2607039.458 6  -1957853.57349  23094996.2744
 95  2 19 16  8  0.0010000  0  5 14 15 22 25 29
  21367162.481    -3214025.798 7  -2420495.39849  21367163.8414
  22169039.474     2879887.066 6   2212146.50449  22169041.6654
  22599029.856    -3764601.138 6  -2825560.48549  22599031.0404
  21893417.341     2719709.616 7   2085652.07249  21893418.0794
  23086233.739    -2653082.963 6  -1993731.61049  23086235.0284
 95  2 19 16  8 30.0010000  0  5 14 15 22 25 29
  21357024.474    -3267300.493 7  -2462008.14449  21357025.8334
  22184841.677     2962928.746 6   2276854.26949  22184843.9854
  22586493.185    -3830479.994 6  -2876894.64349  22586495.3534
  21908109.552     2796920.056 7   2145816.02949  21908110.4894
  23077546.513    -2698733.787 6  -2029303.66649  23077547.9544
 95  2 19 16  9  0.0010000  0  5 14 15 22 25 29
  21347004.427    -3319958.499 7  -2503040.35349  21347005.3064
  22200770.442     3046635.735 6   2342080.45649  22200773.1144
  22574062.302    -3895800.830 6  -2927793.98949  22574064.4814
  21922910.161     2874697.032 7   2206421.44749  21922911.0634
  23068927.677    -2744022.158 6  -2064593.27949  23068929.2824
 95  2 19 16  9 30.0010000  0  5 14 15 22 25 29
  21337098.724    -3372011.309 7  -2543600.98549  21337099.8604
  22216824.114     3130997.650 6   2407816.98249  22216826.3884
  22561740.896    -3960552.804 6  -2978250.08449  22561743.2164
  21937816.989     2953033.077 7   2267462.49949  21937817.9274
  23060373.833    -2788975.371 6  -2099621.75249  23060375.3924
 95  2 19 16 10  0.0010000  0  5 14 15 22 25 29
  21327304.333    -3423479.840 7  -2583706.33349  21327305.7164
  22233000.513     3216004.279 6   2474055.86849  22233003.2674
  22549528.794    -4024726.961 6  -3028255.91149  22549531.2434
  21952832.763     3031940.222 7   2328948.56749  21952833.6064
  23051880.130    -2833609.938 6  -2134401.92149  23051881.0444
 95  2 19 16 10 30.0010000  0  5 14 15 22 25 29
  21317617.755    -3474383.963 7  -2623371.88349  21317619.1034
  22249297.442     3301647.248 6   2540790.62449  22249300.2434
  22537430.208    -4088307.658 6  -3077799.29849  22537432.7744
  21967957.122     3111421.265 7   2390881.82649  21967958.0364
  23043444.575    -2877937.794 6  -2168943.09249  23043445.6774
 95  2 19 16 11  0.0010000  0  5 14 15 22 25 29
  21308037.130    -3524731.932 7  -2662604.07049  21308038.4784
  22265716.372     3387928.128 6   2608022.44949  22265718.9154
  22525447.560    -4151275.292 6  -3126864.97849  22525449.3764
  21983190.489     3191471.323 7   2453258.46949  21983191.3924
  23035068.341    -2921955.662 6  -2203242.71349  23035069.8174
 95  2 19 16 11 30.0010000  0  5 14 15 22 25 29
  21298563.997    -3574512.547 7  -2701394.15449  21298565.2044
  22282255.239     3474840.084 6   2675746.01249  22282257.9464
  22513583.200    -4213622.723 6  -3175447.38849  22513585.5214
  21998531.489     3272088.593 7   2516077.10349  21998532.2044
  23026753.005    -2965653.107 6  -2237292.65349  23026754.7044
 95  2 19 16 12  0.0010000  0  5 14 15 22 25 29
  21289199.989    -3623721.284 7  -2739738.63149  21289201.1034
  22298912.763     3562374.242 6   2743954.40149  22298915.0364
  22501835.060    -4275359.577 6  -3223554.01249  22501837.4154
  22013978.528     3353262.264 7   2579329.28849  22013979.2674
  23018499.935    -3009021.136 6  -2271085.91549  23018500.6144
 95  2 19 16 12 30.0010000  0  5 14 15 22 25 29
  21279943.864    -3672363.533 7  -2777641.68149  21279945.0484
  22315686.005     3650518.283 6   2812638.02749  22315688.6184
  22490199.685    -4336505.910 6  -3271200.47649  22490201.8764
  22029525.685     3434964.283 7   2642993.18149  22029526.3414
  23010309.271    -3052064.194 6  -2304625.95249  23010310.4314
 95  2 19 16 13  0.0010000  0  5 14 15 22 25 29
  21270797.536    -3720426.686 7  -2815093.49449  21270798.5794
  22332576.317     3739277.718 6   2881801.18349  22332579.3064
  22478674.575    -4397069.349 6  -3318392.74449  22478676.6144
  22045172.263     3517188.256 7   2707063.79149  22045173.2244
  23002183.317    -3094768.813 6  -2337902.26849  23002184.7474
 95  2 19 16 13 30.0010000  0  5 14 15 22 25 29
  21261763.489    -3767902.115 7  -2852087.33949  21261764.6734
  22349582.239     3828644.443 6   2951437.55849  22349584.8414
  22467256.591    -4457068.560 6  -3365145.33849  22467258.8064
  22060916.435     3599924.470 7   2771533.54349  22060917.1494
  22994121.177    -3137137.384 6  -2370916.71849  22994122.4074
 95  2 19 16 14  0.0010000  0  5 14 15 22 25 29
  21252838.239    -3814803.380 7  -2888633.77649  21252839.6464
  22366701.927     3918607.822 6   3021538.84849  22366704.3064
  22455943.638    -4516518.764 6  -3411470.13449  22455946.3104
  22076755.692     3683158.682 7   2836391.35549  22076756.2904
  22986121.942    -3179173.392 6  -2403672.04849  22986123.3254
 95  2 19 16 14 30.0010000  0  5 14 15 22 25 29
  21244023.419    -3861125.686 7  -2924729.07749  21244024.6144
  22383933.966     4009163.863 6   3092101.96349  22383936.3334
  22444735.849    -4575419.432 6  -3457366.71949  22444738.2394
  22092688.927     3766889.562 7   2901636.17249  22092689.9354
  22978185.716    -3220876.907 6  -2436168.27949  22978186.9584
 95  2 19 16 15  0.0010000  0  5 14 15 22 25 29
  21235322.153    -3906850.013 7  -2960358.42549  21235323.5014
  22401276.896     4100301.610 6   3163118.35049  22401279.4504
  22433634.489    -4633754.348 6  -3502822.45049  22433636.6814
  22108717.849     3851121.971 7   2967271.78549  22108719.0214
  22970311.575    -3262257.942 6  -2468413.23249  22970311.9504
 95  2 19 16 15 30.0010000  0  5 14 15 22 25 29
  21226736.317    -3951969.208 7  -2995516.23749  21226737.6184
  22418729.888     4192018.085 6   3234585.68249  22418732.9464
  22422649.075    -4691484.658 6  -3547807.05849  22422651.3134
  22124843.106     3935860.928 7   3033302.12049  22124844.0094
  22962497.036    -3303320.283 6  -2500409.85149  22962497.4114
 95  2 19 16 16  0.0010000  0  5 14 15 22 25 29
  21218263.138    -3996497.497 7  -3030213.61049  21218264.4504
  22436291.583     4284305.604 6   3306497.99349  22436294.8534
  22411783.114    -4748585.524 6  -3592301.20049  22411784.7674
  22141064.646     4021103.838 7   3099725.14349  22141065.4194
  22954741.419    -3344079.319 6  -2532170.13549  22954742.0754
 95  2 19 16 16 30.0010000  0  5 14 15 22 25 29
  21209902.802    -4040431.666 7  -3064448.02649  21209904.0214
  22453960.294     4377155.796 6   3378848.76049  22453963.0604
  22401038.052    -4805050.523 6  -3636299.85549  22401040.1614
  22157379.591     4106842.199 7   3166534.22849  22157380.4354
  22947040.356    -3384548.162 6  -2563704.29149  22947040.9424
 95  2 19 16 17  0.0010000  0  5 14 15 22 25 29
  21201652.942    -4083784.324 7  -3098229.32249  21201654.4314
  22471735.958     4470565.098 6   3451635.18149  22471738.4424
  22390415.005    -4860875.155 6  -3679799.52749  22390417.1144
  22173789.122     4193075.194 7   3233728.74849  22173790.0364
  22939393.294    -3424732.837 6  -2595017.02149  22939394.3964
 95  2 19 16 17 30.0010000  0  5 14 15 22 25 29
  21193509.028    -4126581.537 7  -3131577.79849  21193510.4934
  22489617.294     4564532.500 6   3524856.50249  22489619.7554
  22379910.685    -4916077.687 6  -3722814.44449  22379912.8414
  22190290.497     4279788.188 7   3301297.28949  22190291.4934
  22931799.247    -3464638.401 6  -2626112.24449  22931800.0444
 95  2 19 16 18  0.0010000  0  5 14 15 22 25 29
  21185468.067    -4168836.295 7  -3164503.58349  21185469.4384
  22507601.349     4659038.062 6   3598497.15649  22507603.5634
  22369512.356    -4970716.542 6  -3765390.13249  22369514.5134
  22206880.685     4366969.292 7   3369230.58849  22206881.5054
  22924256.114    -3504276.233 6  -2656998.85749  22924256.6884
 95  2 19 16 18 30.0010000  0  5 14 15 22 25 29
  21177534.083    -4210530.737 7  -3196992.76249  21177535.4074
  22525687.771     4754084.107 6   3672558.96649  22525690.2314
  22359219.435    -5024806.410 6  -3807538.04849  22359221.6384
  22223560.646     4454622.617 7   3437531.85249  22223561.4194
  22916768.841    -3543623.440 6  -2687659.00549  22916769.6264
 95  2 19 16 19  0.0010000  0  5 14 15 22 25 29
  21169708.161    -4251656.173 7  -3229038.56349  21169709.2634
  22543878.716     4849679.144 6   3747048.56549  22543881.5054
  22349033.708    -5078333.365 6  -3849247.33849  22349035.4544
  22240331.911     4542757.521 7   3506208.37849  22240332.5674
  22909337.606    -3582676.942 6  -2718090.28749  22909338.4274
 95  2 19 16 19 30.0010000  0  5 14 15 22 25 29
  21161992.185    -4292205.228 7  -3260635.23149  21161993.3104
  22562171.716     4945806.386 6   3821952.86349  22562174.6104
  22338953.224    -5131309.271 6  -3890527.23949  22338954.8294
  22257192.575     4631358.673 7   3575248.21349  22257193.1384
  22901960.224    -3621443.533 6  -2748298.00649  22901961.3024
 95  2 19 16 20  0.0010000  0  5 14 15 22 25 29
  21154388.810    -4332160.785 7  -3291769.43049  21154389.9114
  22580565.005     5042462.768 6   3897269.48949  22580567.8174
  22328979.872    -5183717.186 6  -3931364.54649  22328982.2634
  22274142.567     4720432.426 7   3644656.30549  22274143.4234
  22894639.122    -3659915.187 6  -2778275.89549  22894640.5874
 95  2 19 16 20 30.0010000  0  5 14 15 22 25 29
  21146896.153    -4371533.974 7  -3322449.83849  21146897.5484
  22599056.747     5139638.384 6   3972990.70849  22599059.2784
  22319120.427    -5235528.678 6  -3971737.12749  22319122.6654
  22291177.927     4809953.485 7   3714412.94949  22291178.9114
  22887371.599    -3698110.209 6  -2808038.23449  22887372.5834
 95  2 19 16 21  0.0010000  0  5 14 15 22 25 29
  21139515.911    -4410318.292 7  -3352671.38449  21139517.0134
  22617647.403     5237333.636 6   4049116.85149  22617649.6884
  22309379.114    -5286722.243 6  -4011628.19449  22309381.1184
  22308297.497     4899916.971 7   3784514.34149  22308298.6224
  22880153.427    -3736037.831 6  -2837592.21249  22880154.8104
 95  2 19 16 21 30.0010000  0  5 14 15 22 25 29
  21132248.583    -4448507.418 7  -3382429.14549  21132249.6384
  22636337.153     5335549.869 6   4125648.93749  22636339.1344
  22299755.161    -5337292.956 6  -4051033.92349  22299756.8494
  22325500.778     4990321.609 7   3854959.48749  22325501.6104
  22872990.630    -3773681.300 6  -2866924.76249  22872991.2744
 95  2 19 16 22  0.0010000  0  5 14 15 22 25 29
  21125089.388    -4486130.568 7  -3411745.88949  21125090.3374
  22655122.458     5434264.566 6   4202569.43349  22655125.1774
  22290249.981    -5387246.629 6  -4089958.86049  22290251.5754
  22342784.567     5081147.538 7   3925732.91649  22342785.4464
  22865876.278    -3811065.826 6  -2896055.56649  22865877.0174
 95  2 19 16 22 30.0010000  0  5 14 15 22 25 29
  21118038.060    -4523186.504 7  -3440620.64849  21118039.0794
  22674001.325     5533476.694 6   4279877.54849  22674004.2434
  22280861.388    -5436582.103 6  -4128402.06749  22280863.2284
  22360148.677     5172398.629 7   3996837.63749  22360149.6264
  22858812.755    -3848185.621 6  -2924980.05949  22858813.5054
 95  2 19 16 23  0.0010000  0  5 14 15 22 25 29
  21111094.239    -4559675.900 7  -3469053.94849  21111095.3994
  22692975.317     5633181.055 6   4357569.21149  22692977.8254
  22271588.044    -5485315.545 6  -4166376.16749  22271590.1184
  22377596.724     5264086.848 7   4068282.98149  22377597.2394
  22851800.942    -3885030.401 6  -2953690.26449  22851802.4894
 95  2 19 16 23 30.0010000  0  5 14 15 22 25 29
  21104257.622    -4595601.351 7  -3497047.80749  21104258.8884
  22712041.333     5733376.103 6   4435643.23849  22712044.0874
  22262427.372    -5533453.037 6  -4203885.88349  22262429.4584
  22395130.458     5356225.202 7   4140079.07649  22395130.9974
  22844843.349    -3921595.159 6  -2982182.26649  22844844.7084
 95  2 19 16 24  0.0010000  0  5 14 15 22 25 29
  21097530.224    -4630954.773 7  -3524595.93249  21097531.4424
  22731200.513     5834057.544 6   4514096.26449  22731203.0444
  22253381.489    -5580989.484 6  -4240927.24849  22253383.7044
  22412749.380     5448813.507 7   4212225.77849  22412750.0834
  22837937.958    -3957885.965 6  -3010460.81649  22837938.7434
 95  2 19 16 24 30.0010000  0  5 14 15 22 25 29
  21090912.356    -4665732.843 7  -3551695.73449  21090913.4934
  22750449.802     5935215.351 6   4592920.48549  22750452.6384
  22244447.669    -5627940.148 7  -4277512.16649  22244449.5094
  22430451.341     5541837.258 7   4284711.78449  22430452.1264
  22831082.911    -3993906.795 6  -3038528.99349  22831083.8844
 95  2 19 16 25  0.0010000  0  5 14 15 22 25 29
  21084405.763    -4699925.503 7  -3578339.36849  21084406.7944
  22769790.411     6036850.251 6   4672116.47849  22769792.5794
  22235626.942    -5674290.377 7  -4313629.20149  22235629.1574
  22448234.974     5635292.852 7   4357534.29849  22448235.8994
  22824279.192    -4029659.332 6  -3066388.10449  22824280.3994
 95  2 19 16 25 30.0010000  0  5 14 15 22 25 29
  21078012.224    -4733523.595 7  -3604519.69849  21078013.3024
  22789221.216     6138957.282 6   4751680.35749  22789223.5364
  22226922.075    -5720035.110 7  -4349274.42849  22226924.5134
  22466097.755     5729162.854 7   4430679.72149  22466098.9624
  22817526.935    -4065145.342 6  -3094039.52349  22817527.6964
 95  2 19 16 26  0.0010000  0  5 14 15 22 25 29
  21071733.005    -4766521.026 7  -3630231.98349  21071734.1064
  22808741.044     6241535.547 6   4831611.43449  22808743.5994
  22218333.138    -5765168.733 6  -4384443.45649  22218336.0094
  22484037.747     5823434.126 7   4504137.83249  22484038.5794
  22810825.278    -4100360.794 6  -3121480.12249  22810825.9934
 95  2 19 16 26 30.0010000  0  5 14 15 22 25 29
  21065565.888    -4798930.086 7  -3655485.80049  21065566.9074
  22828349.028     6344576.312 6   4911902.89149  22828351.3494
  22209859.958    -5809695.860 6  -4419139.90649  22209862.3844
  22502051.372     5918098.681 7   4577902.38449  22502052.1574
  22804175.528    -4135307.646 6  -3148711.43749  22804176.2314
 95  2 19 16 27  0.0010000  0  5 14 15 22 25 29
  21059507.716    -4830765.776 7  -3680292.82849  21059508.7474
  22848043.396     6448070.255 6   4992547.49249  22848046.1614
  22201500.692    -5853622.936 6  -4453368.76849  22201503.3294
  22520138.935     6013150.203 7   4651968.47049  22520139.7314
  22797573.450    -4170001.378 6  -3175745.49749  22797574.1534
 95  2 19 16 27 30.0010000  0  5 14 15 22 25 29
  21053559.669    -4862022.845 7  -3704648.99149  21053560.6534
  22867823.958     6552017.205 6   5073545.06249  22867827.1814
  22193257.333    -5896942.545 7  -4487124.28949  22193259.7824
  22538300.896     6108591.795 7   4726338.49849  22538301.4584
  22791021.099    -4204433.273 6  -3202575.53649  22791021.8604
 95  2 19 16 28  0.0010000  0  5 14 15 22 25 29
  21047720.091    -4892709.211 7  -3728560.44349  21047721.1924
  22887689.349     6656409.853 6   5154889.93249  22887692.5834
  22185131.716    -5939642.299 7  -4520396.80249  22185134.5634
  22556538.099     6204428.405 7   4801016.33949  22556538.6264
  22784516.575    -4238613.001 6  -3229209.08749  22784517.3374
 95  2 19 16 28 30.0010000  0  5 14 15 22 25 29
  21041988.263    -4922828.855 7  -3752030.29449  21041989.4114
  22907638.286     6761240.554 6   5236576.14849  22907640.8884
  22177126.185    -5981714.223 7  -4553180.10749  22177128.5524
  22574851.185     6300665.341 7   4876006.11749  22574851.8174
  22778060.005    -4272543.022 6  -3255648.05949  22778061.1064
 95  2 19 16 29  0.0010000  0  5 14 15 22 25 29
  21036365.560    -4952376.249 7  -3775054.23049  21036366.6734
  22927669.278     6866503.609 6   5318599.25449  22927671.7394
  22169238.677    -6023162.411 7  -4585477.37249  22169241.0214
  22593239.021     6397294.839 7   4951301.79649  22593239.6304
  22771651.356    -4306220.962 6  -3281890.59449  22771652.6924
 95  2 19 16 29 30.0010000  0  5 14 15 22 25 29
  21030856.130    -4981329.816 7  -3797615.45549  21030857.0914
  22947782.177     6972199.690 6   5400959.77049  22947784.7554
  22161471.661    -6063976.375 7  -4617280.44549  22161474.3214
  22611702.177     6494317.483 7   5026903.81149  22611703.0564
  22765292.028    -4339640.897 6  -3307932.11049  22765293.3534
 95  2 19 16 30  0.0010000  0  5 14 15 22 25 29
  21025459.841    -5009689.052 7  -3819713.56149  21025460.4974
  22967976.474     7078321.081 6   5483651.71749  22967978.6184
  22153822.372    -6104175.962 7  -4648604.78749  22153824.8104
  22630237.755     6591722.549 7   5102803.82249  22630238.7164
  22758977.700    -4372822.463 6  -3333787.86149  22758978.4154
 95  2 19 16 30 30.0010000  0  5 14 15 22 25 29
  21020177.278    -5037448.192 7  -3841344.06049  21020177.9814
  22988251.591     7184864.448 6   5566672.47649  22988254.0284
  22146285.005    -6143784.267 7  -4679468.39049  22146287.1614
  22648842.302     6689489.093 7   5178985.49549  22648843.0634
  22752709.146    -4405764.791 6  -3359457.18749  22752710.0484
 95  2 19 16 31  0.0010000  0  5 14 15 22 25 29
  21015008.442    -5064611.232 7  -3862510.06749  21015009.2634
  23008604.388     7291821.283 6   5650015.41049  23008607.0364
  22138857.544    -6182817.637 7  -4709883.97949  22138859.5134
  22667513.192     6787604.540 7   5255439.04549  22667513.8494
  22746483.567    -4438479.263 6  -3384948.97549  22746484.9154
 95  2 19 16 31 30.0010000  0  5 14 15 22 25 29
  21009951.567    -5091183.966 7  -3883216.09049  21009952.6924
  23029034.606     7399182.904 6   5733673.75749  23029037.3724
  22131539.528    -6221273.238 7  -4739849.36349  22131541.6034
  22686251.388     6886076.174 7   5332170.14949  22686252.1264
  22740298.685    -4470979.570 6  -3410273.87949  22740299.6104
 95  2 19 16 32  0.0010000  0  5 14 15 22 25 29
  21005004.645    -5117180.580 7  -3903473.19949  21005005.8884
  23049540.919     7506943.647 6   5817643.12349  23049544.1774
  22124331.708    -6259151.160 7  -4769364.61449  22124333.6424
  22705058.310     6984903.835 7   5409178.66649  22705058.9894
  22734157.896    -4503252.314 6  -3435421.47049  22734158.8564
 95  2 19 16 32 30.0010000  0  5 14 15 22 25 29
  21000164.653    -5142615.150 7  -3923292.35149  21000165.8724
  23070122.185     7615098.748 6   5901919.76949  23070124.6924
  22117237.544    -6296430.756 7  -4798413.64449  22117239.3964
  22723935.146     7084103.982 7   5486477.43949  22723935.7554
  22728062.278    -4535282.900 6  -3460380.36049  22728063.0994
 95  2 19 16 33  0.0010000  0  5 14 15 22 25 29
  20995431.208    -5167489.547 7  -3942674.99949  20995432.3104
  23090777.903     7723643.479 6   5986500.02549  23090780.8104
  22110262.192    -6333085.832 7  -4826976.02949  22110264.2554
  22742887.013     7183694.654 7   5564080.51449  22742887.4234
  22722013.356    -4567067.576 6  -3485147.62549  22722014.5524
 95  2 19 16 33 30.0010000  0  5 14 15 22 25 29
  20990805.770    -5191795.936 7  -3961615.04749  20990806.8844
  23111504.794     7832567.220 6   6071375.60649  23111507.3024
  22103408.185    -6369103.628 7  -4855041.83449  22103410.5524
  22761908.466     7283654.533 7   5641971.28149  22761909.2514
  22716010.935    -4598611.465 6  -3509727.27049  22716011.9894
 95  2 19 16 34  0.0010000  0  6 18 14 15 22 25 29
  25094900.731      -43787.63213
  20986290.060    -5215527.282 7  -3980107.00749  20986291.3494
  23132304.021     7941867.104 6   6156544.28849  23132306.2124
  22096675.731    -6404484.673 7  -4882611.46949  22096677.9584
  22780996.185     7383962.318 7   5720133.14949  22780996.8994
  22710054.356    -4629916.079 6  -3534120.46549  22710055.2244
 95  2 19 16 34 30.0010000  0  6 18 14 15 22 25 29
  25084060.958     -100756.746 3
  20981886.942    -5238664.166 7  -3998135.75249  20981888.3374
  23153175.255     8051544.331 6   6242007.00349  23153178.6064
  22090066.091    -6439217.936 7  -4909676.33549  22090068.4464
  22800148.919     7484608.674 7   5798558.83449  22800149.6224
  22704140.333    -4660993.609 6  -3558336.71749  22704141.7864
 95  2 19 16 35  0.0010000  0  6 18 14 15 22 25 29
  25073251.419     -157560.567 3     -8841.59857  25073254.4894
  20977599.849    -5261192.186 7  -4015690.05549  20977601.3374
  23174115.685     8161584.835 6   6327752.78549  23174118.1924
  22083575.278    -6473326.879 7  -4936254.71849  22083577.5634
  22819356.317     7585545.916 7   5877211.18549  22819356.9154
  22698264.005    -4691872.749 6  -3582398.37349  22698265.5054
 95  2 19 16 35 30.0010000  0  6 18 14 15 22 25 29
  25062472.833     -214206.048 3    -52980.88648  25062474.6734
  20973430.302    -5283103.094 7  -4032763.50149  20973431.6734
  23195124.208     8271986.826 6   6413780.24849  23195126.7044
  22077200.216    -6506829.771 7  -4962360.85349  22077202.1144
  22838617.005     7686761.030 7   5956080.05749  22838618.0954
  22692422.067    -4722571.914 6  -3606319.79649  22692423.6614
 95  2 19 16 36  0.0010000  0  6 18 14 15 22 25 29
  25051719.841     -270712.581 3    -97011.96247  25051722.5244
  20969374.450    -5304417.643 7  -4049372.24849  20969375.6224
  23216200.646     8382742.624 6   6500083.41949  23216203.1184
  22070935.146    -6539749.358 7  -4988012.46349  22070937.3494
  22857932.185     7788260.907 7   6035170.82049  22857932.9584
  22686614.950    -4753090.472 6  -3630100.48949  22686616.0524
 95  2 19 16 36 30.0010000  0  6 18 14 15 22 25 29
  25040994.239     -327075.897 3   -140931.41447  25040998.5754
  20965431.239    -5325140.753 7  -4065520.13349  20965432.3534
  23237343.661     8493851.076 6   6586661.35649  23237346.4034
  22064784.591    -6572072.787 7  -5013199.53449  22064786.5954
  22877302.442     7890052.327 7   6114488.76149  22877303.2634
  22680843.591    -4783421.042 6  -3653734.68649  22680844.2594
 95  2 19 16 37  0.0010000  0  6 18 14 15 22 25 29
  25030297.263     -383282.458 3   -184728.73146  25030300.0284
  20961595.919    -5345294.980 7  -4081224.73449  20961597.1034
  23258552.067     8605302.149 6   6673506.28449  23258555.2204
  22058748.083    -6603795.030 7  -5037918.13549  22058750.4154
  22896730.114     7992142.787 7   6194039.71249  22896730.9584
  22675108.145    -4813561.893 6  -3677221.05749  22675108.6264
 95  2 19 16 37 30.0010000  0  6 18 14 15 22 25 29
  25019631.013     -439337.143 3   -228407.67945  25019633.3804
  20957866.317    -5364894.744 7  -4096497.27949  20957867.7004
  23279824.935     8717092.416 6   6760615.51249  23279827.8764
  22052829.942    -6634893.971 7  -5062151.04849  22052831.7824
  22916218.185     8094556.309 7   6273842.41149  22916218.8884
  22669413.575    -4843483.560 6  -3700536.64449  22669414.4074
 95  2 19 16 38  0.0010000  0  6 18 14 15 22 25 29
  25008994.114     -495237.860 3   -271966.66547  25008997.7004
  20954240.349    -5383949.203 7  -4111344.91849  20954241.8494
  23301161.396     8829216.352 6   6847984.72449  23301165.2514
  22047035.724    -6665344.112 7  -5085878.41249  22047037.3994
  22935768.536     8197293.480 7   6353897.29949  22935769.7204
  22663765.966    -4873162.528 6  -3723663.10449  22663766.8454
 95  2 19 16 38 30.0010000  0  6 18 14 15 22 25 29
  24998382.146     -551003.416 3   -315420.33747  24998383.5874
  20950718.231    -5402457.346 7  -4125766.85449  20950719.3924
  23322558.239     8941659.373 6   6935602.60549  23322561.2284
  22041367.911    -6695128.764 7  -5109087.20249  22041369.3064
  22955378.802     8300344.782 7   6434196.95749  22955380.0324
  22658159.036    -4902625.332 6  -3746621.13249  22658160.5244
 95  2 19 16 39  0.0010000  0  6 18 14 15 22 25 29
  24987793.575     -606642.264 3   -358775.28747  24987798.2864
  20947304.075    -5420400.119 7  -4139748.24349  20947305.1424
  23344016.552     9054420.861 6   7023468.62749  23344019.6814
  22035824.560    -6724258.990 7  -5131786.05949  22035826.1064
  22975049.388     8403717.039 7   6514746.71549  22975050.9354
  22652595.388    -4931865.353 6  -3769405.56249  22652596.4894
 95  2 19 16 39 30.0010000  0  6 18 14 15 22 25 29
  24977226.606     -662177.889 3   -402049.80246  24977230.2044
  20943999.278    -5437766.868 7  -4153280.78649  20944000.1694
  23365535.122     9167499.537 6   7111581.81649  23365538.1814
  22030400.997    -6752758.767 7  -5153993.65249  22030402.8844
  22994780.302     8507403.099 7   6595540.98849  22994781.8494
  22647073.099    -4960884.599 6  -3792017.96149  22647074.5174
 95  2 19 16 40  0.0010000  0  6 18 14 15 22 25 29
  24966678.763     -717601.657 3   -445237.14647  24966682.8414
  20940805.747    -5454551.266 7  -4166359.54449  20940806.6494
  23387113.630     9280896.611 6   7199943.10349  23387116.2314
  22025095.044    -6780642.421 7  -5175721.14349  22025096.7904
  23014570.880     8611403.547 7   6676580.24549  23014572.2044
  22641589.896    -4989696.993 6  -3814469.17349  22641591.5484
 95  2 19 16 40 30.0010000  0  6 18 14 15 22 25 29
  24956153.481     -772913.660 3   -488337.38046  24956156.9624
  20937723.052    -5470749.164 7  -4178981.29249  20937724.0954
  23408750.950     9394601.377 6   7288544.16349  23408753.4584
  22019902.114    -6807931.918 7  -5196985.66249  22019903.9314
  23034418.310     8715701.585 7   6757851.39049  23034419.2704
  22636143.372    -5018320.008 6  -3836772.82049  22636144.2744
 95  2 19 16 41  0.0010000  0  6 18 14 15 22 25 29
  24945651.099     -828101.644 3   -531340.99648  24945653.6184
  20934749.927    -5486372.882 7  -4191155.62649  20934751.1924
  23430445.177     9508605.444 6   7377378.43649  23430447.7784
  22014816.466    -6834656.587 7  -5217810.06049  22014818.5634
  23054318.185     8820273.937 7   6839336.28649  23054319.0054
  22630734.841    -5046742.770 6  -3858920.42849  22630735.7084
 95  2 19 16 41 30.0010000  0  5 14 15 22 25 29
  20931887.036    -5501417.594 7  -4202878.78649  20931888.3844
  23452196.333     9622906.584 6   7466444.19049  23452199.4974
  22009842.255    -6860796.159 7  -5238178.53249  22009844.2824
  23074268.700     8925114.136 7   6921029.89549  23074269.1224
  22625363.317    -5074968.608 6  -3880914.59049  22625363.9744
 95  2 19 16 42  0.0010000  0  6 18 14 15 22 25 29
  24924725.044      -53079.865 4
  20929137.888    -5515864.745 7  -4214136.31149  20929139.1064
  23474003.981     9737504.860 6   7555741.46449  23474007.2514
  22004985.927    -6886317.582 7  -5258065.32549  22004987.6734
  23094269.317     9030217.205 7   7002928.33349  23094269.8454
  22620029.075    -5102999.213 6  -3902756.61149  22620030.1654
 95  2 19 16 42 30.0010000  0  6 18 14 15 22 25 29
  24914301.942     -107851.216 4     -2840.92858  24914306.2784
  20926504.778    -5529700.237 7  -4224917.21649  20926505.9504
  23495865.989     9852392.697 6   7645264.37649  23495869.2244
  22000246.481    -6911221.295 7  -5277470.79949  22000248.1814
  23114315.536     9135563.544 7   7085016.32849  23114316.7084
  22614731.771    -5130837.391 6  -3924448.69849  22614732.6614
 95  2 19 16 43  0.0010000  0  6 18 14 15 22 25 29
  24903903.505     -162492.426 4    -45418.45447  24903908.0404
  20923988.856    -5542923.361 7  -4235220.95549  20923989.7824
  23517782.560     9967566.353 6   7735010.01549  23517785.8294
  21995625.310    -6935508.424 7  -5296395.81149  21995626.9974
  23134409.497     9241156.329 7   7167296.35949  23134410.2244
  22609471.138    -5158483.625 7  -3945991.21149  22609472.0284
 95  2 19 16 43 30.0010000  0  6 18 14 15 22 25 29
  24893528.177     -217016.880 4    -87905.02847  24893530.6494
  20921588.903    -5555534.187 7  -4245047.58549  20921589.9354
  23539752.099    10083018.863 6   7824972.92549  23539755.8024
  21991123.833    -6959161.554 7  -5314826.80849  21991125.7554
  23154551.216     9347001.297 7   7249772.89349  23154552.0014
  22604245.325    -5185945.081 7  -3967389.74549  22604246.0874
 95  2 19 16 44  0.0010000  0  6 18 14 15 22 25 29
  24883176.271     -271414.118 4   -130292.48848  24883180.4544
  20919302.231    -5567551.125 7  -4254411.43949  20919303.4624
  23561775.239    10198747.579 6   7915151.08349  23561779.0244
  21986741.864    -6982187.639 7  -5332769.19149  21986743.9624
  23174741.724     9453102.872 7   7332449.38149  23174742.6854
  22599056.263    -5213215.983 7  -3988639.78749  22599057.0604
 95  2 19 16 44 30.0010000  0  6 18 14 15 22 25 29
  24872846.739     -325690.384 3   -172585.67047  24872850.3134
  20917125.106    -5578992.039 7  -4263326.44349  20917126.5604
  23583848.552    10314744.975 5   8005538.59049  23583851.9974
  21982477.294    -7004599.881 7  -5350233.25949  21982479.1464
  23194981.349     9559464.702 7   7415328.67049  23194982.6144
  22593903.552    -5240292.046 7  -4009738.01349  22593904.1384
 95  2 19 16 45  0.0010000  0  6 18 14 15 22 25 29
  24862544.474     -379842.856 4   -214782.39148  24862546.8884
  20915053.364    -5589878.312 7  -4271809.25849  20915054.6534
  23605972.481    10431004.637 5   8096130.44849  23605975.6574
  21978333.599    -7026375.338 7  -5367201.13549  21978335.4154
  23215275.474     9666108.039 7   7498427.31449  23215276.6344
  22588788.614    -5267171.745 7  -4030683.22749  22588789.3764
 95  2 19 16 45 30.0010000  0  6 18 14 15 22 25 29
  24852262.560     -433866.482 3   -256878.67847  24852265.1494
  20913086.942    -5600212.890 7  -4279862.18449  20913088.2674
  23628145.724    10547527.306 5   8186927.24349  23628148.9814
  21974313.013    -7047500.627 7  -5383662.38549  21974315.0874
  23235623.630     9773038.674 7   7581749.81849  23235624.8964
  22583711.138    -5293853.758 7  -4051474.40049  22583711.8414
 95  2 19 16 46  0.0010000  0  6 18 14 15 22 25 29
  24842006.536     -487762.520 3   -298875.57248  24842011.7394
  20911227.974    -5609981.839 7  -4287474.36149  20911229.2744
  23650369.294    10664309.308 6   8277926.13249  23650372.4354
  21970415.763    -7067982.685 7  -5399622.40649  21970417.6384
  23256024.036     9880243.584 7   7665286.05049  23256024.9384
  22578670.192    -5320345.294 7  -4072117.15949  22578670.7554
 95  2 19 16 46 30.0010000  0  6 18 14 15 22 25 29
  24831770.388     -541546.969 3   -340785.53147  24831775.5094
  20909480.403    -5619165.393 7  -4294630.38949  20909481.5754
  23672640.614    10781348.415 5   8369125.35549  23672644.3414
  21966641.411    -7087818.404 7  -5415078.79449  21966643.2634
  23276473.528     9987707.613 6   7749024.19349  23276474.8174
  22573663.450    -5346653.953 7  -4092617.40549  22573664.2244
 95  2 19 16 47  0.0010000  0  6 18 14 15 22 25 29
  24821554.599     -595237.839 3   -382622.53148  24821558.7244
  20907846.591    -5627751.384 7  -4301320.78449  20907847.8454
  23694959.724    10898635.117 5   8460517.50449  23694963.6854
  21962986.364    -7107023.046 7  -5430043.44649  21962988.4624
  23296969.185    10095412.155 6   7832949.75149  23296970.9074
  22568690.208    -5372788.879 7  -4112982.27949  22568690.7594
 95  2 19 16 47 30.0010000  0  6 18 14 15 22 25 29
  24811353.630     -648845.284 4   -424394.59648  24811358.2594
  20906330.044    -5635719.568 7  -4307529.76449  20906331.3684
  23717325.591    11016167.679 5   8552101.23449  23717328.5564
  21959448.513    -7125615.763 7  -5444531.27249  21959450.6344
  23317504.778    10203328.930 6   7917040.68249  23317506.6184
  22563751.552    -5398742.256 7  -4133205.68849  22563752.2084
 95  2 19 16 48  0.0010000  0  6 18 14 15 22 25 29
  24801170.513     -702356.432 4   -466091.54948  24801174.2164
  20904934.122    -5643056.932 7  -4313247.20149  20904935.2244
  23739737.099    11133939.073 5   8643871.05849  23739740.2394
  21956026.919    -7143595.988 7  -5458541.83249  21956028.8884
  23338079.364    10311449.339 6   8001290.28649  23338081.0994
  22558849.442    -5424502.281 7  -4153278.43849  22558850.4034
 95  2 19 16 48 30.0010000  0  6 18 14 15 22 25 29
  24791009.263     -755753.906 4   -507699.95948  24791013.9274
  20903656.716    -5649768.770 7  -4318477.21549  20903658.0404
  23762194.403    11251952.061 6   8735829.14149  23762196.9934
  21952723.997    -7160953.487 7  -5472067.14749  21952726.0834
  23358697.200    10419794.966 6   8085715.38749  23358698.8064
  22553987.591    -5450051.476 7  -4173186.89549  22553988.6344
 95  2 19 16 49  0.0010000  0  6 18 14 15 22 25 29
  24780872.372     -809023.741 4   -549208.90949  24780876.3924
  20902494.591    -5655875.195 7  -4323235.47749  20902496.0444
  23784695.919    11370196.495 5   8827967.57049  23784698.8374
  21949540.927    -7177681.042 7  -5485101.60649  21949543.2004
  23379360.591    10528379.184 6   8170326.39949  23379362.0204
  22549165.263    -5475392.933 7  -4192933.48049  22549165.9424
 95  2 19 16 49 30.0010000  0  6 18 14 15 22 25 29
  24770761.302     -862160.167 4   -590613.88548  24770763.9504
  20901443.810    -5661397.974 7  -4327538.95049  20901445.1924
  23807239.200    11488665.128 5   8920280.69649  23807242.2594
  21946480.739    -7193762.481 7  -5497632.59349  21946482.4744
  23400068.880    10637200.620 6   8255122.26349  23400070.4624
  22544381.763    -5500533.610 7  -4212523.61649  22544382.5364
 95  2 19 16 50  0.0010000  0  6 18 14 15 22 25 29
  24760677.802     -915152.550 4   -631906.66547  24760680.8724
  20900502.341    -5666345.903 7  -4331394.48849  20900503.7244
  23829826.208    11607359.975 5   9012770.10149  23829829.8884
  21943545.302    -7209190.554 7  -5509654.46149  21943546.8254
  23420824.052    10746270.817 6   8340111.95449  23420825.4934
  22539632.614    -5525488.514 7  -4231968.99149  22539633.3884
 95  2 19 16 50 30.0010000  0  6 18 14 15 22 25 29
  24750615.575                      -29945.70313
  20899665.958    -5670741.001 7  -4334819.25049  20899667.2124
  23852454.161    11726270.364 5   9105427.46749  23852457.5484
  21940731.185    -7223975.337 7  -5521175.07049  21940733.2704
  23441625.044    10855582.798 6   8425290.05949  23441626.5564
  22534913.935    -5550285.559 7  -4251291.36349  22534914.6264
 95  2 19 16 51  0.0010000  0  6 18 14 15 22 25 29
  24740574.247                      -82713.893 3
  20898936.966    -5674570.672 7  -4337803.41949  20898938.1384
  23875122.341    11845394.337 5   9198251.25749  23875127.1224
  21938039.419    -7238121.519 7  -5532198.06949  21938041.6224
  23462468.067    10965114.197 6   8510639.12949  23462469.3804
  22530223.724    -5574933.187 7  -4270497.30349  22530224.3454
 95  2 19 16 51 30.0020000  0  6 18 14 15 22 25 29
  24730549.846     -135390.066 3    -24617.12258  24730554.2404
  20898319.643    -5677815.694 7  -4340332.01849  20898320.8734
  23897832.518    11964738.340 5   9291246.51849  23897836.4794
  21935468.713    -7251631.654 7  -5542725.43749  21935470.8224
  23483352.650    11074861.099 6   8596156.14649  23483353.7644
  22525563.604    -5599422.569 7  -4289579.93649  22525564.4824
 95  2 19 16 52  0.0020000  0  6 18 14 15 22 25 29
  24720543.408     -187979.389 4    -65595.77249  24720546.4324
  20897816.002    -5680463.562 7  -4342395.30349  20897817.1974
  23920582.854    12084288.441 5   9384402.34049  23920586.9324
  21933017.877    -7264508.819 7  -5552759.58349  21933019.8224
  23504276.486    11184814.603 6   8681834.12449  23504277.8344
  22520934.119    -5623750.973 7  -4308537.12849  22520935.1044
 95  2 19 16 52 30.0020000  0  6 18 14 15 22 25 29
  24710548.510     -240498.326 4   -106519.55549  24710552.0844
  20897426.736    -5682508.260 7  -4343988.58649  20897427.8734
  23943370.213    12204038.166 5   9477713.71349  23943373.8464
  21930689.986    -7276746.290 7  -5562295.27149  21930691.7914
  23525237.799    11294967.480 6   8767667.46749  23525239.1354
  22516335.877    -5647913.200 7  -4327364.83349  22516336.9904
 95  2 19 16 53  0.0020000  0  6 18 14 15 22 25 29
  24700570.557     -292937.347 4   -147381.09948  24700572.5254
  20897153.479    -5683943.792 7  -4345107.19649  20897154.8504
  23966196.283    12323984.797 5   9571178.53949  23966199.6234
  21928483.525    -7288338.074 7  -5571327.82749  21928485.4714
  23546235.979    11405312.877 6   8853650.82149  23546237.2324
  22511771.854    -5671896.515 7  -4346053.13549  22511772.8854
 95  2 19 16 53 30.0020000  0  6 18 14 15 22 25 29
  24690608.768     -345281.144 4   -188168.42049  24690611.3574
  20896994.580    -5684778.987 7  -4345758.00649  20896996.0334
  23989057.877    12444124.720 5   9664793.99149  23989062.0724
  21926403.080    -7299270.809 7  -5579846.84449  21926404.9084
  23567273.533    11515864.774 6   8939795.08649  23567274.4124
  22507242.471    -5695699.096 7  -4364600.59449  22507243.4204
 95  2 19 16 54  0.0020000  0  6 18 14 15 22 25 29
  24680668.619     -397517.049 4   -228871.67749  24680673.6704
  20896950.541    -5685012.158 7  -4345939.70649  20896951.8184
  24011955.025    12564451.173 5   9758554.76449  24011958.4824
  21924447.119    -7309550.060 7  -5587856.64749  21924449.1354
  23588348.814    11626617.210 6   9026095.60749  23588350.2444
  22502745.986    -5719327.918 7  -4383012.66949  22502746.7834
 95  2 19 16 54 30.0020000  0  6 18 14 15 22 25 29
  24670751.838     -449633.442 5   -269481.83448  24670754.6974
  20897020.221    -5684643.655 7  -4345652.56749  20897021.4634
  24034887.768    12684963.356 5   9852460.28249  24034891.5294
  21922615.307    -7319176.777 7  -5595357.98149  21922617.1234
  23609462.924    11737571.938 6   9112553.77449  23609464.3424
  22498283.775    -5742777.491 7  -4401285.04749  22498284.4204
 95  2 19 16 55  0.0020000  0  6 18 14 15 22 25 29
  24660858.635     -501621.356 5   -309991.85449  24660862.7834
  20897206.775    -5683663.976 7  -4344889.19449  20897207.9364
  24057856.502    12805661.503 5   9946510.70549  24057859.9594
  21920907.338    -7328151.823 7  -5602351.51549  21920909.3654
  23630616.096    11848731.490 6   9199171.53949  23630617.9244
  22493855.986    -5766046.604 7  -4419416.81949  22493856.4794
 95  2 19 16 55 30.0020000  0  6 18 14 15 22 25 29
  24650986.088     -553498.710 5   -350415.73049  24650988.4084
  20897510.174    -5682071.281 7  -4343648.13849  20897511.2524
  24080857.752    12926535.839 5  10040698.39849  24080862.0644
  21919320.877    -7336487.778 7  -5608847.06349  21919322.8114
  23651807.361    11960093.137 6   9285946.78849  23651808.9794
  22489461.564    -5789141.035 7  -4437412.47649  22489461.7404
 95  2 19 16 56  0.0020000  0  6 18 14 15 22 25 29
  24641131.525     -605285.403 5   -390768.96048  24641135.0884
  20897929.518    -5679867.675 7  -4341931.05349  20897930.7484
  24103891.846    13047578.535 5  10135017.31549  24103894.3304
  21917854.119    -7344194.818 7  -5614852.54349  21917856.0534
  23673033.627    12071637.000 6   9372864.01949  23673035.1274
  22485099.986    -5812059.131 7  -4455270.73449  22485100.4204
 95  2 19 16 56 30.0020000  0  6 18 14 15 22 25 29
  24631291.322     -656999.403 5   -431065.56349  24631293.8894
  20898463.814    -5677059.042 7  -4339742.51549  20898465.3034
  24126956.893    13168789.923 5  10229467.66049  24126960.1274
  21916508.838    -7351265.437 7  -5620362.10949  21916510.8774
  23694293.111    12183359.461 6   9459920.41049  23694295.0574
  22480773.791    -5834792.480 7  -4472985.02349  22480774.6464
 95  2 19 16 57  0.0020000  0  6 18 14 15 22 25 29
  24621464.736     -708640.016 5   -471304.98049  24621468.4634
  20899112.338    -5673650.391 7  -4337086.43349  20899113.8144
  24150054.127    13290165.770 5  10324046.16349  24150058.3934
  21915285.064    -7357696.815 7  -5625373.57049  21915287.2914
  23715584.721    12295247.578 6   9547105.89449  23715586.2794
  22476482.408    -5857343.254 7  -4490557.05749  22476483.3574
 95  2 19 16 57 30.0020000  0  6 18 14 15 22 25 29
  24611652.768     -760203.173 5   -511484.03249  24611655.5104
  20899871.736    -5669659.950 7  -4333977.00749  20899872.9904
  24173181.768    13411700.613 5  10418748.54249  24173185.2134
  21914182.541    -7363490.426 7  -5629888.06549  21914184.8034
  23736909.166    12407305.557 6   9634423.73749  23736910.6074
  22472225.596    -5879712.595 7  -4507987.71949  22472226.4394
 95  2 19 16 58  0.0020000  0  6 18 14 15 22 25 29
  24601857.752     -811672.445 5   -551589.94249  24601860.2254
  20900741.721    -5665089.198 7  -4330415.39349  20900742.9514
  24196338.353    13533388.195 5  10513569.95449  24196341.2484
  21913202.088    -7368641.878 7  -5633902.18149  21913204.3964
  23758264.080    12519525.141 6   9721867.50349  23758265.7794
  22467999.971    -5901919.923 7  -4525292.13149  22468000.8144
 95  2 19 16 58 30.0020000  0  6 18 14 15 22 25 29
  24592086.119     -863023.500 5   -591603.72849  24592089.6234
  20901723.807    -5659927.705 7  -4326393.46549  20901725.1784
  24219522.971    13655224.106 5  10608506.93049  24219526.0184
  21912346.432    -7373137.824 7  -5637405.51649  21912348.5884
  23779649.994    12631907.333 6   9809437.98449  23779651.3544
  22463803.182    -5923973.999 7  -4542477.12849  22463803.8504
 95  2 19 16 59  0.0020000  0  6 18 14 15 22 25 29
  24582341.393     -914233.123 5   -631507.31149  24582345.6464
  20902820.799    -5654164.066 7  -4321902.32749  20902821.9474
  24242735.494    13777207.390 5  10703558.75649  24242739.7364
  21911616.814    -7376970.805 7  -5640392.25049  21911619.1584
  23801069.510    12744467.683 6   9897147.28349  23801070.8344
  22459634.033    -5945881.913 7  -4559548.22949  22459634.8304
 95  2 19 16 59 30.0020000  0  6 18 14 15 22 25 29
  24572620.455     -965309.290 4   -671306.89948  24572624.1234
  20904034.791    -5647784.917 7  -4316931.56949  20904035.9164
  24265975.369    13899332.261 5  10798720.92249  24265979.4364
  21911012.705    -7380148.058 7  -5642868.02449  21911014.9204
  23822522.760    12857207.236 6   9984996.21449  23822523.8964
  22455491.854    -5967650.461 7  -4576510.73649  22455492.7684
 95  2 19 17  0  0.0020000  0  6 18 14 15 22 25 29
  24562925.260    -1016262.608 4   -711010.73749  24562928.7524
  20905367.525    -5640779.967 7  -4311473.17549  20905368.7914
  24289240.729    14021594.427 5  10893990.05849  24289245.2994
  21910532.908    -7382668.647 7  -5644832.11249  21910535.3464
  23844007.650    12970111.215 6  10072973.26849  23844009.2444
  22451377.705    -5989270.887 7  -4593357.82049  22451378.5614
 95  2 19 17  0 30.0020000  0  6 18 14 15 22 25 29
  24553247.650    -1067115.742 4   -750636.53649  24553250.8504
  20906819.830    -5633149.705 7  -4305527.52549  20906820.9084
  24312533.197    14143995.311 5  10989367.27849  24312536.9944
  21910178.400    -7384529.719 7  -5646282.29649  21910180.9324
  23865525.807    13083188.986 6  10161085.75149  23865527.3184
  22447297.064    -6010714.128 7  -4610066.85049  22447297.7914
 95  2 19 17  1  0.0020000  0  6 18 14 15 22 25 29
  24543584.119    -1117896.316 4   -790205.78549  24543588.6784
  20908389.322    -5624902.132 7  -4299100.85449  20908390.5764
  24335851.260    14266532.605 5  11084850.80649  24335856.1584
  21909946.580    -7385753.127 7  -5647235.59449  21909948.5374
  23887078.830    13196451.680 6  10249342.31949  23887080.0494
  22443251.096    -6031976.426 7  -4626634.86749  22443252.0214
 95  2 19 17  1 30.0020000  0  6 18 14 15 22 25 29
  24533931.713    -1168629.657 4   -829738.24749  24533935.6864
  20910073.924    -5616046.786 7  -4292200.59349  20910075.1784
  24359193.150    14389197.669 5  11180433.89549  24359197.4164
  21909834.908    -7386338.819 7  -5647691.96749  21909836.8424
  23908662.596    13309873.027 6  10337722.51949  23908663.9204
  22439239.979    -6053051.878 7  -4643057.30049  22439241.0214
 95  2 19 17  2  0.0020000  0  6 18 14 15 22 25 29
  24524286.158    -1219314.595 4   -869232.95849  24524289.9794
  20911875.104    -5606583.024 7  -4284826.24749  20911876.4164
  24382559.361    14511990.166 5  11276116.25949  24382564.0494
  21909849.111    -7386262.942 7  -5647632.83349  21909851.1624
  23930277.150    13423455.957 6  10426228.63149  23930278.2644
  22435268.033    -6073926.508 7  -4659323.25149  22435268.8074
 95  2 19 17  2 30.0020000  0  6 18 14 15 22 25 29
  24514650.650    -1269946.911 4   -908686.68449  24514653.0534
  20913791.971    -5596510.398 7  -4276977.46649  20913793.2014
  24405950.057    14634902.787 5  11371892.25049  24405954.7444
  21909988.455    -7385529.890 7  -5647061.61949  21909990.3534
  23951922.588    13537204.306 6  10514863.64649  23951923.8424
  22431330.869    -6094615.704 7  -4675444.70749  22431331.5374
 95  2 19 17  3  0.0020000  0  6 18 14 15 22 25 29
  24505029.377    -1320506.217 5   -948083.52549  24505033.3734
  20915824.994    -5585826.173 7  -4268652.10949  20915826.4714
  24429362.166    14757931.381 5  11467758.57649  24429367.1234
  21910255.057    -7384129.410 7  -5645970.33049  21910257.1544
  23973597.424    13651107.615 6  10603619.41249  23973599.1464
  22427426.830    -6115133.957 7  -4691432.96049  22427427.4514
 95  2 19 17  3 30.0020000  0  6 18 14 15 22 25 29
  24495427.377    -1370971.571 5   -987407.12749  24495430.9044
  20917976.572    -5574519.820 7  -4259841.98149  20917978.0374
  24452795.439    14881075.131 5  11563714.68149  24452799.3894
  21910653.455    -7382036.722 7  -5644339.64849  21910655.5764
  23995301.354    13765159.967 6  10692491.30349  23995303.0414
  22423557.604    -6135467.257 7  -4707277.09349  22423557.9674
 95  2 19 17  4  0.0020000  0  6 18 14 15 22 25 29
  24485843.736    -1421327.221 5  -1026645.27749  24485847.1354
  20920245.275    -5562597.647 7  -4250551.98849  20920246.8224
  24476249.510    15004329.959 5  11659757.31949  24476254.5144
  21911181.838    -7379260.017 7  -5642175.98549  21911183.5374
  24017035.979    13879377.358 6  10781491.80049  24017037.6314
  22419722.846    -6155620.488 7  -4722980.90549  22419723.4434
 95  2 19 17  4 30.0020000  0  6 18 14 15 22 25 29
  24476282.447      -28459.02715
  20922628.455    -5550072.565 7  -4240792.19449  20922630.0494
  24499724.564    15127692.275 5  11755883.69649  24499728.5844
  21911836.752    -7375816.589 7  -5639492.78649  21911838.5334
  24038800.439    13993752.740 6  10870615.39649  24038802.4904
  22415919.252    -6175605.859 7  -4738553.91849  22415920.1314
 95  2 19 17  5  0.0020000  0  6 18 14 15 22 25 29
  24466741.369      -78598.735 5     -9109.46359  24466743.9824
  20925127.479    -5536942.243 7  -4230560.78449  20925128.9204
  24523219.533    15251161.319 5  11852093.26149  24523224.0684
  21912619.541    -7371703.089 7  -5636287.46449  21912621.3694
  24060593.166    14108273.603 6  10959852.36049  24060595.2994
  22412151.275    -6195408.152 7  -4753984.27849  22412152.0614
 95  2 19 17  5 30.0020000  0  6 18 14 15 22 25 29
  24457217.025     -128647.101 5    -48108.22649  24457219.4514
  20927739.533    -5523215.529 7  -4219864.66249  20927740.8814
  24546733.822    15374725.261 5  11948376.77649  24546737.2914
  21913524.947    -7366946.390 7  -5632580.94049  21913526.8934
  24082412.846    14222933.440 6  11049197.62949  24082414.2524
  22408416.814    -6215031.599 7  -4769275.27149  22408417.9984
 95  2 19 17  6  0.0020000  0  7 18 14 15 19 22 25 29
  24447709.830     -178606.300 5    -87037.43249  24447713.7794
  20930466.205    -5508887.801 8  -4208700.21149  20930467.6004
  24570265.783    15498384.151 5  12044734.25449  24570268.9124
  25366716.150      -23611.93013
  21914551.611    -7361552.466 7  -5628377.88249  21914553.3814
  24104257.603    14337730.462 6  11138649.78949  24104259.2914
  22404714.463    -6234488.030 7  -4784436.12449  22404715.5534
 95  2 19 17  6 30.0020000  0  7 18 14 15 19 22 25 29
  24438218.518     -228484.677 5   -125903.65649  24438221.6234
  20933309.713    -5493944.452 7  -4197056.04949  20933311.0144
  24593814.596    15622133.811 5  12141162.45749  24593818.8964
  25354491.627      -87851.888 3
  21915699.424    -7355519.462 7  -5623676.84349  21915701.0764
  24126126.666    14452652.391 6  11228199.27649  24126128.3074
  22401044.119    -6253775.372 7  -4799465.22449  22401045.1504
 95  2 19 17  7  0.0020000  0  7 18 14 15 19 22 25 29
  24428743.549     -278273.904 5   -164700.44249  24428747.2404
  20936272.619    -5478374.604 7  -4184923.71949  20936273.8144
  24617380.205    15745970.791 5  12237658.70849  24617383.5804
  25342311.869     -151856.776 3    -13281.24057  25342317.5764
  21916971.119    -7348837.362 7  -5618470.00849  21916972.4434
  24148021.564    14567709.628 6  11317854.20749  24148023.0884
  22397406.354    -6272893.482 7  -4814362.44949  22397407.1624
 95  2 19 17  7 30.0020000  0  7 18 14 15 19 22 25 29
  24419287.338     -327971.047 5   -203425.48448  24419290.8894
  20939353.658    -5462182.648 7  -4172306.62649  20939354.9594
  24640960.838    15869888.640 5  12334217.95049  24640965.3614
  25330178.221     -215627.210 3    -62972.50448  25330182.7914
  21918368.760    -7341493.364 7  -5612747.41449  21918370.1894
  24169943.729    14682908.973 6  11407619.88149  24169944.5614
  22393795.330    -6291867.821 7  -4829147.65349  22393796.1864
 95  2 19 17  8  0.0020000  0  7 18 14 15 19 22 25 29
  24409847.877     -377573.882 5   -242077.01349  24409851.2404
  20942554.502    -5445360.420 7  -4159198.40949  20942556.1784
  24664557.502    15993889.409 5  12430841.82349  24664562.4824
  25318085.057     -279173.500 3   -112489.03045  25318088.2914
  21919897.650    -7333458.781 7  -5606486.69249  21919899.2794
  24191892.135    14798248.974 6  11497495.14549  24191893.3774
  22390212.135    -6310699.285 7  -4843821.51849  22390213.1074
 95  2 19 17  8 30.0020000  0  7 18 14 15 19 22 25 29
  24400425.604     -427084.170 5   -280656.44149  24400427.9004
  20945875.479    -5427910.232 7  -4145600.87749  20945876.8734
  24688169.518    16117969.680 5  12527527.65248  24688173.0574
  25306033.221     -342500.207 3   -161834.48647  25306037.4044
  21921557.877    -7324731.955 7  -5599686.56249  21921559.7524
  24213866.049    14913726.795 6  11587477.79449  24213868.2644
  22386656.299    -6329385.064 7  -4858381.86649  22386656.9784
 95  2 19 17  9  0.0020000  0  7 18 14 15 19 22 25 29
  24391022.525     -476500.173 5   -319162.37749  24391024.0724
  20949315.314    -5409834.744 7  -4131516.09149  20949316.8384
  24711796.166    16242126.249 5  12624272.93249  24711799.8344
  25294023.541     -405614.462 4   -211014.41147  25294027.6784
  21923348.518    -7315322.264 7  -5592354.33049  21923350.4634
  24235864.885    15029332.441 6  11677560.06549  24235867.3814
  22383126.924    -6347932.321 7  -4872834.27449  22383127.6044
 95  2 19 17  9 30.0020000  0  7 18 14 15 19 22 25 29
  24381634.080     -525838.576 5   -357607.85949  24381636.4004
  20952874.533    -5391131.190 8  -4116941.90749  20952876.0104
  24735436.236    16366355.956 5  12721075.19749  24735439.2134
  25282053.775     -468518.492 4   -260030.50246  25282059.7994
  21925268.244    -7305236.690 7  -5584495.43249  21925269.9554
  24257886.150    15145053.314 6  11767732.12649  24257888.9044
  22379625.994    -6366329.126 7  -4887169.44349  22379626.7324
 95  2 19 17 10  0.0020000  0  7 18 14 15 19 22 25 29
  24372259.010     -575104.645 5   -395996.99249  24372260.9324
  20956553.150    -5371800.393 7  -4101878.96649  20956554.5334
  24759089.244    16490656.760 5  12817932.87949  24759093.1114
  25270121.213     -531219.447 3   -308888.35147  25270126.2174
  21927311.846    -7294494.198 7  -5576124.65449  21927313.9904
  24279929.518    15260891.554 6  11857995.61149  24279931.4864
  22376158.041    -6384553.332 7  -4901370.12949  22376158.8614
 95  2 19 17 10 30.0020000  0  7 18 14 15 19 22 25 29
  24362899.939     -624287.872 5   -434321.56349  24362902.6464
  20960349.947    -5351847.140 7  -4086330.99349  20960351.5764
  24782755.705    16615023.192 5  12914841.67649  24782761.0724
  25258231.729     -593700.077 3   -357574.53348  25258237.0494
  21929477.689    -7283113.649 7  -5567256.69149  21929479.7644
  24301995.307    15376845.989 6  11948349.64049  24301998.1434
  22372724.400    -6402596.925 7  -4915430.06749  22372725.1044
 95  2 19 17 11  0.0020000  0  7 18 14 15 19 22 25 29
  24353556.400     -673384.593 5   -472578.74349  24353558.5804
  20964264.979    -5331273.331 7  -4070299.46949  20964266.6784
  24806433.580    16739450.413 5  13011797.85949  24806437.9864
  25246385.775     -655956.653 4   -406086.10648  25246389.3964
  21931764.588    -7271094.418 7  -5557891.04849  21931766.5804
  24324082.416    15492914.857 6  12038792.86149  24324084.4434
  22369327.213    -6420451.825 7  -4929342.98049  22369327.9394
 95  2 19 17 11 30.0020000  0  7 18 14 15 19 22 25 29
  24344230.463     -722394.102 5   -510767.92849  24344233.2754
  20968297.838    -5310081.199 7  -4053786.13249  20968299.4434
  24830121.596    16863933.381 5  13108797.47148  24830127.4554
  25234582.791     -717981.560 4   -454417.21047  25234587.8074
  21934175.994    -7258423.499 7  -5548017.60349  21934178.1974
  24346194.127    15609111.558 6  12129335.68449  24346196.4364
  22365965.307    -6438116.968 7  -4943108.02849  22365966.1504
 95  2 19 17 12  0.0020000  0  7 18 14 15 19 22 25 29
  24334926.158     -771289.693 5   -548868.38749  24334929.5804
  20972448.580    -5288269.043 7  -4036789.66449  20972450.2444
  24853820.979    16988476.566 4  13205843.97349  24853826.1934
  25222829.627     -779747.133 4   -502546.18247  25222834.6434
  21936712.635    -7245092.213 7  -5537629.58749  21936714.6044
  24368332.096    15725444.406 6  12219984.57749  24368334.0064
  22362639.229    -6455596.780 7  -4956728.66749  22362639.8264
 95  2 19 17 12 30.0020000  0  7 18 14 15 19 22 25 29
  24325640.127     -820083.085 5   -586889.17249  24325642.9284
  20976717.041    -5265836.800 7  -4019310.01049  20976718.7294
  24877529.674    17113068.452 4  13302928.46049  24877535.2994
  25211125.736     -841247.977 4   -550468.88749  25211129.6044
  21939376.041    -7231096.338 7  -5526723.69849  21939378.4674
  24390490.674    15841891.124 6  12310722.21349  24390492.9714
  22359344.064    -6472910.140 7  -4970219.59349  22359344.8614
 95  2 19 17 13  0.0020000  0  7 18 14 15 19 22 25 29
  24316374.205     -868776.938 5   -624832.38549  24316377.4514
  20981106.322    -5242772.242 7  -4001337.64249  20981107.8934
  24901250.580    17237716.233 5  13400056.49048  24901255.8894
  25199472.174     -902483.839 4   -598185.10949  25199477.0024
  21942170.502    -7216412.686 7  -5515281.88449  21942172.7054
  24412673.252    15958460.894 6  12401555.73449  24412675.2324
  22356080.525    -6490060.578 7  -4983583.57249  22356081.3814
 95  2 19 17 13 30.0020000  0  7 18 14 15 19 22 25 29
  24307126.393     -917376.494 5   -662702.14649  24307130.3184
  20985615.369    -5219076.721 7  -3982873.61549  20985616.9164
  24924979.611    17362411.184 5  13497221.29248  24924983.9004
  25187868.252     -963463.275 3   -645701.57548  25187872.3774
  21945096.096    -7201038.811 7  -5503302.23849  21945098.1464
  24434878.689    16075147.966 6  12492480.65849  24434880.6584
  22352845.213    -6507063.580 7  -4996832.66449  22352845.9164
 95  2 19 17 14  0.0020000  0  7 18 14 15 19 22 25 29
  24297895.564     -965884.535 5   -700500.59549  24297898.1074
  20990244.416    -5194751.147 7  -3963918.63749  20990245.9754
  24948716.830    17487151.092 5  13594421.12949  24948721.1194
  25176311.393    -1024194.191 3   -693024.36748  25176315.8574
  21948152.846    -7184974.939 7  -5490784.93049  21948155.0144
  24457101.385    16191933.990 6  12583482.68549  24457103.2834
  22349639.103    -6523913.387 7  -5009962.38749  22349639.7954
 95  2 19 17 14 30.0020000  0  7 18 14 15 19 22 25 29
  24288680.260    -1014312.061 5   -738236.29749  24288684.1044
  20994995.822    -5169782.566 7  -3944462.61949  20994997.3694
  24972461.830    17611931.737 5  13691652.70149  24972465.8854
  25164798.643    -1084694.110 3   -740167.09847  25164802.3574
  21951340.549    -7168223.152 7  -5477731.58149  21951342.5644
  24479343.768    16308816.363 6  12674559.78649  24479346.2174
  22346463.627    -6540598.644 7  -5022963.88249  22346464.3074
 95  2 19 17 15  0.0020000  0  7 18 14 15 19 22 25 29
  24279482.697    -1062647.124 5   -775899.94649  24279485.5454
  20999869.057    -5144172.713 7  -3924506.90449  20999870.8144
  24996213.916    17736746.593 5  13788910.89149  24996217.8184
  25153330.689    -1144961.075 4   -787128.36349  25153334.5804
  21954655.525    -7150801.078 7  -5464155.93749  21954657.8224
  24501606.580    16425805.966 6  12765720.43249  24501609.0534
  22343321.252    -6557110.377 7  -5035830.17049  22343322.0614
 95  2 19 17 15 30.0020000  0  7 18 14 15 19 22 25 29
  24270301.900    -1110886.577 5   -813489.09949  24270305.1824
  21004864.369    -5117923.153 7  -3904052.72249  21004865.8224
  25019970.252    17861593.573 4  13886194.14048  25019975.3384
  25141906.791    -1204989.751 4   -833903.91849  25141911.2794
  21958097.283    -7132713.660 7  -5450061.84149  21958099.5334
  24523889.205    16542903.551 6  12856965.22149  24523892.0534
  22340216.197    -6573429.919 7  -5048546.69549  22340217.0884
 95  2 19 17 16  0.0020000  0  7 18 14 15 19 22 25 29
  24261139.580    -1159041.289 5   -851012.23149  24261141.9714
  21009979.463    -5091043.310 7  -3883107.40849  21009981.0574
  25043734.119    17986468.822 4  13983499.41649  25043739.6974
  25130530.541    -1264776.489 4   -880490.96649  25130534.8654
  21961664.877    -7113969.842 7  -5435456.25849  21961666.9754
  24546190.947    16660102.036 6  12948288.67249  24546193.1744
  22337148.361    -6589549.943 7  -5061107.75149  22337149.1824
 95  2 19 17 16 30.0020000  0  7 18 14 15 19 22 25 29
  24251992.979    -1207105.081 5   -888464.51349  24251996.0494
  21015215.104    -5063529.460 7  -3861668.06449  21015216.6864
  25067503.439    18111373.729 4  14080827.78147  25067508.6314
  25119200.252    -1324313.730 4   -926883.59148  25119204.4944
  21965356.369    -7094569.565 7  -5420339.14949  21965358.5964
  24568515.111    16777414.897 6  13039701.23249  24568517.7484
  22334120.643    -6605461.301 7  -5073506.21649  22334121.4044
 95  2 19 17 17  0.0020000  0  7 18 14 15 19 22 25 29
  24242863.205    -1255082.213 5   -925849.25649  24242866.8614
  21020566.080    -5035407.891 7  -3839755.17049  21020567.8264
  25091275.150    18236300.494 4  14178173.20748  25091280.5294
  25107917.854    -1383606.129 4   -973085.41849  25107921.6744
  21969175.580    -7074500.718 7  -5404701.09049  21969177.5724
  24590858.853    16894832.516 6  13131195.41149  24590861.9124
  22331130.307    -6621175.021 7  -5085750.67349  22331131.0684
 95  2 19 17 17 30.0020000  0  7 18 14 15 19 22 25 29
  24233748.588    -1302978.152 5   -963170.73649  24233753.0184
  21026033.916    -5006675.801 7  -3817366.54349  21026035.4754
  25115052.783    18361252.161 5  14275538.05248  25115059.1464
  25096678.775    -1442667.353 4  -1019107.10248  25096683.3114
  21973126.658    -7053736.271 7  -5388520.99649  21973128.7444
  24613221.736    17012350.302 6  13222767.62649  24613225.5334
  22328177.354    -6636694.699 7  -5097843.92249  22328178.0454
 95  2 19 17 18  0.0020000  0  7 18 14 15 19 22 25 29
  24224652.104    -1350782.727 5  -1000421.03349  24224654.9164
  21031620.424    -4977318.134 7  -3794490.45549  21031622.0294
  25138835.494    18486227.500 5  14372921.31349  25138840.2524
  25085484.096    -1501492.908 4  -1064945.17848  25085488.2794
  21977209.533    -7032282.458 7  -5371803.73449  21977211.7834
  24635606.853    17129980.477 6  13314427.42649  24635609.5724
  22325258.580    -6652032.294 7  -5109795.29549  22325259.1894
 95  2 19 17 18 30.0020000  0  7 18 14 15 19 22 25 29
  24215573.424    -1398489.917 5  -1037595.43449  24215576.5064
  21037326.322    -4947334.812 7  -3771126.84249  21037327.9634
  25162620.346    18611217.015 5  14470315.61449  25162624.9984
  25074334.283    -1560090.642 5  -1110605.71249  25074337.4474
  21981421.768    -7010146.471 7  -5354554.91249  21981423.8654
  24658011.635    17247720.869 6  13406173.12149  24658014.4124
  22322371.916    -6667200.757 7  -5121614.87549  22322372.8304
 95  2 19 17 19  0.0020000  0  7 18 14 15 19 22 25 29
  24206513.104    -1446106.122 5  -1074698.94549  24206515.8934
  21043150.838    -4916726.390 7  -3747276.13549  21043152.3854
  25186405.658    18736212.025 5  14567714.21149  25186411.0254
  25063226.228    -1618465.250 5  -1156092.35249  25063230.2954
  21985763.939    -6987327.174 7  -5336773.63749  21985766.1074
  24680437.166    17365566.374 6  13498000.71249  24680439.1004
  22319515.049    -6682213.773 7  -5133313.33049  22319515.9984
 95  2 19 17 19 30.0020000  0  7 18 14 15 19 22 25 29
  24197470.447    -1493621.262 5  -1111723.71249  24197473.3894
  21049098.705    -4885469.916 7  -3722920.45249  21049100.3224
  25210193.643    18861214.562 5  14665118.67449  25210197.1824
  25052160.564    -1676610.400 5  -1201400.19749  25052163.5184
  21990233.854    -6963837.135 7  -5318469.70549  21990235.8814
  24702883.783    17483524.171 6  13589915.79249  24702886.3264
  22316689.604    -6697061.536 7  -5144883.01749  22316690.6934
 95  2 19 17 20  0.0020000  0  7 18 14 15 19 22 25 29
  24188449.182    -1541032.225 5  -1148667.30049  24188451.1864
  21055169.463    -4853568.346 7  -3698062.10449  21055171.1044
  25233981.393    18986222.739 3  14762527.54547  25233986.0454
  25041143.580    -1734503.720 5  -1246511.81349  25041146.6394
  21994831.400    -6939677.441 7  -5299643.97249  21994833.3694
  24725349.494    17601580.884 6  13681907.96149  24725352.4714
  22313898.299    -6711728.976 7  -5156312.19749  22313899.0844
 95  2 19 17 20 30.0020000  0  7 18 14 15 19 22 25 29
  24179444.041    -1588353.153 5  -1185540.72049  24179445.8344
  21061359.994    -4821036.106 7  -3672712.32349  21061361.6584
  25257768.861    19111225.946 3  14859932.49848  25257774.0534
  25030173.346    -1792153.234 5  -1291433.44449  25030177.3654
  21999557.799    -6914840.322 7  -5280290.37349  21999560.0614
  24747828.314    17719706.620 6  13773953.91349  24747830.9754
  22311142.463    -6726212.360 7  -5167597.95449  22311143.0494
 95  2 19 17 21  0.0020000  0  7 18 14 15 19 22 25 29
  24170456.150    -1635585.738 6  -1222345.30649  24170458.7404
  21067673.010    -4787860.408 7  -3646861.14549  21067674.7684
  25281555.119    19236228.995 3  14957337.37948  25281560.4754
  25019252.268    -1849542.902 5  -1336152.62749  25019254.4474
  22004414.236    -6889321.049 7  -5260405.23049  22004416.4754
  24770320.119    17837902.446 6  13866054.47449  24770322.7564
  22308422.799    -6740503.523 7  -5178733.92449  22308423.5964
 95  2 19 17 21 30.0030000  0  7 18 14 15 19 22 25 29
  24161482.702    -1682740.657 5  -1259089.38749  24161485.6904
  21074109.655    -4754037.185 7  -3620505.40049  21074111.3664
  25305343.874    19361232.737 3  15054742.77848  25305350.4484
  25008383.530    -1906664.192 4  -1380662.65049  25008388.7924
  22009399.030    -6863124.378 7  -5239992.23949  22009400.8474
  24792823.858    17956161.763 6  13958204.51949  24792826.6714
  22305738.561    -6754610.569 7  -5189726.43649  22305739.5584
 95  2 19 17 22  0.0030000  0  7 18 14 15 19 22 25 29
  24152523.819    -1729818.094 5  -1295773.07649  24152527.0894
  21080667.851    -4719574.729 7  -3593651.55349  21080669.5614
  25329128.233    19486223.959 4  15152138.40649  25329133.5074
  24997565.796    -1963508.224 4  -1424956.65648  24997571.1634
  22014513.874    -6836244.982 7  -5219047.25549  22014515.8084
  24815339.280    18074480.198 6  14050400.63449  24815341.9764
  22303085.694    -6768551.695 7  -5200589.64749  22303086.6444
 95  2 19 17 22 30.0030000  0  6 18 14 15 22 25 29
  24143581.569    -1776812.589 5  -1332392.13449  24143584.6634
  21087348.577    -4684465.954 7  -3566294.07849  21087350.2534
  25352912.218       45820.05614
  22019756.265    -6808695.025 7  -5197579.75449  22019758.7024
  24837869.710    18192873.440 6  14142655.00349  24837872.0424
  22300462.022    -6782337.735 7  -5211332.01049  22300462.8904
 95  2 19 17 23  0.0030000  0  7 18 14 15 19 22 25 29
  24134652.687    -1823729.571 5  -1368950.79349  24134655.5694
  21094150.171    -4648723.825 7  -3538443.08549  21094151.9294
  25376691.655      170785.541 3
  24976080.585      -43158.70114
  22025125.186    -6780485.047 7  -5175597.95049  22025127.4374
  24860412.507    18311339.704 6  14234966.33149  24860414.4994
  22297866.101    -6795979.421 7  -5221961.89149  22297866.9914
 95  2 19 17 23 30.0030000  0  7 18 14 15 19 22 25 29
  24125741.655    -1870559.624 5  -1405441.70549  24125745.1474
  21101071.147    -4612354.102 7  -3510103.05649  21101072.7184
  25400468.046      295730.337 3     87618.84858  25400474.3514
  24965408.437      -99239.705 5    -21827.50459  24965412.4444
  22030621.085    -6751601.516 7  -5153091.29849  22030623.3124
  24882969.296    18429877.518 6  14327333.38949  24882971.7224
  22295299.491    -6809468.138 7  -5232472.57749  22295300.4874
 95  2 19 17 24  0.0030000  0  7 18 14 15 19 22 25 29
  24116848.929    -1917287.866 5  -1441853.30949  24116851.4604
  21108109.499    -4575368.364 7  -3481283.01849  21108111.0464
  25424240.835      420649.149 3    184958.08345  25424247.5974
  24954781.405     -155088.805 5    -65346.22749  24954784.8044
  22036244.624    -6722050.312 7  -5130064.38449  22036246.7924
  24905539.546    18548480.402 6  14419751.16249  24905542.2764
  22292765.515    -6822783.466 7  -5242848.15649  22292766.3944
 95  2 19 17 24 30.0030000  0  7 18 14 15 19 22 25 29
  24107976.640    -1963918.478 5  -1478188.81749  24107979.2654
  21115266.632    -4537757.493 8  -3451975.86349  21115268.3084
  25448006.999      545544.250 3    282278.87548  25448011.5224
  24944199.476     -210696.211 5   -108676.64649  24944204.5504
  22041995.890    -6691827.064 7  -5106513.80649  22041998.0114
  24928119.077    18667138.862 6  14512212.23849  24928120.6124
  22290270.077    -6835898.018 7  -5253067.28749  22290271.1324
 95  2 19 17 25  0.0030000  0  7 18 14 15 19 22 25 29
  24099119.866    -2010455.207 5  -1514451.17349  24099123.4524
  21122545.733    -4499506.541 8  -3422169.94249  21122547.0814
  25471767.944      670409.316 3    379576.23846  25471771.1444
  24933665.124     -266052.534 5   -151811.39648  24933669.7294
  22047877.944    -6660916.162 7  -5082427.38349  22047880.0894
  24950710.101    18785855.826 5  14604718.87649  24950713.0424
  22287812.085    -6848814.485 7  -5263132.06449  22287813.1514
 95  2 19 17 25 30.0030000  0  7 18 14 15 19 22 25 29
  24090284.686    -2056883.993 5  -1550629.42549  24090288.0154
  21129948.530    -4460602.511 7  -3391855.12949  21129950.0074
  25495524.944      795248.149 3    476853.15147  25495529.0934
  24923181.671     -321143.182 5   -194739.13849  24923186.1364
  22053890.585    -6629318.334 7  -5057805.70149  22053892.7534
  24973313.733    18904641.036 5  14697278.73449  24973316.1474
  22285392.921    -6861526.961 7  -5273037.88549  22285393.8944
 95  2 19 17 26  0.0030000  0  7 18 14 15 19 22 25 29
  24081466.702    -2103219.835 5  -1586735.22949  24081470.2414
  21137473.429    -4421059.610 7  -3361042.49449  21137475.1404
  25519272.968      920043.939 3    574096.54647  25519273.9054
  24912745.515     -375983.093 5   -237471.50449  24912749.9444
  22060031.007    -6597053.714 7  -5032664.43349  22060032.8944
  24995930.343    19023490.716 5  14789888.78049  24995933.6944
  22283009.460    -6874052.187 7  -5282797.80149  22283010.2924
 95  2 19 17 26 30.0030000  0  7 18 14 15 19 22 25 29
  24072666.491    -2149468.160 5  -1622772.85149  24072669.6554
  21145119.468    -4380878.009 7  -3329732.16949  21145121.2844
  25543009.577     1044791.239 3    671302.13447  25543013.8544
  24902356.522     -430579.887 5   -280014.42749  24902360.5654
  22066296.780    -6564124.161 7  -5007005.03549  22066298.9014
  25018560.054    19142409.224 5  14882552.48349  25018561.8004
  22280657.976    -6886410.843 7  -5292427.91949  22280658.8194
 95  2 19 17 27  0.0030000  0  7 18 14 15 19 22 25 29
  24063889.249    -2195592.877 5  -1658714.16949  24063892.1554
  21152887.694    -4340057.894 7  -3297924.30349  21152889.3824
  25566740.132     1169497.075 3    768475.47247  25566747.3784
  24892012.710     -484938.474 5   -322371.74549  24892016.1554
  22072690.905    -6530522.197 7  -4980821.67849  22072693.0734
  25041205.866    19261414.583 5  14975283.82349  25041209.5584
  22278337.694    -6898604.404 7  -5301929.38949  22278338.4214
 95  2 19 17 27 30.0030000  0  7 18 14 15 19 22 25 29
  24055134.983    -2241595.686 5  -1694560.50549  24055138.2184
  21160771.382    -4298626.968 7  -3265640.48149  21160773.0694
  25590464.858     1294162.079 3    865616.91548  25590471.8824
  24881709.179     -539079.571 4   -364559.55849  24881713.9724
  22079212.116    -6496252.959 7  -4954118.37049  22079214.2614
  25063868.718    19380505.096 5  15068081.57649  25063872.0814
  22276051.499    -6910618.944 7  -5311291.36949  22276051.9914
 95  2 19 17 28  0.0030000  0  7 18 14 15 19 22 25 29
  24046401.366    -2287493.629 5  -1730325.12649  24046404.8354
  21168771.272    -4256586.620 7  -3232881.78549  21168773.1014
  25614178.694     1418780.553 3    962722.11448  25614184.7884
  24871445.265     -593014.399 4   -406586.65849  24871449.7534
  22085860.507    -6461316.009 7  -4926894.76749  22085862.6984
  25086544.921    19499670.342 5  15160937.50849  25086548.5774
  22273800.351    -6922449.230 7  -5320509.77849  22273801.0654
 95  2 19 17 28 30.0030000  0  7 18 14 15 19 22 25 29
  24037686.655    -2333286.734 5  -1766008.04149  24037690.7574
  21176889.499    -4213926.850 7  -3199640.42549  21176891.2334
  25637884.304     1543354.160 4   1059792.35148  25637888.8864
  24861224.085     -646732.525 5   -448444.89549  24861229.7104
  22092635.663    -6425713.742 7  -4899152.73349  22092637.6794
  25109233.913    19618902.757 5  15253845.80249  25109236.1404
  22271585.999    -6934084.598 7  -5329576.30149  22271586.5504
 95  2 19 17 29  0.0030000  0  7 18 14 15 19 22 25 29
  24028989.335    -2378993.094 6  -1801623.36249  24028993.3784
  21185124.179    -4170652.374 7  -3165920.07249  21185126.0544
  25661579.358     1667872.444 3   1156819.54348  25661584.3274
  24851044.319     -700232.952 5   -490133.52949  24851048.1634
  22099536.147    -6389451.347 7  -4870896.30849  22099538.2574
  25131935.632    19738200.845 5  15346805.26249  25131937.7184
  22269410.054    -6945517.645 7  -5338485.17149  22269410.5344
 95  2 19 17 29 30.0030000  0  7 18 14 15 19 22 25 29
  24020300.991    -2424647.737 5  -1837198.39149  24020304.5424
  21193476.819    -4126759.829 7  -3131718.11149  21193478.6944
  25685263.319     1792332.816 3   1253801.51449  25685268.1714
  24840907.897     -753493.102 5   -531634.90349  24840912.1514
  22106560.796    -6352536.373 7  -4842131.37649  22106562.8704
  25154649.687    19857560.598 5  15439812.79949  25154652.8864
  22267274.647    -6956740.640 7  -5347230.36549  22267275.0114
 95  2 19 17 30  0.0030000  0  7 18 14 15 19 22 25 29
  24011626.147    -2470238.190 6  -1872723.39149  24011629.2884
  21201951.976    -4082222.764 7  -3097013.92949  21201953.8154
  25708936.585     1916737.816 3   1350740.37747  25708943.0654
  24830824.944     -806480.481 5   -572923.74949  24830829.4794
  22113711.483    -6314957.661 7  -4812849.25349  22113713.7694
  25177375.679    19976986.092 5  15532871.56149  25177378.5384
  22265178.015    -6967758.441 7  -5355815.66749  22265178.5544
 95  2 19 17 30 30.0030000  0  7 18 14 15 19 22 25 29
  24002965.819    -2515747.573 6  -1908185.23849  24002968.3744
  21210548.827    -4037046.245 7  -3061811.46449  21210550.4444
  25732600.093     2041085.381 3   1447634.45746  25732604.3124
  24820796.335     -859183.181 5   -613990.76149  24820801.2694
  22120990.882    -6276705.285 7  -4783042.19349  22120993.2494
  25200114.530    20096483.651 5  15625986.45649  25200118.3864
  22263117.296    -6978587.667 7  -5364254.02449  22263117.8354
 95  2 19 17 31  0.0030000  0  7 18 14 15 19 22 25 29
  23994320.577    -2561177.262 5  -1943584.96649  23994324.2804
  21219263.897    -3991247.878 7  -3026124.44749  21219265.5734
  25756249.351     2165362.502 3   1544473.67148  25756254.9054
  24810818.843     -911607.731 5   -654841.05149  24810824.4684
  22128399.476    -6237771.395 7  -4752704.09049  22128401.8084
  25222865.976    20216043.488 5  15719149.87449  25222868.9994
  22261089.054    -6989245.979 7  -5372559.20449  22261089.4404
 95  2 19 17 31 30.0030000  0  7 18 14 15 19 22 25 29
  23985693.921    -2606511.880 5  -1978910.61149  23985696.7454
  21228099.280    -3944816.959 7  -2989944.53149  21228100.9564
  25779884.108     2289568.473 3   1641257.40747  25779887.6014
  24800896.179     -963754.475 4   -695474.87049  24800900.3274
  22135941.788    -6198136.578 7  -4721819.80649  22135944.1904
  25245627.921    20335652.497 5  15812351.64749  25245630.6984
  22259092.437    -6999739.243 7  -5380735.77549  22259092.6834
 95  2 19 17 32  0.0030000  0  6 18 14 19 22 25 29
  23977089.819    -2651726.329 6  -2014142.64049  23977092.7144
  21237056.710    -3897749.190 7  -2953268.37249  21237058.2924
  24791021.460    -1015648.670 5   -735911.88149  24791025.7494
  22143619.421    -6157791.445 7  -4690382.03349  22143621.6834
  25268396.718    20455303.968 5  15905586.43449  25268399.6364
  22257127.015    -7010067.138 7  -5388783.49149  22257127.4014
 95  2 19 17 32 30.0030000  0  6 18 14 19 22 25 29
  23968509.874    -2696815.084 6  -2049276.68449  23968512.4524
  21246133.913    -3850044.626 7  -2916096.00649  21246135.9054
  24781193.483    -1067294.362 5   -776155.28349  24781198.1244
  22151430.054    -6116746.475 7  -4658398.92649  22151432.1634
  25291173.765    20574997.949 5  15998854.40849  25291176.5194
  22255197.054    -7020208.378 7  -5396685.75249  22255197.5934
 95  2 19 17 33  0.0030000  0  6 18 14 19 22 25 29
  23959953.312    -2741782.178 6  -2084315.97249  23959955.6324
  21255335.468    -3801690.623 7  -2878417.58549  21255337.5654
  24771413.101    -1118687.195 5   -816201.61649  24771417.3664
  22159374.163    -6075000.132 7  -4625869.31049  22159376.3314
  25313956.999    20694727.310 5  16092149.93849  25313960.2104
  22253306.452    -7030144.000 7  -5404427.79149  22253307.0504
 95  2 19 17 33 30.0030000  0  6 18 14 19 22 25 29
  23951419.405    -2786629.044 6  -2119261.56449  23951422.0424
  21264661.710    -3752681.297 7  -2840228.52649  21264663.8544
  24761681.546    -1169828.402 5   -856051.89549  24761686.9134
  22167447.905    -6032572.079 7  -4592808.49449  22167450.0734
  25336746.132    20814484.191 5  16185466.89549  25336748.7104
  22251456.749    -7039863.038 7  -5412001.06449  22251457.4524
 95  2 19 17 34  0.0030000  0  6 18 14 19 22 25 29
  23942905.179    -2831370.653 6  -2154125.13049  23942907.4874
  21274108.444    -3703038.951 7  -2801546.20049  21274110.5894
  24751996.905    -1220721.141 5   -895708.56349  24752001.9794
  22175644.601    -5989498.065 7  -4559244.33149  22175646.8154
  25359541.351    20934271.368 5  16278807.46649  25359544.1514
  22249649.616    -7049361.148 7  -5419402.18849  22249650.3544
 95  2 19 17 34 30.0030000  0  6 18 14 19 22 25 29
  23934408.780    -2876014.918 6  -2188912.84249  23934411.5224
  21283674.116    -3652770.838 7  -2762376.26549  21283676.0734
  24742361.171    -1271358.068 5   -935165.88349  24742365.6014
  22183961.991    -5945789.392 7  -4525185.62749  22183964.2064
  25382340.772    21054085.773 5  16372169.25349  25382343.8314
  22247879.749    -7058659.617 7  -5426647.74649  22247880.5464
 95  2 19 17 35  0.0030000  0  6 18 14 19 22 25 29
  23925931.585    -2920563.865 6  -2223626.27949  23925934.1984
  21293360.272    -3601869.767 7  -2722713.11549  21293362.2884
  24732773.327    -1321746.776 5   -974429.77649  24732778.4254
  22192401.007    -5901442.657 7  -4490629.74749  22192403.3394
  25405145.671    21173924.030 5  16465549.64549  25405147.6754
  22246146.741    -7067767.790 7  -5433745.03249  22246147.6444
 95  2 19 17 35 30.0030000  0  6 18 14 19 22 25 29
  23917474.593    -2965007.814 6  -2258257.89849  23917476.7844
  21303167.647    -3550333.471 7  -2682554.98849  21303169.1364
  24723232.312    -1371882.615 5  -1013496.63649  24723236.3084
  22200960.374    -5856463.505 7  -4455581.07249  22200962.8004
  25427958.968    21293806.107 5  16558964.15849  25427962.1084
  22244453.085    -7076666.766 7  -5440679.30249  22244454.0224
 95  2 19 17 36  0.0030000  0  6 18 14 19 22 25 29
  23909034.436    -3009361.443 6  -2292819.13449  23909036.7694
  21313093.999    -3498167.933 7  -2641906.54149  21313095.6984
  24713740.515    -1421764.146 5  -1052365.30849  24713744.2064
  22209640.444    -5810849.176 7  -4420037.45449  22209642.8234
  25450780.624    21413737.809 5  16652417.36649  25450784.0584
  22242797.515    -7085367.330 7  -5447458.95949  22242798.6164
 95  2 19 17 36 30.0030000  0  6 18 14 19 22 25 29
  23900613.562    -3053613.524 6  -2327301.24249  23900616.2924
  21323145.351    -3445348.785 7  -2600748.78549  21323147.3194
  24704299.757    -1471376.187 5  -1091024.00949  24704302.8514
  22218446.335    -5764573.155 7  -4383978.23849  22218448.5734
  25473612.624    21533722.727 5  16745911.99749  25473616.4444
  22241180.671    -7093865.433 7  -5454080.85849  22241181.5384
 95  2 19 17 37  0.0030000  0  6 18 14 19 22 25 29
  23892209.312    -3097776.474 6  -2361713.89749  23892212.1944
  21333318.960    -3391885.816 7  -2559089.35349  21333320.8124
  24694911.491    -1520706.631 5  -1129463.28449  24694914.9834
  22227379.218    -5717630.727 7  -4347399.74449  22227381.5034
  25496454.218    21653752.260 5  16839441.42049  25496457.2294
  22239606.960    -7102135.774 7  -5460525.28449  22239607.9094
 95  2 19 17 37 30.0030000  0  6 18 14 19 22 25 29
  23883824.819    -3141834.845 6  -2396045.05449  23883828.0424
  21343613.983    -3337784.810 7  -2516932.74749  21343615.6944
  24685583.616    -1569728.007 5  -1167661.73349  24685588.0814
  22236442.593    -5670002.034 7  -4310286.48749  22236444.8084
  25519305.890    21773841.029 5  16933017.01449  25519308.7844
  22238077.897    -7110169.210 7  -5466785.10549  22238078.8004
 95  2 19 17 38  0.0030000  0  6 18 14 19 22 25 29
  23875461.663    -3185786.339 6  -2430292.95149  23875463.8664
  21354031.171    -3283041.786 7  -2474275.87549  21354032.8584
  24676312.882    -1618446.027 5  -1205623.79249  24676316.4684
  22245637.194    -5621684.204 7  -4272636.24849  22245639.4334
  25542167.405    21893977.150 5  17026629.47249  25542171.0734
  22236590.390    -7117986.616 7  -5472876.59749  22236591.1754
 95  2 19 17 38 30.0030000  0  6 18 14 19 22 25 29
  23867119.686    -3229622.165 6  -2464450.72249  23867122.2534
  21364570.312    -3227659.715 7  -2431121.03449  21364572.2454
  24667098.116    -1666869.531 5  -1243356.35849  24667102.1594
  22254962.351    -5572680.442 7  -4234451.52149  22254964.3544
  25565035.382    22014149.519 5  17120270.20749  25565038.3474
  22235141.030    -7125603.093 7  -5478811.52049  22235141.8974
 95  2 19 17 39  0.0030000  0  6 18 14 19 22 25 29
  23858801.280    -3273337.866 6  -2498514.87049  23858803.4254
  21375227.765    -3171654.922 7  -2387480.95549  21375229.4524
  24657936.718    -1715011.826 5  -1280869.80549  24657940.7494
  22264416.155    -5522999.535 7  -4195739.13849  22264418.2414
  25587911.640    22134360.385 5  17213940.92549  25587914.7104
  22233730.413    -7133016.412 7  -5484588.12749  22233731.1404
 95  2 19 17 39 30.0030000  0  6 18 14 19 22 25 29
  23850506.827    -3316924.994 6  -2532478.83149  23850508.9014
  21386005.882    -3115014.696 7  -2343345.73449  21386007.5814
  24648823.765    -1762901.757 5  -1318186.59349  24648828.1714
  22273998.546    -5472645.692 7  -4156502.38949  22274000.7024
  25610797.085    22254628.363 5  17307656.13549  25610799.8514
  22232355.085    -7140243.879 7  -5490219.92649  22232355.6594
 95  2 19 17 40  0.0030000  0  6 18 14 19 22 25 29
  23842237.226    -3360384.722 6  -2566343.53149  23842239.9794
  21396906.772    -3057730.054 7  -2298708.37249  21396908.7534
  24639755.827    -1810552.730 5  -1355317.17449  24639758.6044
  22283707.796    -5421621.914 7  -4116743.60849  22283710.0584
  25633695.968    22374962.537 5  17401422.90649  25633699.5424
  22231014.194    -7147290.950 7  -5495711.15449  22231014.8394
 95  2 19 17 40 30.0030000  0  6 18 14 19 22 25 29
  23833990.772    -3403718.242 6  -2600109.87249  23833992.9874
  21407928.171    -2999812.286 7  -2253577.67049  21407929.9174
  24630733.976    -1857962.803 5  -1392260.05249  24630736.7764
  22293546.093    -5369922.230 7  -4076458.15549  22293548.3904
  25656609.304    22495369.280 5  17495246.26849  25656612.2694
  22229708.351    -7154152.131 7  -5501057.52949  22229709.4054
 95  2 19 17 41  0.0030000  0  6 18 14 19 22 25 29
  23825766.944    -3446933.431 6  -2633784.01949  23825769.1594
  21419068.851    -2941268.241 7  -2207958.96549  21419070.8434
  24621757.272    -1905137.792 5  -1429019.75649  24621761.6084
  22303510.452    -5317560.240 7  -4035656.61749  22303512.7494
  25679532.452    22615830.009 5  17589111.69549  25679535.8624
  22228441.202    -7160811.087 7  -5506246.32449  22228442.0694
 95  2 19 17 41 30.0030000  0  5 18 14 19 22 29
  23817567.804    -3490019.228 6  -2667357.35449  23817569.9834
  21430331.507    -2882080.938 7  -2161839.01049  21430333.6284
  24612829.226    -1952052.746 5  -1465576.83149  24612832.5304
  22313603.687    -5264519.786 7  -3994326.40049  22313606.2064
  22227214.632    -7167258.110 7  -5511269.97449  22227215.2414
 95  2 19 17 42  0.0030000  0  5 18 14 19 22 29
  23809394.444    -3532971.274 6  -2700826.45049  23809396.8944
  21441715.976    -2822256.934 7  -2115222.93049  21441717.8154
  24603955.374    -1998685.385 5  -1501913.93849  24603958.9484
  22323825.046    -5210805.875 7  -3952471.41649  22323827.6014
  22226030.491    -7173481.491 7  -5516119.36749  22226031.1244
 95  2 19 17 42 30.0030000  0  5 18 14 19 22 29
  23801243.272    -3575803.799 6  -2734202.40849  23801246.0504
  21453219.429    -2761804.781 7  -2068117.38049  21453221.4444
  24595133.937    -2045044.473 5  -1538037.89849  24595138.6124
  22334171.171    -5156435.981 7  -3910105.27549  22334173.3394
  22224891.374    -7179467.700 7  -5520783.94749  22224892.2064
 95  2 19 17 43  0.0030000  0  5 18 14 19 22 29
  23793116.007    -3618515.225 6  -2767484.00749  23793118.5154
  21464843.843    -2700718.519 7  -2020517.72149  21464845.6834
  24586364.476    -2091130.947 5  -1573949.40849  24586367.4524
  22344640.476    -5101420.087 7  -3867235.75949  22344642.6554
  22223797.561    -7185212.613 7  -5525260.50549  22223798.5224
 95  2 19 17 43 30.0030000  0  5 18 14 19 22 29
  23785009.921    -3661110.749 6  -2800675.30449  23785012.7454
  21476588.397    -2639001.830 7  -1972426.81549  21476590.3784
  24577642.265    -2136965.618 5  -1609664.71449  24577645.5694
  22355231.999    -5045760.087 7  -3823864.34549  22355234.4134
  22222746.983    -7190734.299 7  -5529563.11849  22222748.1904
 95  2 19 17 44  0.0030000  0  5 18 14 19 22 29
  23776927.905    -3703584.306 6  -2833771.55849  23776930.5074
  21488454.624    -2576643.831 7  -1923836.19449  21488456.7224
  24568967.257    -2182549.712 5  -1645184.77749  24568970.6674
  22365947.202    -4989452.900 7  -3779988.63149  22365949.4874
  22221740.421    -7196023.562 7  -5533684.61649  22221741.2534
 95  2 19 17 44 30.0030000  0  5 18 14 19 22 29
  23768865.921    -3745950.382 6  -2866784.05849  23768868.7334
  21500441.429    -2513651.796 7  -1874751.51749  21500443.3394
  24560337.468    -2227900.741 5  -1680523.22249  24560341.0654
  22376784.780    -4932500.674 7  -3735610.28049  22376786.8314
  22220775.093    -7201096.878 7  -5537637.84549  22220775.9254
 95  2 19 17 45  0.0030000  0  5 18 14 19 22 29
  23760825.272    -3788203.642 6  -2899708.66649  23760827.4294
  21512549.272    -2450026.872 7  -1825173.68249  21512551.0194
  24551752.280    -2273015.329 5  -1715677.42949  24551755.6204
  22387747.147    -4874892.668 7  -3690720.93749  22387749.2574
  22219847.140    -7205973.165 7  -5541437.54449  22219848.0654
 95  2 19 17 45 30.0030000  0  5 18 14 19 22 29
  23752802.913    -3830361.341 6  -2932558.79749  23752805.6904
  21524774.187    -2385783.436 7  -1775113.89249  21524776.0264
  24543213.851    -2317884.958 5  -1750640.76849  24543217.5194
  22398833.140    -4816635.415 7  -3645325.68349  22398835.0974
  22218954.843    -7210662.933 7  -5545091.90649  22218955.4994
 95  2 19 17 46  0.0030000  0  5 18 14 19 22 29
  23744796.296    -3872431.317 6  -2965340.58749  23744799.1674
  21537113.140    -2320941.442 7  -1724587.68949  21537115.2374
  24534723.202    -2362498.721 5  -1785404.70649  24534726.7184
  22410041.429    -4757736.436 7  -3599430.38749  22410043.5504
  22218095.765    -7215176.080 7  -5548608.64849  22218096.5034
 95  2 19 17 46 30.0030000  0  5 18 14 19 22 29
  23736806.812    -3914417.710 6  -2998057.23249  23736809.8474
  21549563.444    -2255515.753 7  -1673606.66549  21549565.6944
  24526281.546    -2406858.266 5  -1819970.56249  24526285.6474
  22421370.257    -4698203.204 7  -3553040.87149  22421372.6834
  22217268.601    -7219523.156 7  -5551995.97149  22217269.3864
 95  2 19 17 47  0.0030000  0  5 18 14 19 22 29
  23728835.374    -3956308.849 6  -3030699.65949  23728838.6794
  21562123.257    -2189514.270 7  -1622176.96949  21562125.4604
  24517891.647    -2450952.986 5  -1854330.04549  24517895.9834
  22432817.288    -4638047.904 7  -3506166.61849  22432819.4094
  22216473.577    -7223701.051 7  -5555251.47349  22216474.3974
 95  2 19 17 47 30.0040000  0  5 18 14 19 22 29
  23720883.254    -3998099.054 6  -3063263.43349  23720886.4184
  21574791.613    -2122940.853 7  -1570301.60349  21574793.6644
  24509549.707    -2494786.624 5  -1888486.08749  24509553.9844
  22444382.379    -4577273.727 7  -3458810.12949  22444384.4184
  22215714.004    -7227694.428 7  -5558363.19549  22215714.5434
 95  2 19 17 48  0.0040000  0  5 18 14 19 22 29
  23712952.457    -4039773.780 6  -3095737.23149  23712955.0594
  21587569.980    -2055789.921 7  -1517976.23149  21587571.9614
  24501254.598    -2538378.244 5  -1922453.55749  24501258.3834
  22456064.027    -4515884.123 7  -3410974.07649  22456066.1254
  22214990.684    -7231496.192 7  -5561325.60849  22214991.2464
 95  2 19 17 48 30.0040000  0  5 18 14 19 22 29
  23705046.410    -4081321.978 6  -3128112.43549  23705049.1294
  21600464.363    -1988031.031 7  -1465177.12149  21600466.0624
  24493008.379    -2581715.259 5  -1956222.60249  24493012.7734
  22467864.629    -4453872.129 7  -3362653.05149  22467866.9264
  22214310.527    -7235070.707 7  -5564110.94249  22214311.0554
 95  2 19 17 49  0.0040000  0  5 18 14 19 22 29
  23697163.934    -4122744.627 6  -3160389.79249  23697166.7814
  21613473.887    -1919664.585 7  -1411904.59049  21613475.5274
  24484810.051    -2624794.612 5  -1989790.87549  24484814.5044
  22479784.379    -4391236.012 7  -3313845.70049  22479786.5004
  22213675.387    -7238406.576 7  -5566710.32449  22213676.1254
 95  2 19 17 49 30.0040000  0  5 18 14 19 22 29
  23689302.223    -4164058.001 6  -3192582.00949  23689304.6024
  21626599.309    -1850690.967 7  -1358158.93949  21626601.0664
  24476659.762    -2667625.362 5  -2023165.43949  24476663.7704
  22491823.160    -4327970.603 7  -3264547.98549  22491825.3984
  22213086.754    -7241499.760 7  -5569120.59149  22213087.7504
 95  2 19 17 50  0.0040000  0  5 18 14 19 22 29
  23681459.918    -4205267.553 6  -3224693.32149  23681461.8404
  21639840.793    -1781106.423 7  -1303937.24549  21639842.3874
  24468557.699    -2710204.727 5  -2056344.09949  24468561.5784
  22503982.254    -4264074.485 7  -3214758.81049  22503984.3524
  22212544.973    -7244345.557 7  -5571338.09849  22212545.7694
 95  2 19 17 50 30.0040000  0  5 18 14 19 22 29
  23673640.691    -4246358.495 6  -3256712.20049  23673643.2344
  21653198.832    -1710908.478 7  -1249237.57149  21653200.7194
  24460507.637    -2752507.383 5  -2089307.15949  24460511.1054
  22516263.684    -4199533.930 7  -3164467.47049  22516266.0394
  22212052.129    -7246936.410 7  -5573356.94349  22212053.0204
 95  2 19 17 51  0.0040000  0  5 18 14 19 22 29
  23665844.121    -4287329.877 6  -3288637.92349  23665846.6294
  21666671.246    -1640110.098 7  -1194070.03049  21666673.3794
  24452507.137    -2794546.268 5  -2122064.68449  24452511.3444
  22528668.699    -4134344.976 7  -3113670.89949  22528671.1484
  22211602.855    -7249297.165 7  -5575196.49449  22211603.7814
 95  2 19 17 51 30.0040000  0  5 18 14 19 22 29
  23658070.754    -4328179.768 6  -3320468.97649  23658073.2384
  21680260.395    -1568701.529 7  -1138427.01249  21680262.1644
  24444555.770    -2836332.788 5  -2154625.55549  24444560.1174
  22541196.402    -4068511.270 7  -3062371.91149  22541198.7814
  22211197.324    -7251429.185 7  -5576857.80149  22211198.3094
 95  2 19 17 52  0.0040000  0  5 18 14 19 22 29
  23650320.652    -4368909.018 6  -3352206.01649  23650322.3874
  21693963.332    -1496692.048 7  -1082315.76049  21693965.0784
  24436650.402    -2877876.054 5  -2186996.88049  24436654.5744
  22553843.113    -4002052.875 7  -3010586.15749  22553845.4104
  22210830.402    -7253355.901 7  -5578359.14149  22210831.3404
 95  2 19 17 52 30.0040000  0  5 18 14 19 22 29
  23642593.293    -4409516.002 6  -3383847.79249  23642595.5084
  21707781.543    -1424076.375 7  -1025732.14549  21707783.1844
  24428793.652    -2919158.810 5  -2219165.19949  24428797.4844
  22566607.410    -3934976.716 7  -2958319.02649  22566609.5664
  22210500.434    -7255091.636 7  -5579711.66049  22210501.5124
 95  2 19 17 53  0.0040000  0  5 18 14 19 22 29
  23634887.574    -4450012.109 6  -3415403.16549  23634889.4494
  21721714.457    -1350858.294 7   -968679.11849  21721716.2154
  24420987.176    -2960186.425 5  -2251134.71649  24420991.1374
  22579486.730    -3867295.686 7  -2905580.57249  22579489.0044
  22210206.934    -7256634.184 7  -5580913.63949  22210207.7194
 95  2 19 17 53 30.0040000  0  5 18 14 19 22 29
  23627199.902    -4490409.544 6  -3446881.66649  23627201.7544
  21735758.996    -1277053.271 7   -911168.73849  21735761.0004
  24413227.020    -3000965.735 5  -2282910.76349  24413230.3124
  22592476.238    -3799034.507 7  -2852390.05249  22592478.5004
  22209950.551    -7257982.679 7  -5581964.41649  22209951.2194
 95  2 19 17 54  0.0040000  0  5 18 14 19 22 29
  23619530.762    -4530710.236 6  -3478284.77549  23619532.6484
  21749914.832    -1202664.830 7   -853203.74949  21749916.7544
  24405515.910    -3041487.190 5  -2314485.87449  24405520.0354
  22605575.121    -3730199.679 7  -2798752.53349  22605577.2304
  22209731.215    -7259132.677 7  -5582860.51349  22209732.0474
 95  2 19 17 54 30.0040000  0  5 18 14 19 22 29
  23611878.652    -4570920.679 6  -3509617.57349  23611880.8094
  21764180.801    -1127696.373 7   -794786.79349  21764182.6874
  24397854.004    -3081755.656 5  -2345863.79249  24397857.1094
  22618782.395    -3660794.766 7  -2744670.79349  22618784.5044
  22209553.809    -7260064.694 7  -5583586.76349  22209554.5234
 95  2 19 17 55  0.0040000  0  5 18 14 19 22 29
  23604246.059    -4611030.961 6  -3540872.29949  23604248.2974
  21778554.855    -1052160.839 7   -735927.96449  21778556.8014
  24390234.285    -3121792.608 5  -2377061.44049  24390238.2814
  22632099.504    -3590812.958 7  -2690139.52549  22632101.6484
  22209422.066    -7260757.983 7  -5584126.98549  22209422.7464
 95  2 19 17 55 30.0040000  0  5 18 14 19 22 29
  23596633.207    -4651035.523 6  -3572044.65849  23596635.1874
  21793035.285     -976065.399 7   -676632.84649  21793037.3484
  24382658.676    -3161602.671 5  -2408082.22149  24382662.6954
  22645527.145    -3520250.085 7  -2635155.48149  22645529.1954
  22209334.785    -7261217.548 7  -5584485.08949  22209335.4414
 95  2 19 17 56  0.0040000  0  5 18 14 19 22 29
  23589042.730    -4690925.041 6  -3603127.38049  23589044.6414
  21807625.027     -899395.795 7   -616890.32549  21807627.1024
  24375129.605    -3201168.724 5  -2438912.85049  24375133.8484
  22659069.762    -3449082.830 7  -2579700.48249  22659071.9774
  22209293.098    -7261437.203 7  -5584656.25249  22209293.8594
 95  2 19 17 56 30.0040000  0  5 18 14 19 22 29
  23581478.816    -4730672.676 6  -3634099.53549  23581480.8794
  21822324.793     -822146.806 7   -556696.33449  21822326.8094
  24367648.465    -3240480.795 5  -2469545.59849  24367652.0514
  22672732.816    -3377286.513 7  -2523755.31449  22672734.9494
  22209295.543    -7261423.552 7  -5584645.60749  22209296.1414
 95  2 19 17 57  0.0040000  0  5 18 14 19 22 29
  23573940.637    -4770285.086 6  -3664966.32949  23573942.8284
  21837131.238     -744337.764 7   -496065.94549  21837133.0434
  24360215.465    -3279542.653 5  -2499983.36849  24360218.2424
  22686513.965    -3304863.368 7  -2467321.71149  22686516.1684
  22209336.559    -7261207.750 7  -5584477.45249  22209337.2154
 95  2 19 17 57 30.0040000  0  5 18 14 19 22 29
  23566424.262    -4809783.052 6  -3695743.93049  23566426.7584
  21852047.012     -665958.216 7   -434991.00049  21852048.7234
  24352829.309    -3318355.089 5  -2530226.79349  24352832.9884
  22700411.770    -3231830.523 7  -2410413.01549  22700414.0784
  22209411.652    -7260813.340 7  -5584170.11349  22209412.0744
 95  2 19 17 58  0.0040000  0  5 18 14 19 22 29
  23558930.473    -4849167.167 6  -3726432.82849  23558932.8634
  21867072.855     -586996.948 7   -373462.77249  21867074.4844
  24345490.691    -3356921.137 5  -2560278.21149  24345494.3124
  22714423.145    -3158200.216 7  -2353038.77449  22714425.3484
  22209518.738    -7260250.307 7  -5583731.38849  22209519.2304
 95  2 19 17 58 30.0040000  0  5 18 14 19 22 29
  23551454.973    -4888449.195 6  -3757042.17349  23551457.1764
  21882206.324     -507468.469 7   -311492.55749  21882208.0354
  24338194.816    -3395260.683 5  -2590153.12849  24338198.7544
  22728545.777    -3083986.596 7  -2295209.99849  22728548.0624
  22209658.613    -7259515.193 7  -5583158.56449  22209659.1524
 95  2 19 17 59  0.0040000  0  5 18 14 19 22 29
  23543998.199    -4927636.215 6  -3787577.48249  23544000.1804
  21897451.223     -427356.116 7   -249067.37549  21897452.9804
  24330943.965    -3433364.536 5  -2619844.36649  24330947.7034
  22742778.762    -3009192.012 7  -2236928.52249  22742780.9774
  22209835.926    -7258583.583 7  -5582432.63049  22209836.2664
 95  2 19 17 59 30.0040000  0  5 18 14 19 22 29
  23536560.949    -4966717.342 6  -3818030.27849  23536562.9064
  21912811.582     -346637.028 7   -186169.41749  21912813.3404
  24323738.160    -3471226.938 5  -2649347.48249  24323741.8984
  22757123.410    -2933811.039 7  -2178190.11949  22757125.4614
  22210055.980    -7257426.848 7  -5581531.27949  22210056.4964
 95  2 19 18  0  0.0040000  0  5 18 14 19 22 29
  23529148.113    -5005671.271 6  -3848383.95749  23529149.9534
  21928283.129     -265333.249 7   -122815.84849  21928284.9344
  24316579.918    -3508847.984 6  -2678662.51249  24316583.3634
  22771581.590    -2857831.856 7  -2118985.58149  22771583.6524
  22210321.762    -7256030.953 7  -5580443.56649  22210322.1954
 95  2 19 18  0 30.0040000  0  5 18 14 19 22 29
  23521760.832    -5044488.814 6  -3878631.36149  23521762.8244
  21943863.926     -183456.624 7    -59015.92049  21943865.7304
  24309468.223    -3546217.859 6  -2707781.84049  24309471.9494
  22786155.676    -2781243.810 7  -2059306.61549  22786157.9844
  22210636.738    -7254375.822 7  -5579153.86049  22210637.3484
 95  2 19 18  1  0.0040000  0  5 18 14 19 22 29
  23514404.223    -5083151.249 6  -3908757.89449  23514406.5314
  21959553.871     -101004.778 7      5232.24049  21959555.8874
  24302405.262    -3583334.608 6  -2736703.91749  24302409.0124
  22800843.418    -2704059.169 7  -1999162.76849  22800845.6214
  22211000.254    -7252465.889 7  -5577665.60149  22211001.1334
 95  2 19 18  1 30.0040000  0  5 18 14 19 22 29
  23507075.895    -5121661.171 6  -3938765.59149  23507077.9574
  21975349.668      -17997.796 7     69912.97749  21975351.5904
  24295387.629    -3620213.200 6  -2765440.43049  24295391.2034
  22815641.621    -2626294.963 7  -1938567.30549  22815643.8244
  22211411.098    -7250305.548 7  -5575982.21749  22211411.6954
 95  2 19 18  2  0.0040000  0  5 18 14 19 22 29
  23499776.371    -5160018.985 6  -3968654.76949  23499778.5864
  21991249.027       65552.479 7    135017.05549  21991250.9374
  24288415.910    -3656849.819 5  -2793988.37049  24288418.7934
  22830549.590    -2547953.584 7  -1877522.10049  22830551.8164
  22211869.457    -7247897.671 7  -5574105.94649  22211869.9734
 95  2 19 18  2 30.0040000  0  5 18 14 19 22 29
  23492500.621    -5198255.080 6  -3998449.09549  23492502.7074
  22007252.504      149652.045 7    200549.14949  22007254.5904
  24281491.754    -3693235.942 5  -2822341.12249  24281495.4454
  22845564.144    -2469049.823 7  -1816038.67249  22845566.3014
  22212374.207    -7245246.010 7  -5572039.72249  22212374.6764
 95  2 19 18  3  0.0040000  0  5 18 14 19 22 29
  23485242.887    -5236394.171 6  -4028167.83849  23485244.9614
  22023358.926      234292.635 7    266502.82449  22023361.2814
  24274612.949    -3729383.162 6  -2850507.73149  24274616.3124
  22860684.941    -2389590.399 7  -1754122.25149  22860687.1094
  22212924.043    -7242355.500 7  -5569787.38049  22212924.6524
 95  2 19 18  3 30.0040000  0  5 18 14 19 22 29
  23478002.691    -5274442.002 6  -4057815.46349  23478004.5084
  22039568.316      319474.449 7    332878.22949  22039570.6484
  24267781.449    -3765284.235 5  -2878482.54249  24267785.3754
  22875915.934    -2309551.341 7  -1691754.17549  22875918.1134
  22213520.621    -7239221.815 7  -5567345.55049  22213521.2664
 95  2 19 18  4  0.0040000  0  5 18 14 19 22 29
  23470780.840    -5312391.199 6  -4087386.23349  23470783.2074
  22055879.395      405187.715 7    399667.75449  22055881.3524
  24260995.793    -3800945.221 6  -2906270.26349  24260999.4614
  22891258.418    -2228924.648 7  -1628928.19549  22891260.5744
  22214160.504    -7235857.833 7  -5564724.26749  22214160.9734
 95  2 19 18  4 30.0040000  0  5 18 14 19 22 29
  23463581.301    -5350224.388 6  -4116866.60249  23463583.8914
  22072294.012      491447.548 7    466883.17449  22072296.0864
  24254253.707    -3836371.428 6  -2933875.02249  24254257.7504
  22906712.012    -2147715.248 7  -1565648.16849  22906714.6024
  22214844.215    -7232264.636 7  -5561924.37649  22214844.6724
 95  2 19 18  5  0.0040000  0  5 18 14 19 22 29
  23456409.934    -5387908.476 6  -4146230.79349  23456412.5124
  22088813.551      578257.382 7    534527.16949  22088815.4734
  24247555.855    -3871570.146 6  -2961302.54049  24247559.1024
  22922275.746    -2065927.983 7  -1501917.84749  22922278.3364
  22215569.840    -7228451.978 7  -5558953.47749  22215570.3794
 95  2 19 18  5 30.0040000  0  5 18 14 19 22 29
  23449273.168    -5425417.093 6  -4175458.24149  23449275.5704
  22105439.809      665630.327 7    602609.95449  22105442.0824
  24240903.449    -3906521.795 5  -2988537.53849  24240907.7384
  22937947.004    -1983575.805 7  -1437747.33949  22937949.2194
  22216337.230    -7224419.425 7  -5555811.22749  22216338.0164
 95  2 19 18  6  0.0040000  0  5 18 14 19 22 29
  23442168.496    -5462749.972 6  -4204548.76949  23442170.3594
  22122175.723      753579.898 7    671142.04949  22122177.9494
  24234304.316    -3941205.036 5  -3015563.36649  24234307.7624
  22953721.824    -1900677.649 7  -1373151.39349  22953724.2034
  22217147.676    -7220161.075 7  -5552493.02949  22217148.3094
 95  2 19 18  6 30.0040000  0  5 18 14 19 22 29
  23435096.277    -5499915.016 6  -4233508.51449  23435098.3054
  22139022.660      842110.566 7    740126.95049  22139025.0044
  24227759.449    -3975597.400 6  -3042362.55549  24227763.3054
  22969600.168    -1817236.657 7  -1308132.46549  22969602.6054
  22218004.145    -7215661.661 7  -5548986.99549  22218004.5664
 95  2 19 18  7  0.0040000  0  5 18 14 19 22 29
  23428054.566    -5536919.915 6  -4262343.47249  23428056.5004
  22155976.582      931202.772 7    809549.41249  22155979.1024
  24221271.020    -4009695.461 6  -3068932.43749  24221274.0434
  22985583.926    -1733244.032 7  -1242683.69149  22985586.2344
  22218906.582    -7210916.884 7  -5545289.76149  22218907.2154
 95  2 19 18  7 30.0040000  0  5 18 14 19 22 29
  23421039.551    -5573784.022 7  -4291068.72749  23421041.4614
  22173034.762     1020844.983 7    879400.45449  22173037.2464
  24214835.066    -4043515.713 6  -3095285.83249  24214838.6294
  23001671.840    -1648700.850 7  -1176805.91149  23001674.0784
  22219854.676    -7205934.755 7  -5541407.57749  22219855.3094
 95  2 19 18  8  0.0040000  0  5 18 14 19 22 29
  23414052.480    -5610501.626 6  -4319679.83049  23414054.1914
  22190195.769     1111025.348 7    949670.83149  22190197.8914
  24208449.551    -4077071.675 6  -3121433.29649  24208452.3754
  23017867.363    -1563592.608 7  -1110487.82949  23017869.7894
  22220849.793    -7200705.700 7  -5537332.98949  22220850.5434
 95  2 19 18  8 30.0040000  0  5 18 14 19 22 29
  23407091.027    -5647085.154 7  -4348186.45549  23407092.8674
  22207453.379     1201715.039 7   1020338.07449  22207455.5704
  24202106.434    -4110405.400 6  -3147407.58049  24202110.3244
  23034167.480    -1477934.332 7  -1043741.15049  23034169.7074
  22221889.832    -7195240.718 7  -5533074.55749  22221890.3014
 95  2 19 18  9  0.0040000  0  5 18 14 19 22 29
  23400156.652    -5683523.673 6  -4376580.09049  23400158.4104
  22224811.426     1292931.451 7   1091415.76449  22224813.9104
  24195804.863    -4143517.815 6  -3173209.42849  24195808.3324
  23050571.691    -1391727.990 7   -976567.40449  23050574.0124
  22222976.855    -7189528.648 7  -5528623.58849  22222977.0554
 95  2 19 18  9 30.0040000  0  5 18 14 19 22 29
  23393248.019    -5719830.324 7  -4404870.95249  23393249.5084
  22242270.769     1384680.422 7   1162908.42349  22242273.2544
  24189548.191    -4176399.510 6  -3198831.49349  24189551.8014
  23067079.473    -1304980.976 7   -908972.35749  23067081.8984
  22224114.262    -7183551.901 7  -5523966.37549  22224114.8484
 95  2 19 18 10  0.0040000  0  5 18 14 19 22 29
  23386360.582    -5756021.937 7  -4433072.20349  23386362.3054
  22259829.582     1476952.733 7   1234808.88749  22259832.0664
  24183334.066    -4209054.369 6  -3224276.80049  24183337.0554
  23083687.809    -1217703.819 7   -840964.21449  23083689.9884
  22225303.832    -7177300.035 7  -5519094.78949  22225304.5004
 95  2 19 18 10 30.0040000  0  5 18 14 19 22 29
  23379493.832    -5792105.096 6  -4461188.93449  23379496.1644
  22277491.207     1569766.264 7   1307131.07549  22277493.7734
  24177165.449    -4241468.260 6  -3249534.33849  24177168.8484
  23100397.715    -1129894.598 7   -772541.47549  23100399.8484
  22226544.230    -7170781.256 7  -5514015.21549  22226544.8054
 95  2 19 18 11  0.0040000  0  5 18 14 19 22 29
  23372647.895    -5828082.848 7  -4489223.52149  23372650.0394
  22295258.137     1663130.794 7   1379882.61649  22295260.5514
  24171044.879    -4273633.209 6  -3274597.90549  24171048.8634
  23117209.051    -1041548.990 7   -703700.77549  23117211.2424
  22227831.996    -7164014.728 7  -5508742.59549  22227832.4184
 95  2 19 18 11 30.0050000  0  5 18 14 19 22 29
  23365823.579    -5863944.798 7  -4517167.87549  23365825.6184
  22313129.587     1757044.721 7   1453062.25649  22313132.0134
  24164969.345    -4305558.841 6  -3299474.99249  24164972.6854
  23134125.720     -952650.890 7   -634429.56149  23134128.0754
  22229165.501    -7157006.025 7  -5503281.26949  22229166.0634
 95  2 19 18 12  0.0050000  0  5 18 14 19 22 29
  23359025.134    -5899670.208 7  -4545005.83949  23359027.0324
  22331103.524     1851499.551 7   1526663.37949  22331105.9504
  24158939.157    -4337253.453 6  -3324172.05549  24158942.6264
  23151146.548     -863205.292 7   -564731.72449  23151148.8804
  22230540.782    -7149778.552 7  -5497649.46949  22230541.4384
 95  2 19 18 12 30.0050000  0  5 18 14 19 22 29
  23352257.657    -5935234.908 7  -4572718.56849  23352259.4274
  22349183.282     1946506.573 7   1600694.78249  22349185.5204
  24152953.298    -4368704.733 6  -3348679.50449  24152956.6854
  23168274.524     -773197.782 7   -494596.03049  23168276.9154
  22231960.290    -7142320.288 7  -5491837.83349  22231960.7704
 95  2 19 18 13  0.0050000  0  5 18 14 19 22 29
  23345521.540    -5970631.250 7  -4600300.11549  23345523.6614
  22367362.485     2042039.681 7   1675136.12549  22367364.9354
  24147010.806    -4399932.065 6  -3373012.45649  24147014.2864
  23185506.251     -682644.711 7   -424035.22449  23185508.6184
  22233426.454    -7134615.134 7  -5485833.82249  22233426.8524
 95  2 19 18 13 30.0050000  0  5 18 14 19 22 29
  23338820.696    -6005843.215 6  -4627737.98549  23338823.0404
  22385637.587     2138076.919 7   1749970.29849  22385640.0604
  24141112.696    -4430927.927 6  -3397165.04349  24141116.0484
  23202840.399     -591554.844 7   -353056.14249  23202842.5794
  22234944.923    -7126635.504 7  -5479615.92849  22234945.2284
 95  2 19 18 14  0.0050000  0  5 18 14 19 22 29
  23332155.579    -6040868.960 6  -4655030.75349  23332157.8764
  22404008.431     2234616.768 7   1825196.11549  22404010.8214
  24135260.470    -4461683.082 6  -3421130.07049  24135263.9274
  23220274.056     -499940.061 7   -281668.02549  23220276.1184
  22236515.970    -7118378.422 7  -5473181.84049  22236516.4384
 95  2 19 18 14 30.0050000  0  5 18 14 19 22 29
  23325526.954    -6075706.255 7  -4682176.67849  23325529.1814
  22422475.142     2331660.009 7   1900814.18249  22422477.2394
  24129455.509    -4492186.934 6  -3444899.27849  24129458.7204
  23237804.876     -407814.178 7   -209881.65649  23237807.4784
  22238141.329    -7109837.935 7  -5466526.91449  22238141.9034
 95  2 19 18 15  0.0050000  0  5 18 14 19 22 29
  23318931.274    -6110364.188 7  -4709182.83849  23318933.4314
  22441037.392     2429201.863 7   1976820.78849  22441039.5364
  24123700.228    -4522430.212 6  -3468465.43949  24123703.2744
  23255431.821     -315183.499 7   -137701.92749  23255434.3994
  22239818.056    -7101026.957 7  -5459661.21349  22239818.6884
 95  2 19 18 15 30.0050000  0  5 18 14 19 22 29
  23312368.243    -6144853.330 7  -4736057.48149  23312370.4934
  22459695.407     2527252.423 7   2053223.77349  22459697.7634
  24117997.251    -4552401.034 6  -3491819.29949  24118000.7434
  23273157.118     -222035.799 7    -65119.33449  23273159.7674
  22241543.579    -7091958.686 7  -5452595.03249  22241544.1884
 95  2 19 18 16  0.0050000  0  5 18 14 19 22 29
  23305835.329    -6179185.013 7  -4762809.41849  23305837.6384
  22478452.477     2625822.764 7   2130031.79049  22478455.1034
  24112344.337    -4582104.388 6  -3514964.74449  24112348.1814
  23290983.009     -128360.619 7      7874.28049  23290986.1384
  22243316.821    -7082641.746 7  -5445335.07849  22243317.4664
 95  2 19 18 16 30.0050000  0  5 18 14 19 22 29
  23299329.657    -6213373.626 7  -4789449.88249  23299331.5914
  22497307.540     2724906.361 7   2207239.74049  22497310.0484
  24106742.024    -4611546.507 6  -3537906.62649  24106745.3524
  23308907.649      -34165.111 7     81273.34349  23308910.5914
  22245139.735    -7073061.692 7  -5437870.10649  22245140.0754
 95  2 19 18 17  0.0050000  0  6 18 14 28 19 22 29
  23292849.087    -6247425.818 7  -4815984.04049  23292851.1614
  22516260.392     2824503.490 7   2284847.84949  22516262.8414
  26331403.813      -33924.822 4
  24101186.142    -4640742.615 6  -3560656.81449  24101189.4584
  23326935.353       60569.929 7    155092.82049  23326938.5404
  22247015.165    -7063206.666 7  -5430190.86949  22247015.3644
 95  2 19 18 17 30.0050000  0  6 18 14 28 19 22 29
  23286397.376    -6281330.116 7  -4842402.95249  23286399.1814
  22535312.251     2924620.448 7   2362861.01849  22535314.7244
  26324745.071      -68917.919 4    -12714.55958  26324750.1344
  24095675.149    -4669702.413 6  -3583222.86149  24095678.7594
  23345065.462      155845.979 7    229333.86749  23345068.1454
  22248945.087    -7053064.230 7  -5422287.68549  22248945.5204
 95  2 19 18 18  0.0050000  0  6 18 14 28 19 22 29
  23279976.126    -6315073.670 7  -4868696.61849  23279978.2244
  22554464.220     3025262.819 7   2441283.59549  22554466.5054
  26318105.907     -103803.561 4    -39898.01349  26318111.1814
  24090209.727    -4698423.786 6  -3605603.12249  24090213.3604
  23363295.243      251642.365 7    303980.36449  23363298.0564
  22250930.970    -7042627.364 7  -5414155.06549  22250931.5094
 95  2 19 18 18 30.0050000  0  6 18 14 28 19 22 29
  23273585.267    -6348658.864 7  -4894866.87949  23273587.3174
  22573713.548     3126419.247 7   2520106.74249  22573715.8334
  26311488.142     -138580.293 4    -66996.61248  26311493.1814
  24084790.579    -4726905.737 6  -3627796.80249  24084793.9314
  23381621.298      347945.996 7    379022.11549  23381624.1224
  22252969.774    -7031915.135 7  -5405807.88149  22252970.3844
 95  2 19 18 19  0.0050000  0  6 18 14 28 19 22 29
  23267224.665    -6382082.325 7  -4920911.11349  23267226.4814
  22593057.860     3228074.973 7   2599318.94449  22593060.6264
  26304891.321     -173251.685 4    -94013.12547  26304895.8334
  24079414.860    -4755150.201 6  -3649805.43549  24079418.3064
  23400042.962      444752.441 7    454455.67449  23400045.7044
  22255055.188    -7020955.926 7  -5397268.23949  22255055.5754
 95  2 19 18 19 30.0050000  0  6 18 14 28 19 22 29
  23260900.532    -6415318.191 7  -4946809.17049  23260902.4424
  22612497.782     3330233.095 7   2678922.62849  22612500.5484
  26298314.204     -207804.822 3   -120937.49348  26298319.9814
  24074090.626    -4783129.556 6  -3671607.49649  24074094.4114
  23418558.274      542051.450 7    530273.05049  23418560.7474
  22257191.220    -7009731.872 7  -5388522.22349  22257191.3844
 95  2 19 18 20  0.0050000  0  6 18 14 28 19 22 29
  23254609.743    -6448376.755 7  -4972569.07149  23254611.5954
  22632029.985     3432876.271 7   2758904.27649  22632032.7864
  26291761.337     -242244.272 4   -147773.26049  26291768.8884
  24068816.813    -4810843.841 6  -3693203.00449  24068819.9194
  23437167.438      639842.520 7    606473.84949  23437170.0524
  22259376.790    -6998244.992 7  -5379571.41049  22259377.2594
 95  2 19 18 20 30.0050000  0  6 18 14 28 19 22 29
  23248351.056    -6481265.163 7  -4998196.37749  23248352.6854
  22651653.806     3535998.593 7   2839259.28249  22651656.7474
  26285230.587     -276564.733 4   -174516.37148  26285236.0834
  24063591.938    -4838300.678 6  -3714597.90049  24063595.0444
  23455872.774      738140.218 7    683069.42149  23455875.4934
  22261614.720    -6986485.371 7  -5370408.07249  22261615.0834
 95  2 19 18 21  0.0050000  0  5 18 14 19 22 29
  23242125.704    -6513979.589 7  -5023688.12449  23242127.2274
  22671367.009     3639593.622 7   2919982.62949  22671370.0564
  24058410.298    -4865529.274 6  -3735814.94549  24058413.8134
  23474670.259      836920.941 7    760041.37949  23474673.0954
  22263908.532    -6974431.798 7  -5361015.68549  22263909.0484
 95  2 19 18 21 30.0050000  0  6 18 14 28 19 22 29
  23235933.610    -6546519.407 7  -5049043.80549  23235935.0404
  22691171.415     3743664.836 7   3001077.03549  22691174.3214
  26272234.899      -32946.881 4
  24053271.134    -4892534.258 6  -3756857.74749  24053274.1574
  23493558.251      936179.028 7    837385.30749  23493561.1454
  22266259.907    -6962074.349 7  -5351386.51049  22266260.3174
 95  2 19 18 22  0.0050000  0  6 18 14 28 19 22 29
  23229772.532    -6578897.070 7  -5074273.13549  23229773.9624
  22711066.478     3848214.396 7   3082544.17149  22711069.5364
  26265770.845      -66912.974 4    -16750.25459  26265777.7284
  24048173.321    -4919322.574 6  -3777731.72949  24048176.9194
  23512537.931     1035917.338 7    915103.44249  23512540.7904
  22268666.431    -6949427.497 7  -5341531.82849  22268666.9464
 95  2 19 18 22 30.0050000  0  6 18 14 28 19 22 29
  23223641.743    -6611113.703 7  -5099376.98349  23223643.3494
  22731053.595     3953246.333 7   3164387.18949  22731056.3134
  26259329.931     -100762.604 4    -43126.50249  26259334.1614
  24043114.306    -4945909.882 6  -3798449.08749  24043117.7864
  23531603.759     1136106.559 7    993172.92349  23531606.5364
  22271126.657    -6936500.972 7  -5331459.21549  22271127.2204
 95  2 19 18 23  0.0050000  0  6 18 14 28 19 22 29
  23217542.938    -6643163.252 7  -5124350.63449  23217544.8954
  22751130.712     4058752.568 7   3246599.78549  22751133.1734
  26252911.282     -134491.120 4    -69408.29149  26252917.9154
  24038096.782    -4972278.287 6  -3818995.85349  24038099.9934
  23550755.204     1236748.554 7   1071595.22549  23550757.8764
  22273638.907    -6923297.926 7  -5321171.14049  22273639.4584
 95  2 19 18 23 30.0050000  0  6 18 14 28 19 22 29
  23211473.829    -6675057.616 7  -5149203.37249  23211475.6814
  22771298.954     4164735.330 7   3329183.71249  22771301.1224
  26246516.290     -168094.200 5    -95592.33647  26246520.8134
  24033125.056    -4998404.053 6  -3839353.56149  24033128.3954
  23569997.907     1337868.921 7   1150390.27749  23570000.3104
  22276200.751    -6909834.235 7  -5310679.96149  22276201.2314
 95  2 19 18 24  0.0050000  0  6 18 14 28 19 22 29
  23205432.618    -6706800.995 7  -5173938.44149  23205434.5754
  22791555.524     4271186.864 7   3412132.91349  22791558.0324
  26240145.063     -201573.777 4   -121680.16447  26240150.3134
  24028198.712    -5024290.546 6  -3859524.81849  24028201.8994
  23589330.743     1439462.786 7   1229554.29449  23589333.3804
  22278811.345    -6896114.754 7  -5299989.46649  22278812.0484
 95  2 19 18 24 30.0050000  0  6 18 14 28 19 22 29
  23199424.688    -6738374.611 7  -5198541.24549  23199426.4354
  22811901.407     4378104.922 7   3495445.63349  22811903.9624
  26233798.454     -234923.244 4   -147666.62248  26233804.7704
  24023319.618    -5049931.753 6  -3879504.94749  24023322.4894
  23608754.735     1541537.590 7   1309093.05949  23608757.6064
  22281472.860    -6882129.031 7  -5289091.50549  22281473.5174
 95  2 19 18 25  0.0050000  0  6 18 14 28 19 22 29
  23193451.532    -6769764.585 7  -5223000.94449  23193453.3134
  22832332.899     4485473.419 7   3579109.35449  22832335.7004
  26227478.376     -268139.045 4   -173548.93748  26227485.2354
  24018488.563    -5075317.573 6  -3899286.07449  24018491.8214
  23628273.313     1644107.981 7   1389018.00549  23628276.1734
  22284184.665    -6867879.802 7  -5277988.21749  22284185.3684
 95  2 19 18 25 30.0050000  0  6 18 14 28 19 22 29
  23187516.454    -6800953.652 7  -5247304.09349  23187518.2704
  22852851.009     4593295.148 7   3663126.23949  22852853.7744
  26221183.142     -301218.355 4   -199324.90249  26221189.4114
  24013704.126    -5100458.471 6  -3918876.35049  24013707.6534
  23647884.009     1747163.321 7   1469320.83349  23647886.8924
  22286946.813    -6853364.233 7  -5266677.38949  22286947.3294
 95  2 19 18 26  0.0050000  0  6 18 14 28 19 22 29
  23181622.376    -6831925.380 7  -5271437.88849  23181624.0174
  22873452.595     4701556.706 7   3747485.84549  22873455.3844
  26214914.556     -334161.571 4   -224994.71348  26214921.6494
  24008966.970    -5125355.009 6  -3938276.21949  24008970.5094
  23667582.399     1850678.612 7   1549982.06749  23667585.2244
  22289760.962    -6838574.506 7  -5255152.92849  22289761.3024
 95  2 19 18 26 30.0050000  0  6 18 14 28 19 22 29
  23175770.829    -6862678.322 7  -5295401.20949  23175772.4354
  22894137.634     4810258.060 7   3832188.15049  22894140.2824
  26208672.751                      -12008.20714
  24004277.204    -5149999.067 6  -3957479.34849  24004280.9784
  23687369.946     1954663.247 7   1631009.01649  23687372.7824
  22292630.345    -6823497.029 7  -5243404.24649  22292630.6964
 95  2 19 18 27  0.0050000  0  6 18 14 28 19 22 29
  23169954.274    -6893241.502 7  -5319216.66249  23169956.1024
  22914904.321     4919386.474 7   3917223.22949  22914906.7244
  26202458.774                      -44663.203 4
  23999631.696    -5174409.530 6  -3976500.45449  23999634.8254
  23707241.696     2059088.832 7   1712379.57149  23707244.2984
  22295552.415    -6808141.213 7  -5231438.67849  22295552.9314
 95  2 19 18 27 30.0050000  0  6 18 14 28 19 22 29
  23164170.290    -6923636.354 7  -5342900.95449  23164171.9314
  22935755.962     5028961.488 7   4002606.30849  22935758.6104
  26196274.274      -77166.401 5    -10960.94459  26196280.6964
  23995031.235    -5198587.309 6  -3995340.24849  23995034.4814
  23727195.782     2163949.297 7   1794088.97949  23727198.5714
  22298529.548    -6792495.862 7  -5219247.50049  22298530.1924
 95  2 19 18 28  0.0050000  0  6 18 14 28 19 22 29
  23158414.360    -6953884.409 7  -5366470.85649  23158416.1534
  22956692.790     5138985.995 7   4088339.63749  22956695.4154
  26190117.681     -109518.373 5    -36170.12849  26190123.4114
  23990471.454    -5222547.237 6  -4014010.29849  23990475.0524
  23747231.540     2269235.067 7   1876129.80149  23747234.0484
  22301562.056    -6776560.185 7  -5206830.09049  22301562.8174
 95  2 19 18 28 30.0050000  0  6 18 14 28 19 22 29
  23152686.321    -6983987.107 7  -5389927.49149  23152687.9154
  22977716.751     5249468.257 7   4174429.66249  22977719.4814
  26183991.102     -141713.881 5    -61257.34549  26183996.6814
  23985949.431    -5246310.243 6  -4032526.90749  23985953.0874
  23767347.704     2374948.961 7   1958504.22249  23767350.4114
  22304649.649    -6760335.690 7  -5194187.63349  22304650.4704
 95  2 19 18 29  0.0050000  0  6 18 14 28 19 22 29
  23146989.431    -7013923.006 7  -5413254.16149  23146991.0244
  22998830.353     5360420.565 7   4260885.95349  22998833.3064
  26177894.657     -173748.322 5    -86219.13049  26177900.0954
  23981465.048    -5269877.602 6  -4050891.04749  23981468.6344
  23787544.915     2481085.667 7   2041208.10949  23787547.5404
  22307792.438    -6743818.820 7  -5181317.34949  22307793.2244
 95  2 19 18 29 30.0050000  0  6 18 14 28 19 22 29
  23141329.212    -7043670.189 7  -5436433.77149  23141331.0174
  23020031.532     5471834.710 7   4347702.12849  23020034.5794
  26171828.290     -205621.998 4   -111055.57249  26171834.3724
  23977018.274    -5293247.279 6  -4069101.15149  23977021.5564
  23807826.001     2587661.798 7   2124254.40249  23807828.4854
  22310991.743    -6727004.873 7  -5168215.57749  22310992.6694
 95  2 19 18 30  0.0050000  0  6 18 14 28 19 22 29
  23135709.931    -7073197.956 7  -5459442.40649  23135711.7944
  23041319.845     5583702.906 7   4434872.10049  23041322.8564
  26165795.290     -237328.343 5   -135761.64249  26165801.3954
  23972612.063    -5316402.769 6  -4087144.36249  23972614.5484
  23828193.821     2694694.953 7   2207656.81849  23828196.0604
  22314249.602    -6709886.875 7  -5154876.87749  22314250.4704
 95  2 19 18 30 30.0050000  0  6 18 14 28 19 22 29
  23130134.149    -7102498.908 7  -5482274.30149  23130135.8724
  23062691.243     5696011.883 7   4522385.53849  23062694.0444
  26159795.040     -268861.330 5   -160332.64449  26159801.2164
  23968250.087    -5339321.757 6  -4105003.28449  23968253.4744
  23848650.712     2802197.934 7   2291425.33449  23848653.1734
  22317563.704    -6692468.656 7  -5141304.23849  22317564.8414
 95  2 19 18 31  0.0050000  0  6 18 14 28 19 22 29
  23124599.134    -7131585.865 7  -5504939.45449  23124600.9504
  23084144.243     5808749.303 7   4610232.82749  23084146.9154
  26153826.751     -300223.505 5   -184770.56148  26153833.1144
  23963936.110    -5361991.705 6  -4122668.14949  23963939.4384
  23869195.142     2910158.909 7   2375550.71549  23869197.9664
  22320933.806    -6674759.724 7  -5127505.08049  22320934.7554
 95  2 19 18 31 30.0050000  0  6 18 14 28 19 22 29
  23119102.892    -7160469.740 7  -5527446.35749  23119104.4034
  23105679.970     5921917.634 7   4698415.89349  23105682.8524
  26147892.649     -331405.910 5   -209068.39449  26147897.5484
  23959670.767    -5384406.769 6  -4140134.39649  23959673.8374
  23889827.571     3018581.084 7   2460035.49149  23889829.9384
  22324359.274    -6656759.280 7  -5113478.76649  22324360.2004
 95  2 19 18 32  0.0050000  0  6 18 14 28 19 22 29
  23113641.899    -7189166.972 7  -5549807.83249  23113643.4354
  23127298.649     6035523.721 7   4786940.06349  23127301.4274
  26141994.056     -362407.917 5   -233225.60648  26142000.8294
  23955453.743    -5406567.301 6  -4157402.30649  23955456.7554
  23910544.032     3127448.129 7   2544866.91249  23910546.4464
  22327837.634    -6638480.654 7  -5099235.68449  22327838.6654
 95  2 19 18 32 30.0050000  0  6 18 14 28 19 22 29
  23108216.438    -7217677.066 7  -5572023.47749  23108218.3844
  23149002.665     6149580.794 7   4875815.65249  23149005.3494
  26136129.806     -393222.118 5   -257236.57249  26136134.7394
  23951284.649    -5428475.051 6  -4174473.24249  23951287.8954
  23931343.696     3236750.256 7   2630037.35549  23931346.4384
  22331369.376    -6619921.657 7  -5084774.13049  22331370.3844
 95  2 19 18 33  0.0050000  0  6 18 14 28 19 22 29
  23102828.517    -7245991.854 7  -5594086.93149  23102830.5914
  23170794.634     6264097.860 7   4965049.66949  23170797.6924
  26130302.220     -423840.890 4   -281095.21149  26130307.1184
  23947163.876    -5450130.787 6  -4191347.81149  23947167.1104
  23952223.579     3346475.652 7   2715537.61649  23952226.4034
  22334958.188    -6601061.999 7  -5070078.29849  22334958.9154
 95  2 19 18 33 30.0050000  0  6 18 14 28 19 22 29
  23097479.392    -7274100.704 7  -5615989.91849  23097481.0914
  23192675.118     6379079.928 7   5054646.03249  23192677.9664
  26124515.399     -454252.578 5   -304792.52149  26124520.9424
  23943091.899    -5471529.393 6  -4208022.01849  23943094.8644
  23973188.517     3456646.192 7   2801384.75449  23973191.1534
  22338607.532    -6581884.965 7  -5055135.16149  22338608.2474
 95  2 19 18 34  0.0050000  0  6 18 14 28 19 22 29
  23092169.673    -7302002.226 7  -5637731.35149  23092171.3374
  23214637.985     6494495.844 7   5144580.46049  23214640.9384
  26118768.821     -484459.812 5   -328330.51349  26118774.2594
  23939069.423    -5492666.672 6  -4224492.58949  23939072.2244
  23994236.212     3567253.693 7   2887572.37549  23994238.8724
  22342318.376    -6562385.179 7  -5039940.52549  22342319.0094
 95  2 19 18 34 30.0050000  0  6 18 14 28 19 22 29
  23086900.501    -7329693.485 7  -5659308.93949  23086902.1304
  23236677.892     6610316.061 7   5234829.92549  23236680.8454
  26113058.931     -514463.493 5   -351709.87149  26113063.7944
  23935095.853    -5513547.086 6  -4240763.01049  23935098.7704
  24015365.306     3678289.381 7   2974093.64449  24015368.0014
  22346092.931    -6542548.505 7  -5024483.39049  22346093.5054
 95  2 19 18 35  0.0060000  0  6 18 14 28 19 22 29
  23081671.639    -7357170.665 7  -5680719.71349  23081673.1974
  23258794.412     6726539.251 7   5325393.40049  23258797.4944
  26107387.779     -544259.720 5   -374927.61649  26107390.5804
  23931170.232    -5534176.556 6  -4256837.87949  23931173.4434
  24036577.139     3789756.605 7   3060951.17949  24036580.0684
  22349934.584    -6522361.358 7  -5008753.15649  22349935.0884
 95  2 19 18 35 30.0060000  0  6 18 14 28 19 22 29
  23076488.576    -7384408.428 7  -5701943.92649  23076490.0414
  23280986.279     6843156.647 7   5416264.04749  23280989.1504
  26101759.521     -573839.222 5   -397976.49049  26101765.1114
  23927292.982    -5554551.999 6  -4272714.82149  23927296.0644
  24057872.115     3901662.268 7   3148150.35949  24057874.9864
  22353841.881    -6501828.042 7  -4992753.17549  22353842.4434
 95  2 19 18 36  0.0060000  0  6 18 14 28 19 22 29
  23071353.920    -7411390.111 7  -5722968.60649  23071355.2324
  23303254.896     6960180.397 7   5507451.32949  23303258.2014
  26096171.592     -603196.234 5   -420851.99249  26096177.2174
  23923465.389    -5574664.487 6  -4288386.84949  23923468.4474
  24079247.342     4013990.813 6   3235679.04949  24079250.3074
  22357816.334    -6480939.676 7  -4976476.53149  22357817.2364
 95  2 19 18 36 30.0060000  0  6 18 14 28 19 22 29
  23066269.475    -7438109.072 7  -5743788.57149  23066270.8934
  23325606.014     7077635.728 7   5598974.90349  23325609.4474
  26090629.068     -632326.999 5   -443551.21649  26090634.4594
  23919685.865    -5594526.084 6  -4303863.38449  23919688.9714
  24100702.295     4126734.220 7   3323531.00249  24100704.7094
  22361859.185    -6459696.953 7  -4959923.76749  22361859.9124
 95  2 19 18 37  0.0060000  0  6 18 14 28 19 22 29
  23061235.787    -7464560.193 7  -5764399.81549  23061237.6504
  23348042.068     7195538.440 7   5690847.08549  23348045.3734
  26085128.990     -661226.959 5   -466070.58349  26085133.8424
  23915953.467    -5614141.195 6  -4319147.85449  23915956.1274
  24122236.264     4239895.176 7   3411708.31949  24122239.1114
  22365968.685    -6438102.915 7  -4943097.24449  22365969.3534
 95  2 19 18 37 30.0060000  0  6 18 14 28 19 22 29
  23056250.818    -7490757.088 7  -5784812.96449  23056252.5414
  23370560.436     7313872.739 7   5783055.57749  23370563.4244
  26079673.123     -689898.072 5   -488411.62349  26079677.4244
  23912268.514    -5633507.060 6  -4334238.11649  23912270.8344
  24143849.857     4353475.704 7   3500212.57949  24143852.6234
  22370141.732    -6416173.569 7  -4926009.44449  22370142.1544
 95  2 19 18 38  0.0060000  0  6 18 14 28 19 22 29
  23051310.568    -7516719.820 7  -5805043.64549  23051312.3264
  23393162.170     7432644.527 7   5875604.96549  23393164.9004
  26074262.232     -718332.312 5   -510568.08949  26074267.3894
  23908629.428    -5652629.729 6  -4349138.86949  23908632.2524
  24165541.732     4467469.916 6   3589039.19449  24165544.7214
  22374379.459    -6393902.552 7  -4908655.41149  22374379.9044
 95  2 19 18 38 30.0060000  0  6 18 14 28 19 22 29
  23046409.709    -7542473.220 7  -5825111.21949  23046411.4324
  23415842.506     7551830.518 7   5968477.10649  23415845.6824
  26068893.943     -746542.966 5   -532550.36249  26068897.8114
  23905030.287    -5671542.600 6  -4363876.14849  23905033.0294
  24187311.990     4581870.259 7   3678182.27049  24187314.6154
  22378678.068    -6371314.117 7  -4891054.04049  22378678.5254
 95  2 19 18 39  0.0060000  0  6 18 14 28 19 22 29
  23041549.936    -7568010.033 7  -5845010.01849  23041551.3894
  23438601.904     7671433.336 7   6061674.05249  23438604.9634
  26063569.990     -774519.036 5   -554349.80449  26063574.5024
  23901474.365    -5690229.101 6  -4378437.04449  23901477.1074
  24209160.060     4696684.303 6   3767647.72149  24209162.7444
  22383036.287    -6348411.897 7  -4873208.15649  22383036.9674
 95  2 19 18 39 30.0060000  0  6 18 14 28 19 22 29
  23036731.357    -7593332.953 7  -5864742.15849  23036732.7994
  23461440.686     7791450.723 7   6155194.03249  23461443.9084
  26058290.311     -802261.533 5   -575967.24549  26058295.1974
  23897962.623    -5708683.734 6  -4392817.25349  23897965.3774
  24231083.904     4811896.332 6   3857423.28049  24231086.7054
  22387451.951    -6325204.948 7  -4855124.81949  22387452.9244
 95  2 19 18 40  0.0060000  0  6 18 14 28 19 22 29
  23031954.881    -7618432.531 7  -5884300.25949  23031956.5684
  23484358.639     7911884.813 7   6249038.72049  23484361.8614
  26053056.725     -829770.656 5   -597402.81249  26053060.8384
  23894494.053    -5726910.625 6  -4407020.01649  23894497.2994
  24253081.600     4927491.576 7   3947497.45149  24253084.3304
  22391928.115    -6301683.180 7  -4836796.16749  22391929.0184
 95  2 19 18 40 30.0060000  0  6 18 14 28 19 22 29
  23027225.209    -7643286.515 7  -5903666.99149  23027227.1544
  23507354.576     8032728.606 7   6343202.64749  23507357.9164
  26047866.935     -857041.938 5   -618653.08749  26047871.4944
  23891072.592    -5744887.613 6  -4421028.04149  23891076.1074
  24275151.107     5043468.135 6   4037868.75549  24275153.9084
  22396464.600    -6277843.940 7  -4818220.14149  22396465.3964
 95  2 19 18 41  0.0060000  0  6 18 14 28 19 22 29
  23022542.412    -7667895.562 7  -5922842.87049  23022543.9594
  23530424.162     8153962.547 7   6437670.59549  23530427.6894
  26042720.693     -884079.140 5   -639720.93849  26042724.5374
  23887699.029    -5762618.334 6  -4434844.16749  23887702.2284
  24297293.201     5159825.305 6   4128536.63749  24297295.8144
  22401062.764    -6253679.094 7  -4799390.38749  22401063.9714
 95  2 19 18 41 30.0060000  0  7 18 14 28 19 31 22 29
  23017906.248    -7692259.429 7  -5941827.69249  23017907.6894
  23553565.646     8275569.856 7   6532429.48749  23553569.1864
  26037621.404     -910876.811 5   -660602.15549  26037626.4434
  23884370.521    -5780109.823 6  -4448473.87649  23884373.7214
  26497396.185      -38305.16514
  24319510.193     5276576.871 6   4219511.85049  24319512.8654
  22405728.670    -6229161.073 7  -4780285.43149  22405729.5254
 95  2 19 18 42  0.0060000  0  7 18 14 28 19 31 22 29
  23013317.818    -7716371.996 7  -5960616.70249  23013319.2954
  23576776.646     8397543.254 7   6627473.63649  23576779.9984
  26032569.506     -937429.250 5   -681292.25149  26032573.9824
  23881085.771    -5797371.026 6  -4461924.14349  23881088.1744
  26487880.873      -88306.455 4    -15586.93956  26487887.8964
  24341803.654     5393730.541 6   4310800.38749  24341806.5254
  22410463.592    -6204277.532 7  -4760895.66349  22410464.5884
 95  2 19 18 42 30.0060000  0  7 18 14 28 19 31 22 29
  23008777.068    -7740234.355 7  -5979210.73549  23008778.7324
  23600055.740     8519876.767 7   6722798.39749  23600058.7524
  26027562.764     -963736.440 5   -701791.28649  26027566.8424
  23877844.131    -5814406.828 6  -4475198.76749  23877846.8034
  26478358.475     -138344.755 3    -54577.63447  26478363.7714
  24364173.357     5511282.823 6   4402399.52849  24364175.9824
  22415266.850    -6179038.111 7  -4741228.58749  22415267.9394
 95  2 19 18 43  0.0060000  0  7 18 14 28 19 31 22 29
  23004283.514    -7763846.895 7  -5997610.10749  23004285.0964
  23623405.061     8642577.661 7   6818409.42249  23623407.9904
  26022605.592     -989790.314 5   -722092.89549  26022610.3964
  23874643.951    -5831221.695 6  -4488301.23849  23874646.8224
  26468829.615     -188415.854 3    -93593.85447  26468836.3184
  24386618.021     5629230.909 6   4494307.10349  24386620.9514
  22420138.568    -6153436.042 7  -4721278.92849  22420139.4714
 95  2 19 18 43 30.0060000  0  7 18 14 28 19 31 22 29
  22999837.912    -7787208.858 7  -6015814.23149  22999839.5534
  23646825.529     8765651.895 7   6914311.36549  23646828.6824
  26017695.123    -1015595.717 5   -742200.92749  26017698.5214
  23871489.217    -5847801.335 6  -4501220.41049  23871491.8184
  26459289.529     -238545.646 3   -132655.82647  26459296.4244
  24409133.404     5747549.776 6   4586503.57849  24409136.4164
  22425074.725    -6127496.073 7  -4701065.97449  22425075.6744
 95  2 19 18 44  0.0060000  0  7 18 14 28 19 31 22 29
  22995440.193    -7810317.298 7  -6033820.80049  22995442.1034
  23670317.740     8889104.415 6   7010508.07749  23670320.7644
  26012830.975    -1041153.770 5   -762116.21349  26012835.2874
  23868380.787    -5864135.549 6  -4513948.34049  23868383.4004
  26449736.912     -288748.149 3   -171774.49948  26449743.0534
  24431715.982     5866222.226 6   4678975.58849  24431718.7364
  22430069.850    -6101248.176 7  -4680613.07049  22430070.8464
 95  2 19 18 44 30.0060000  0  7 18 14 28 19 31 22 29
  22991091.787    -7833170.116 7  -6051628.18049  22991093.7684
  23693882.561     9012937.692 6   7107001.47749  23693885.4904
  26008015.404    -1066455.162 5   -781831.51049  26008020.8654
  23865322.443    -5880207.148 6  -4526471.62949  23865324.8104
  26440172.467     -339013.370 3   -210941.96346  26440178.2214
  24454366.881     5985251.501 6   4771725.62949  24454369.8814
  22435123.725    -6074690.120 7  -4659918.49149  22435124.2644
 95  2 19 18 45  0.0060000  0  7 18 14 28 19 31 22 29
  22986790.287    -7855773.229 7  -6069240.99249  22986792.2324
  23717519.318     9137148.680 6   7203789.19449  23717522.3304
  26003249.475    -1091500.055 5   -801346.97849  26003254.9714
  23862312.240    -5896025.312 6  -4538797.43549  23862314.6434
  26430598.381     -389325.865 4   -250146.35947  26430603.4324
  24477087.357     6104649.116 6   4864762.68049  24477090.4514
  22440237.092    -6047819.251 7  -4638980.15649  22440238.0184
 95  2 19 18 45 30.0060000  0  7 18 14 28 19 31 22 29
  22982536.201    -7878129.206 7  -6086661.22349  22982538.2404
  23741226.842     9261733.759 6   7300868.41349  23741229.9004
  25998532.889    -1116286.448 5   -820660.99549  25998536.8384
  23859347.764    -5911603.501 6  -4550936.25449  23859350.6824
  26421019.529     -439665.754 4   -289372.08248  26421025.7644
  24499880.498     6224427.712 6   4958096.60449  24499882.9714
  22445409.482    -6020638.030 7  -4617799.99149  22445410.4204
 95  2 19 18 46  0.0060000  0  7 18 14 28 19 31 22 29
  22978327.560    -7900246.383 7  -6103895.37949  22978329.5884
  23765004.654     9386687.013 6   7398234.51649  23765008.1934
  25993865.795    -1140808.129 5   -839768.76449  25993871.6194
  23856424.186    -5926966.752 6  -4562907.58349  23856427.1154
  26411440.857     -489996.987 4   -328591.08247  26411448.2324
  24522747.381     6344590.345 6   5051729.77749  24522749.9594
  22450644.881    -5993124.544 7  -4596360.92449  22450645.9824
 95  2 19 18 46 30.0060000  0  7 18 14 28 19 31 22 29
  22974163.303    -7922130.123 7  -6120947.62749  22974165.3424
  23788851.686     9512006.343 6   7495885.88849  23788855.3074
  25989251.225    -1165060.748 5   -858666.87849  25989254.9634
  23853538.709    -5942130.028 6  -4574723.08549  23853541.3114
  26401866.748     -540308.064 3   -367794.37248  26401873.1584
  24545685.435     6465131.817 6   5145658.14249  24545688.4474
  22455948.084    -5965256.760 7  -4574645.77549  22455949.2914
 95  2 19 18 47  0.0060000  0  7 18 14 28 19 31 22 29
  22970044.170    -7943776.802 7  -6137815.15649  22970046.0334
  23812769.264     9637690.435 6   7593821.47849  23812772.9324
  25984688.834    -1189035.580 5   -877348.52249  25984694.1074
  23850691.131    -5957094.390 6  -4586383.59249  23850693.7094
  26392297.240     -590600.835 3   -406983.40647  26392301.9164
  24568694.420     6586046.699 6   5239877.47649  24568697.3614
  22461319.490    -5937029.680 7  -4552650.65049  22461320.5104
 95  2 19 18 47 30.0060000  0  7 18 14 28 19 31 22 29
  22965973.428    -7965168.963 7  -6154484.36249  22965974.9864
  23836752.865     9763725.573 6   7692030.62849  23836756.6274
  25980182.100    -1212727.717 5   -895809.87449  25980185.8614
  23847884.607    -5971841.566 6  -4597874.86549  23847887.3614
  26382726.498     -640884.849 3   -446165.58748  26382732.2174
  24591770.498     6707312.120 6   5334369.96549  24591773.6624
  22466759.045    -5908445.124 7  -4530376.97549  22466759.8654
 95  2 19 18 48  0.0060000  0  7 18 14 28 19 31 22 29
  22961952.834    -7986296.512 7  -6170947.37849  22961954.2524
  23860802.248     9890105.299 6   7790508.27649  23860805.5884
  25975726.904    -1236132.648 5   -914047.47449  25975731.4284
  23845122.053    -5986357.219 6  -4609185.72849  23845124.7604
  26373157.256     -691174.540 3   -485352.24948  26373163.4554
  24614912.428     6828920.907 6   5429130.01249  24614915.1234
  22472266.896    -5879499.756 7  -4507822.15249  22472268.0104
 95  2 19 18 48 30.0060000  0  7 18 14 28 19 31 22 29
  22957983.678    -8007154.882 7  -6187200.64449  22957985.1894
  23884916.068    10016822.808 6   7889249.13249  23884919.5494
  25971327.967    -1259249.156 5   -932060.30849  25971333.2054
  23842408.365    -6000621.340 6  -4620300.59749  23842410.8264
  26363580.490     -741493.819 3   -524561.96346  26363585.7754
  24638117.920     6950870.562 6   5524155.65649  24638120.8964
  22477841.615    -5850204.766 7  -4484994.89049  22477843.0804
 95  2 19 18 49  0.0060000  0  7 18 14 28 19 31 22 29
  22954070.029    -8027720.843 7  -6203226.05749  22954071.7054
  23909093.568    10143876.704 6   7988252.10649  23909097.1194
  25966985.732    -1282068.368 5   -949841.50649  25966990.1974
  23839744.607    -6014619.147 6  -4631207.93849  23839747.3734
  26354003.818     -791826.382 3   -563781.97247  26354010.6034
  24661390.217     7073165.463 6   5619450.32049  24661393.7094
  22483483.092    -5820557.727 7  -4461893.30449  22483484.5804
 95  2 19 18 49 30.0060000  0  7 18 14 28 19 31 22 29
  22950212.240    -8047993.660 7  -6219023.04349  22950213.8224
  23933335.248    10271267.774 6   8087517.82649  23933338.6354
  25962699.928    -1304592.665 5   -967392.88349  25962703.3144
  23837130.545    -6028356.038 6  -4641911.97949  23837133.1464
  26344424.514     -842162.767 3   -603005.00747  26344432.5334
  24684726.365     7195797.917 6   5715008.02449  24684729.5884
  22489193.420    -5790550.350 7  -4438510.93049  22489194.6744
 95  2 19 18 50  0.0060000  0  8 18 14 28 19 31 22 27 29
  22946406.514    -8067993.496 7  -6234607.32249  22946407.9204
  23957644.943    10399017.520 6   8187063.02149  23957648.8344
  25958471.186    -1326813.289 5   -984707.62549  25958475.2874
  23834565.740    -6041831.727 6  -4652412.48449  23834568.3184
  26334847.709     -892490.181 3   -642221.05348  26334852.5374
  24708127.428     7318773.469 6   5810833.07449  24708130.6744
  26966537.787      -32294.46913
  22494975.404    -5760165.073 7  -4414834.09149  22494976.5064
 95  2 19 18 50 30.0060000  0  8 18 14 28 19 31 22 27 29
  22942653.256    -8087715.807 7  -6249975.34849  22942654.8264
  23982024.248    10527130.702 6   8286891.42349  23982027.9864
  25954301.053    -1348725.260 5  -1001781.86049  25954306.1034
  23832050.748    -6055049.386 6  -4662711.92749  23832053.5144
  26325275.865     -942787.803 4   -681413.88048  26325280.9394
  24731593.381     7442085.827 6   5906920.57049  24731596.3224
  26958540.779      -74324.167 3     -5451.68157  26958544.7874
  22500832.646    -5729386.783 7  -4390851.00149  22500833.7014
 95  2 19 18 51  0.0060000  0  8 18 14 28 19 31 22 27 29
  22938954.740    -8107152.693 7  -6265120.96849  22938956.2054
  24006473.193    10655609.397 6   8387004.63549  24006476.5804
  25950190.803    -1370323.635 5  -1018611.74949  25950196.4394
  23829580.123    -6068029.282 6  -4672826.10849  23829582.8304
  26315711.060     -993046.442 3   -720576.27148  26315717.6584
  24755124.178     7565741.229 6   6003275.36749  24755127.2834
  26950561.467     -116250.170 3    -38121.17246  26950565.5924
  22506765.623    -5698209.436 7  -4366556.96349  22506766.5024
 95  2 19 18 51 30.0060000  0  8 18 14 28 19 31 22 27 29
  22935311.100    -8126299.349 7  -6280040.43549  22935312.4714
  24030993.029    10784462.328 6   8487409.46049  24030996.3934
  25946142.342    -1391597.111 5  -1035188.48049  25946147.6974
  23827158.021    -6080760.250 6  -4682746.32049  23827160.9514
  26306155.029    -1043268.709 3   -759710.37248  26306161.1114
  24778724.412     7689759.240 6   6099912.71749  24778727.3424
  26942605.693     -158060.821 3    -70700.83045  26942611.2014
  22512777.131    -5666618.516 7  -4341940.65849  22512778.1864
 95  2 19 18 52  0.0060000  0  8 18 14 28 19 31 22 27 29
  22931725.021    -8145146.205 7  -6294726.29449  22931726.1464
  24055583.818    10913688.232 6   8588104.91249  24055587.2524
  25942157.131    -1412542.547 5  -1051509.60149  25942160.7054
  23824782.998    -6093241.062 6  -4692471.59649  23824785.5184
  26296602.670    -1093462.522 3   -798822.21647  26296608.6234
  24802395.725     7814153.250 6   6196843.06949  24802398.5144
  26934671.662     -199751.151 3   -103186.71348  26934677.1004
  22518864.615    -5634628.710 7  -4317013.53649  22518865.7644
 95  2 19 18 52 30.0060000  0  8 18 14 28 19 31 22 27 29
  22928200.709    -8163666.452 7  -6309157.65049  22928201.7994
  24080244.045    11043277.830 6   8689083.76249  24080247.5494
  25938234.576    -1433155.329 5  -1067571.49049  25938238.7014
  23822454.131    -6105479.785 7  -4702008.24049  23822457.0604
  26287056.185    -1143628.921 3   -837912.83646  26287062.2094
  24826139.818     7938927.348 6   6294069.58349  24826142.8774
  26926760.084     -241326.046 3   -135582.67447  26926766.2254
  22525025.060    -5602253.666 7  -4291786.22549  22525026.3854
 95  2 19 18 53  0.0060000  0  8 18 14 28 19 31 22 27 29
  22924738.342    -8181859.391 7  -6323333.96749  22924739.7484
  24104972.561    11173224.833 6   8790341.11849  24104976.0414
  25934375.881    -1453434.140 5  -1083373.13449  25934379.9124
  23820172.529    -6117469.289 6  -4711350.67749  23820175.2364
  26277514.482    -1193773.168 3   -876986.05447  26277521.5884
  24849956.021     8064083.167 6   6391593.53249  24849959.2214
  26918870.623     -282789.365 3   -167891.64847  26918874.3504
  22531257.240    -5569503.314 7  -4266266.47749  22531258.5644
 95  2 19 18 53 30.0060000  0  8 18 14 28 19 31 22 27 29
  22921337.810    -8199729.628 7  -6337258.81849  22921339.3574
  24129768.678    11303529.549 6   8891877.20049  24129772.0414
  25930581.623    -1473373.144 5  -1098910.00049  25930585.8424
  23817940.560    -6129197.814 7  -4720489.75849  23817943.0924
  26267981.475    -1243870.031 3   -916022.43248  26267987.2054
  24873841.959     8189608.186 6   6489405.17949  24873845.2404
  26911003.686     -324127.356 3   -200103.02047  26911007.6234
  22537561.756    -5536373.868 7  -4240451.33049  22537562.8814
 95  2 19 18 54  0.0060000  0  8 18 14 28 19 31 22 27 29
  22917996.045    -8217289.178 7  -6350941.57949  22917997.7794
  24154631.310    11434185.220 6   8993686.76349  24154634.7684
  25926851.342    -1492975.313 5  -1114184.41849  25926855.1034
  23815753.889    -6140688.609 7  -4729443.58849  23815756.6314
  26258458.756    -1293909.115 4   -955013.74446  26258464.8034
  24897794.826     8315477.995 6   6587485.50649  24897797.8144
  26903159.053     -365350.414 3   -232224.85847  26903162.5574
  22543935.693    -5502878.887 7  -4214351.34849  22543936.7014
 95  2 19 18 54 30.0060000  0  7 18 14 28 19 22 27 29
  22914713.662    -8234539.491 7  -6364383.37949  22914715.4674
  24179559.834    11565185.681 6   9095764.99449  24179563.5144
  25923187.178    -1512231.748 5  -1129189.39249  25923191.9004
  23813611.928    -6151943.597 7  -4738213.68449  23813614.8224
  24921812.240     8441687.925 6   6685830.85049  24921814.9714
  26895336.615     -406456.765 3   -264255.64548  26895341.7364
  22550381.701    -5469003.495 7  -4187954.95349  22550383.0374
 95  2 19 18 55  0.0060000  0  8 18 14 28 19 31 22 27 29
  22911487.154    -8251495.983 7  -6377596.22349  22911489.1234
  24204551.248    11696516.334 6   9198100.50449  24204555.2324
  25919588.021    -1531146.325 5  -1143928.00449  25919592.6034
  23811515.295    -6162960.608 6  -4746798.34249  23811518.4714
  26239459.326      -48219.987 4
  24945892.154     8568230.611 6   6784435.47949  24945895.3424
  26887539.326     -447433.176 2   -296185.24746  26887546.3144
  22556903.279    -5434733.743 7  -4161251.25049  22556904.4164
 95  2 19 18 55 30.0060000  0  8 18 14 28 19 31 22 27 29
  22908315.389    -8268163.985 7  -6390584.27349  22908317.0414
  24229605.639    11828177.932 6   9300693.90749  24229609.0604
  25916053.631    -1549715.140 5  -1158397.17149  25916058.0494
  23809463.881    -6173743.460 7  -4755200.53449  23809466.7284
  26229976.756      -98042.532 4    -16818.59158  26229982.9324
  24970034.092     8695099.815 6   6883294.54449  24970037.5374
  26879768.428     -488265.720 2   -328002.65547  26879774.1114
  22563499.811    -5400069.107 7  -4134239.86049  22563501.0294
 95  2 19 18 56  0.0060000  0  8 18 14 28 19 31 22 27 29
  22905201.154    -8284527.261 7  -6403334.88249  22905202.6314
  24254722.740    11960168.280 6   9403543.46849  24254726.3264
  25912587.451    -1567930.805 5  -1172591.16849  25912591.8464
  23807458.482    -6184282.461 7  -4763412.72649  23807461.0724
  26220503.467     -147824.786 4    -55609.82649  26220509.1154
  24994239.771     8822298.897 6   6982410.64749  24994243.0294
  26872025.990     -528954.143 3   -359707.83147  26872030.7954
  22570173.693    -5364997.100 7  -4106911.04149  22570175.0064
 95  2 19 18 56 30.0060000  0  8 18 14 28 19 31 22 27 29
  22902147.068    -8300576.843 7  -6415841.04849  22902148.6974
  24279899.639    12092476.680 6   9506640.87449  24279903.6234
  25909187.006    -1585796.981 5  -1186512.82249  25909191.6704
  23805501.904    -6194564.321 7  -4771424.54449  23805504.3184
  26211036.100     -197575.967 4    -94376.86749  26211041.4324
  25018507.154     8949824.989 6   7081781.55749  25018510.5414
  26864310.521     -569501.266 3   -391302.93747  26864315.0924
  22576927.068    -5329507.573 7  -4079256.87549  22576928.3934
 95  2 19 18 57  0.0060000  0  8 18 14 28 19 31 22 27 29
  22899152.256    -8316315.473 7  -6428104.90449  22899153.7914
  24305137.412    12225097.571 6   9609981.77449  24305140.9394
  25905852.834    -1603323.133 5  -1200169.52449  25905857.5804
  23803593.748    -6204588.153 6  -4779235.29649  23803596.6664
  26201575.170     -247300.341 4   -133122.96749  26201580.4084
  25042832.248     9077653.050 6   7181387.77549  25042835.5064
  26856618.310     -609919.650 3   -422797.72747  26856623.5254
  22583758.303    -5293610.323 7  -4051285.00049  22583759.6154
 95  2 19 18 57 30.0060000  0  8 18 14 28 19 31 22 27 29
  22896219.521    -8331728.390 7  -6440114.96649  22896221.0924
  24330437.303    12358048.397 6   9713579.76949  24330440.7714
  25902584.162    -1620498.134 5  -1213552.62949  25902588.9904
  23801735.889    -6214352.467 7  -4786843.83349  23801738.7834
  26192122.303     -296974.511 4   -171829.96848  26192128.6434
  25067215.435     9205786.856 6   7281232.23649  25067218.6824
  26848948.998     -650219.848 3   -454200.39146  26848952.8074
  22590667.631    -5257301.735 7  -4022992.60949  22590668.6624
 95  2 19 18 58  0.0070000  0  7 18 14 28 19 22 27 29
  22893349.128    -8346810.463 7  -6451867.22849  22893350.6164
  24355798.097    12491322.350 6   9817429.54649  24355801.4724
  25899382.378    -1637322.777 5  -1226662.71249  25899387.4524
  23799926.401    -6223861.450 7  -4794253.40949  23799929.6594
  25091658.206     9334234.453 6   7381321.21649  25091661.3474
  26841301.479     -690418.586 3   -485524.04148  26841308.2534
  22597655.136    -5220581.170 7  -3994379.19849  22597656.1444
 95  2 19 18 58 30.0070000  0  8 18 14 28 19 31 22 27 29
  22890540.667    -8361570.483 7  -6463368.54149  22890542.1444
  24381219.479    12624909.666 6   9921523.51349  24381223.2414
  25896247.019    -1653798.148 5  -1239500.62849  25896251.2724
  23798165.870    -6233114.060 7  -4801463.21349  23798168.6834
  26173266.245      -47837.578 4
  25116158.698     9462986.862 6   7481647.70749  25116162.2024
  26833669.761     -730515.964 3   -516768.70447  26833673.6864
  22604717.190    -5183469.070 7  -3965460.69249  22604718.3744
 95  2 19 18 59  0.0070000  0  8 18 14 28 19 31 22 27 29
  22887791.628    -8376015.634 7  -6474624.49649  22887792.9404
  24406699.050    12758805.321 6  10025857.72249  24406702.8114
  25893179.026    -1669923.382 5  -1252065.73149  25893184.4054
  23796450.972    -6242125.241 7  -4808484.88849  23796453.6554
  26163868.151      -97227.236 4     -3844.52858  26163871.7144
  25140716.847     9592041.054 6   7582209.36749  25140720.7844
  26826060.933     -770503.998 3   -547928.13647  26826065.9604
  22611850.659    -5145983.475 7  -3936251.15049  22611851.8194
 95  2 19 18 59 30.0070000  0  8 18 14 28 19 31 22 27 29
  22885100.417    -8390158.100 7  -6485644.59949  22885101.7294
  24432231.925    12892982.203 6  10130411.08849  24432235.5224
  25890176.167    -1685704.227 5  -1264362.45149  25890180.6324
  23794778.800    -6250910.622 7  -4815330.61649  23794781.6834
  26154483.284     -146538.419 4    -42268.68748  26154489.6364
  25165332.495     9721394.674 6   7683004.31549  25165336.4214
  26818471.261     -810386.149 3   -579005.13947  26818476.1714
  22619052.878    -5108135.870 7  -3906759.52549  22619054.0384
 95  2 19 19  0  0.0070000  0  8 18 14 28 19 31 22 27 29
  22882465.394    -8404003.832 7  -6496433.47449  22882467.0344
  24457813.542    13027415.329 6  10235164.11549  24457817.3044
  25887238.862    -1701142.881 5  -1276392.53549  25887242.9764
  23793149.901    -6259473.373 7  -4822002.86449  23793152.7024
  26145111.690     -195787.966 4    -80644.86548  26145118.4764
  25190002.737     9851033.100 6   7784021.20649  25190005.7494
  26810901.612     -850161.452 3   -609998.82246  26810906.8624
  22626321.979    -5069936.257 7  -3876993.60549  22626323.0224
 95  2 19 19  0 30.0070000  0  8 18 14 28 19 31 22 27 29
  22879887.706    -8417549.040 7  -6506988.17149  22879889.1474
  24483445.034    13162108.884 6  10340120.07949  24483448.7024
  25884367.769    -1716230.748 5  -1288149.29649  25884372.2104
  23791561.839    -6267818.139 7  -4828505.25949  23791564.4404
  26135750.917     -244982.582 5   -118978.27949  26135756.4604
  25214725.815     9980956.005 6   7885259.76549  25214729.4254
  26803354.909     -889819.183 3   -640900.94248  26803360.5464
  22633659.761    -5031376.862 7  -3846947.33449  22633660.8154
 95  2 19 19  1  0.0070000  0  8 18 14 28 19 31 22 27 29
  22877367.581    -8430794.687 7  -6517309.45249  22877368.9994
  24509125.136    13297058.090 6  10445275.24549  24509128.6044
  25881563.495    -1730960.934 5  -1299627.33849  25881568.0194
  23790013.315    -6275953.800 7  -4834844.71149  23790015.9994
  26126398.894      -22923.36114   -157268.95147  26126405.4214
  25239500.862    10111153.506 6   7986712.28949  25239504.7414
  26795829.979     -929357.315 3   -671709.79545  26795836.4014
  22641070.401    -4992432.482 7  -3816601.08049  22641071.3974
 95  2 19 19  1 30.0070000  0  8 18 14 28 19 31 22 27 29
  22874903.386    -8443744.755 7  -6527400.40749  22874904.8744
  24534855.011    13432269.173 6  10550634.45949  24534859.0894
  25878829.339    -1745330.954 5  -1310824.74749  25878834.4014
  23788507.401    -6283869.225 7  -4841012.55449  23788510.1554
  26117061.042      -72002.756 5   -195512.59349  26117065.3664
  25264329.526    10241627.454 6   8088380.23549  25264332.8664
  26788328.526     -968786.809 3   -702434.04949  26788333.7884
  22648556.050    -4953095.720 7  -3785949.06549  22648557.0584
 95  2 19 19  2  0.0070000  0  8 18 14 28 19 31 22 27 29
  22872496.940    -8456390.123 7  -6537253.93549  22872498.5224
  24560638.479    13567763.274 6  10656214.21649  24560642.0304
  25876164.511    -1759335.739 5  -1321737.55149  25876168.5774
  23787043.706    -6291561.373 7  -4847006.41849  23787046.1794
  26107735.683     -121001.255 4   -233693.13649  26107740.6164
  25289211.386    10372382.761 6   8190267.41049  25289215.2764
  26780846.308    -1008108.940 3   -733074.60549  26780851.8044
  22656116.972    -4913362.886 7  -3754988.43049  22656118.1794
 95  2 19 19  2 30.0070000  0  8 18 14 28 19 31 22 27 29
  22870150.862    -8468717.176 7  -6546859.42549  22870152.4444
  24586478.542    13703554.344 6  10762025.38149  24586482.2224
  25873568.604    -1772972.236 5  -1332363.36649  25873572.9524
  23785623.401    -6299023.233 7  -4852820.83849  23785626.1444
  26098428.909     -169911.600 5   -271805.00049  26098434.7454
  25314147.425    10503420.672 6   8292374.79049  25314151.1514
  26773381.589    -1047326.593 3   -763633.74848  26773387.4014
  22663754.308    -4873227.179 7  -3723713.85949  22663755.5504
 95  2 19 19  3  0.0070000  0  8 18 14 28 19 31 22 27 29
  22867868.870    -8480708.752 7  -6556203.51449  22867870.5814
  24612376.823    13839647.634 6  10868072.02749  24612380.6084
  25871045.409    -1786235.588 5  -1342698.43649  25871049.5464
  23784250.487    -6306236.546 7  -4858441.58749  23784253.4174
  26089138.198     -218735.960 5   -309849.92649  26089143.7884
  25339134.964    10634732.920 6   8394695.95349  25339138.4094
  26765940.573    -1086437.108 3   -794109.38449  26765946.2454
  22671470.190    -4832682.119 7  -3692120.31749  22671471.2334
 95  2 19 19  3 30.0070000  0  8 18 14 28 19 31 22 27 29
  22865653.979    -8492347.958 7  -6565273.01649  22865655.8434
  24638332.550    13976045.722 6  10974356.18349  24638336.3354
  25868592.690    -1799127.354 5  -1352743.93049  25868596.7804
  23782924.620    -6313206.763 7  -4863872.91049  23782927.4794
  26079862.151     -267476.838 5   -347829.77549  26079867.6594
  25364177.683    10766330.154 6   8497239.17449  25364180.9874
  26758516.120    -1125450.000 3   -824509.01347  26758521.6164
  22679261.050    -4791739.861 7  -3660217.26949  22679262.1984
 95  2 19 19  4  0.0070000  0  8 18 14 28 19 31 22 27 29
  22863507.550    -8503628.917 7  -6574063.37649  22863509.3434
  24664345.503    14112744.793 6  11080874.88149  24664348.9364
  25866209.854    -1811645.015 5  -1362497.93849  25866214.3194
  23781640.565    -6319953.878 7  -4869130.39049  23781643.2724
  26070603.089     -316135.814 5   -385745.80049  26070608.8084
  25389272.433    10898202.472 6   8599996.75349  25389276.2064
  26751110.042    -1164368.156 3   -854834.74048  26751115.5384
  22687128.667    -4750394.078 7  -3627999.78649  22687129.7334
 95  2 19 19  4 30.0070000  0  8 18 14 28 19 31 22 27 29
  22861429.222    -8514550.829 7  -6582573.94749  22861431.0384
  24690414.362    14249736.938 6  11187621.93649  24690417.4214
  25863900.964    -1823778.970 5  -1371952.94349  25863905.5224
  23780399.886    -6326474.429 7  -4874211.32449  23780402.3114
  26061359.167     -364713.950 5   -423598.78249  26061365.5304
  25414418.753    11030349.971 6   8702968.75349  25414422.3154
  26743723.339    -1203179.597 3   -885077.37348  26743728.4134
  22695075.112    -4708637.623 7  -3595462.30149  22695076.3434
 95  2 19 19  5  0.0070000  0  8 18 14 28 19 31 22 27 29
  22859415.589    -8525133.319 7  -6590820.04249  22859417.1944
  24716535.831    14387004.745 6  11294583.79249  24716539.1714
  25861664.347    -1835533.055 5  -1381111.95349  25861668.7534
  23779199.144    -6332784.571 7  -4879128.30949  23779201.4764
  26052130.370     -413208.823 5   -461386.96949  26052135.3274
  25439617.308    11162769.425 6   8806152.67649  25439620.6244
  26736358.644    -1241886.579 3   -915238.56248  26736364.1164
  22703097.808    -4666475.048 7  -3562608.36049  22703099.1674
 95  2 19 19  5 30.0070000  0  8 18 14 28 19 31 22 27 29
  22857463.058    -8535393.185 7  -6598814.73449  22857464.7224
  24742705.604    14524528.576 6  11401745.14249  24742709.2374
  25859499.987    -1846907.494 5  -1389975.12149  25859504.6284
  23778035.870    -6338897.188 7  -4883891.38249  23778038.3664
  26042920.698     -461607.394 5   -499100.07649  26042926.7334
  25464869.144    11295465.283 6   8909551.97149  25464872.6014
  26729013.487    -1280490.267 4   -945319.24149  26729017.4254
  22711196.425    -4623918.608 7  -3529447.50849  22711197.7964
 95  2 19 19  6  0.0070000  0  7 18 14 28 19 31 22 29
  22855572.308    -8545329.443 7  -6606557.26549  22855573.8194
  24768920.979    14662293.587 6  11509094.43049  24768924.2494
  25857409.136    -1857893.930 5  -1398535.97649  25857413.3194
  23776914.081    -6344792.687 7  -4888485.26249  23776916.5194
  26033732.831     -509892.184 5   -536724.52349  26033737.9294
  25490171.073    11428429.276 6   9013160.19849  25490174.4724
  22719370.300    -4580964.570 7  -3495976.83749  22719371.4254
 95  2 19 19  6 30.0070000  0  8 18 14 28 19 31 22 27 29
  22853745.167    -8554931.371 7  -6614039.28549  22853746.4914
  24795179.542    14800283.524 6  11616618.97849  24795183.2454
  25855391.487    -1868491.833 5  -1406794.05449  25855396.3624
  23775837.425    -6350449.202 7  -4892892.92149  23775839.7694
  26024567.120     -558053.521 5   -574252.73749  26024572.4524
  25515525.620    11561666.902 6   9116981.63349  25515529.1834
  26714392.394      -37065.105 4
  22727619.042    -4537617.884 7  -3462200.21249  22727620.1674
 95  2 19 19  7  0.0070000  0  8 18 14 28 19 31 22 27 29
  22851985.565    -8564179.402 7  -6621245.54049  22851986.9364
  24821482.237    14938504.934 6  11724323.89149  24821486.1864
  25853451.190    -1878689.696 5  -1414740.40449  25853456.8624
  23774808.323    -6355858.007 7  -4897107.56549  23774810.8904
  26015429.315     -606073.320 5   -611670.69349  26015434.1084
  25540932.417    11695181.207 6   9221018.67149  25540936.4134
  26707121.065      -75277.452 4    -12890.16259  26707125.2494
  22735944.425    -4493866.180 7  -3428107.98849  22735945.5974
 95  2 19 19  7 30.0070000  0  7 18 14 28 19 31 22 29
  22850294.104    -8573066.360 7  -6628170.44249  22850295.5584
  24847828.737    15076956.673 6  11832208.27449  24847833.1084
  25851587.175    -1888486.185 5  -1422374.01949  25851592.6594
  23773826.886    -6361013.141 7  -4901124.54249  23773829.7574
  26006317.104     -653957.825 5   -648983.21449  26006322.1554
  25566390.964    11828964.214 6   9325265.08549  25566394.6904
  22744346.565    -4449713.208 7  -3393703.08449  22744347.5384
 95  2 19 19  8  0.0070000  0  8 18 14 28 19 31 22 27 29
  22848672.940    -8581586.527 7  -6634809.53049  22848674.4404
  24874220.589    15215647.835 6  11940279.23249  24874225.0774
  25849800.698    -1897879.237 5  -1429693.25449  25849804.4954
  23772894.917    -6365912.837 7  -4904942.48449  23772897.4014
  25997231.472     -701702.356 5   -686186.64849  25997237.0504
  25591897.729    11963003.965 6   9429711.56649  25591900.7294
  26692651.511      -36690.918 3
  22752825.417    -4405157.543 7  -3358984.39249  22752826.5544
 95  2 19 19  8 30.0070000  0  8 18 14 28 19 31 22 27 29
  22847119.675    -8589749.148 7  -6641170.02049  22847121.1754
  24900661.581    15354594.428 6  12048549.22149  24900665.8584
  25848088.714    -1906867.655 5  -1436697.19149  25848093.7294
  23772008.573    -6370569.330 7  -4908570.91549  23772011.3624
  25988171.151     -749314.004 5   -723286.56149  25988176.2024
  25617451.776    12097291.514 6   9534351.13549  25617455.6084
  26685447.847      -74543.722 3    -21620.98258  26685451.7724
  22761380.222    -4360200.171 7  -3323952.69349  22761381.3474
 95  2 19 19  9  0.0070000  0  8 18 14 28 19 31 22 27 29
  22845629.433    -8597578.908 7  -6647271.12849  22845630.9444
  24927153.542    15493811.300 6  12157029.82149  24927157.6324
  25846457.339    -1915447.577 5  -1443382.83949  25846461.8044
  23771166.347    -6374995.520 7  -4912019.88949  23771169.0424
  25979136.308     -796795.592 5   -760285.12249  25979141.5114
  25643050.909    12231819.358 6   9639177.94549  25643054.0974
  26678264.503     -112294.751 3    -51037.32849  26678269.7414
  22770013.292    -4314833.158 7  -3288601.78349  22770014.5344
 95  2 19 19  9 30.0070000  0  8 18 14 28 19 31 22 27 29
  22844202.917    -8605076.366 7  -6653113.30449  22844204.4524
  24953696.214    15633293.406 6  12265717.08549  24953700.1284
  25844902.440    -1923618.295 6  -1449749.61449  25844906.0384
  23770367.636    -6379192.957 7  -4915290.60149  23770370.1204
  25970124.651     -844153.435 5   -797187.22349  25970130.2884
  25668696.261    12366582.266 6   9744187.92649  25668699.6364
  26671100.956     -149939.687 3    -80371.00747  26671107.0854
  22778724.776    -4269056.222 7  -3252931.45849  22778725.9724
 95  2 19 19 10  0.0070000  0  8 18 14 28 19 31 22 27 29
  22842839.323    -8612242.021 7  -6658696.93049  22842840.8234
  24980288.448    15773034.232 6  12374605.95749  24980292.4684
  25843425.526    -1931378.784 5  -1455796.72049  25843429.5114
  23769610.190    -6383172.706 7  -4918391.69349  23769612.6864
  25961137.136     -891384.342 5   -833990.42949  25961141.9994
  25694382.620    12501565.336 6   9849369.44749  25694386.2534
  26663958.659     -187475.139 3   -109619.35947  26663963.9914
  22787514.604    -4222863.537 7  -3216937.17149  22787515.8234
 95  2 19 19 10 30.0070000  0  8 18 14 28 19 31 22 27 29
  22841537.956    -8619081.102 7  -6664026.07949  22841539.2924
  25006927.151    15913021.756 6  12483687.05949  25006931.1474
  25842026.792    -1938727.572 5  -1461523.00949  25842031.2334
  23768894.612    -6386931.549 7  -4921320.65149  23768897.2964
  25952170.503     -938497.402 5   -870701.82249  25952175.9054
  25720111.495    12636769.775 6   9954723.47149  25720115.2224
  26656834.698     -224906.882 3   -138786.85948  26656839.5384
  22796387.229    -4176238.797 7  -3180606.22149  22796388.5894
 95  2 19 19 11  0.0070000  0  8 18 14 28 19 31 22 27 29
  22840301.620    -8625578.548 7  -6669089.02749  22840302.8514
  25033610.706    16053242.872 6  12592950.17649  25033614.7374
  25840707.097    -1945658.483 5  -1466923.70349  25840711.3514
  23768222.019    -6390467.873 7  -4924076.21649  23768224.8194
  25943229.276     -985484.621 5   -907315.13349  25943235.1944
  25745884.784    12772209.247 6  10060260.64149  25745888.5934
  26649731.479     -262235.068 4   -167873.66749  26649735.5584
  22805343.690    -4129171.050 7  -3143930.06949  22805345.1794
 95  2 19 19 11 30.0070000  0  8 18 14 28 19 31 22 27 29
  22839135.245    -8631707.939 7  -6673865.17849  22839136.5344
  25060333.604    16193674.245 6  12702377.12649  25060337.7184
  25839469.136    -1952168.133 5  -1471996.12449  25839474.7844
  23767590.651    -6393784.351 7  -4926660.47749  23767593.3584
  25934313.722    -1032339.982 5   -943825.73149  25934318.2924
  25771703.089    12907883.888 6  10165981.06149  25771706.6514
  26642648.050     -299459.184 5   -196879.41349  26642652.0464
  22814382.956    -4081668.871 7  -3106915.39649  22814384.3514
 95  2 19 19 12  0.0070000  0  8 18 14 28 19 31 22 27 29
  22838038.925    -8637469.863 7  -6678354.99149  22838040.0384
  25087096.722    16334310.520 6  12811963.73749  25087100.4014
  25838310.839    -1958248.853 5  -1476734.30949  25838316.1834
  23767002.636    -6396874.058 7  -4929068.03149  23767005.2844
  25925424.870    -1079044.015 5   -980218.39349  25925428.3864
  25797568.175    13043804.119 6  10271892.84449  25797571.8194
  26635583.870     -336580.579 5   -225805.12949  26635587.8784
  22823503.409    -4033740.923 7  -3069568.95749  22823504.8274
 95  2 19 19 12 30.0070000  0  8 18 14 28 19 31 22 27 29
  22837012.636    -8642861.493 7  -6682556.26649  22837014.0194
  25113897.503    16475148.925 6  12921707.86249  25113900.7964
  25837234.042    -1963908.807 5  -1481144.60949  25837238.5074
  23766457.253    -6399743.328 7  -4931303.81749  23766459.7494
  25916565.886    -1125600.668 5  -1016496.22049  25916570.9364
  25823479.636    13179972.895 6  10377998.30349  25823483.6794
  26628536.503     -373616.548 5   -254664.27649  26628542.0464
  22832701.597    -3985405.000 7  -3031904.61249  22832703.1554
 95  2 19 19 13  0.0070000  0  8 18 14 28 19 31 22 27 29
  22836060.597    -8647866.095 7  -6686455.94749  22836061.9094
  25140734.472    16616180.073 6  13031602.19449  25140737.1084
  25836237.183    -1969147.621 5  -1485226.77449  25836243.3584
  23765952.190    -6402395.800 7  -4933370.65749  23765954.8974
  25907735.651    -1172001.161 5  -1052652.32849  25907741.9794
  25849440.183    13316394.103 6  10484300.45949  25849443.6164
  26621507.956     -410545.861 4   -283440.24148  26621513.8974
  22841973.479    -3936679.324 7  -2993936.57049  22841974.9564
 95  2 19 19 13 30.0070000  0  8 18 14 28 19 31 22 27 29
  22835181.581    -8652483.074 7  -6690053.59449  22835183.1044
  25167609.167    16757407.248 6  13141649.24749  25167612.6244
  25835320.737    -1973967.505 5  -1488982.49149  25835326.6084
  23765490.683    -6404819.891 7  -4935259.54649  23765493.5304
  25898937.753    -1218235.684 5  -1088679.17849  25898943.8004
  25875444.089    13453047.517 6  10590783.55049  25875447.5464
  26614503.558     -447359.930 5   -312126.48548  26614508.9484
  22851319.987    -3887565.039 7  -2955665.71149  22851321.5114
 95  2 19 19 14  0.0070000  0  8 18 14 28 19 31 22 27 29
  22834375.058    -8656721.407 7  -6693356.18849  22834376.6284
  25194524.401    16898849.623 6  13251863.99049  25194528.8434
  25834483.300    -1978368.577 5  -1492411.85049  25834487.9764
  23765075.198    -6407002.050 7  -4936959.91849  23765078.0584
  25890172.104    -1264301.329 5  -1124574.43449  25890177.9294
  25901491.183    13589920.953 6  10697438.09349  25901494.6634
  26607516.917     -484070.115 5   -340731.74949  26607522.0384
  22860740.862    -3838057.579 7  -2917088.49249  22860742.4214
 95  2 19 19 14 30.0070000  0  8 18 14 28 19 31 22 27 29
  22833642.354    -8660572.409 7  -6696356.96749  22833643.8314
  25221483.198    17040521.083 6  13362257.23049  25221487.7334
  25833726.159    -1982346.963 5  -1495511.86549  25833730.7414
  23764707.323    -6408936.306 7  -4938467.11249  23764710.1594
  25881437.362    -1310200.016 5  -1160339.56049  25881443.1984
  25927577.870    13727010.704 6  10804261.18849  25927581.6904
  26600553.339     -520668.687 5   -369250.04149  26600556.5154
  22870243.198    -3788123.649 7  -2878178.95149  22870244.8864
 95  2 19 19 15  0.0070000  0  8 18 14 28 19 31 22 27 29
  22832980.776    -8664049.714 7  -6699066.55549  22832982.3004
  25248485.026    17182415.139 6  13472823.92049  25248489.3624
  25833050.698    -1985894.935 5  -1498276.41849  25833054.9174
  23764387.565    -6410618.571 7  -4939777.95649  23764390.0504
  25872737.050    -1355921.519 5  -1195966.62849  25872742.9564
  25953704.808    13864306.713 6  10911245.00449  25953707.7614
  26593611.292     -557146.036 5   -397673.86449  26593617.1164
  22879828.987    -3737748.810 7  -2838925.84749  22879830.4524
 95  2 19 19 15 30.0070000  0  8 18 14 28 19 31 22 27 29
  22832388.034    -8667164.574 7  -6701493.72049  22832389.5114
  25275531.136    17324540.230 6  13583570.64549  25275535.5774
  25832457.526    -1989011.255 5  -1500704.91642  25832460.3864
  23764111.995    -6412066.428 7  -4940906.15349  23764114.3744
  25864069.854    -1401468.558 5  -1231457.78649  25864075.0224
  25979867.175    14001789.966 6  11018374.71749  25979870.1404
  26586687.956     -593525.934 5   -426021.76349  26586692.7844
  22889499.714    -3686929.267 7  -2799326.22249  22889501.1674
 95  2 19 19 16  0.0070000  0  8 18 14 28 19 31 22 27 29
  22831862.112    -8669928.790 7  -6703647.65649  22831863.6014
  25302616.995    17466876.942 6  13694482.26549  25302621.0854
  25831946.464    -1991698.888 5  -1502798.84549  25831951.5034
  23763875.394    -6413307.502 7  -4941873.20849  23763877.8904
  25855434.081    -1446851.854 5  -1266821.29349  25855439.8234
  26006066.104    14139464.933 6  11125653.83049  26006069.0224
  26579784.237     -629806.921 4   -454292.60849  26579788.8084
  22899252.425    -3635677.929 7  -2759390.13249  22899253.9604
 95  2 19 19 16 30.0070000  0  8 18 14 28 19 31 22 27 29
  22831402.776    -8672341.642 7  -6705527.79549  22831404.2884
  25329739.526    17609404.379 6  13805542.53049  25329742.8194
  25831517.011    -1993956.114 6  -1504557.72349  25831521.9214
  23763674.870    -6414362.242 7  -4942695.06549  23763677.6364
  25846829.901    -1492062.736 5  -1302050.48149  25846835.7494
  26032300.620    14277326.350 6  11233078.21849  26032303.9954
  26572902.019     -665973.606 4   -482474.42948  26572906.5074
  22909086.784    -3583996.809 7  -2719119.14249  22909088.3194
 95  2 19 19 17  0.0070000  0  8 18 14 28 19 31 22 27 29
  22831009.144    -8674410.965 7  -6707140.26449  22831010.4684
  25356894.925    17752109.463 6  13916741.19649  25356898.6984
  25831170.573    -1995779.203 6  -1505978.25649  25831175.0974
  23763507.761    -6415241.059 7  -4943379.84949  23763510.2574
  25838259.097    -1537104.181 5  -1337147.67049  25838264.9794
  26058568.761    14415370.566 6  11340645.04049  26058572.6754
  26566040.136     -702030.950 4   -510570.99247  26566045.2224
  22918999.003    -3531908.550 7  -2678530.90449  22919000.6084
 95  2 19 19 17 30.0070000  0  7 18 14 28 19 31 22 29
  22830680.503    -8676138.230 7  -6708486.18349  22830681.9444
  25384081.308    17894971.302 6  14028062.00049  25384085.5154
  25830904.378    -1997179.708 6  -1507069.49649  25830907.9644
  23763371.808    -6415954.504 7  -4943935.77049  23763374.4914
  25829715.636    -1581997.705 5  -1372129.56549  25829721.2724
  26084870.292    14553586.602 6  11448345.77549  26084873.6444
  22928984.628    -3479433.786 7  -2637641.49249  22928986.3974
 95  2 19 19 18  0.0070000  0  8 18 14 28 19 31 22 27 29
  22830414.550    -8677534.086 7  -6709573.87049  22830416.1204
  25411295.456    18037983.038 6  14139499.61349  25411298.9014
  25830716.995    -1998158.841 6  -1507832.40349  25830721.8234
  23763269.948    -6416491.153 7  -4944353.92949  23763272.7724
  25821201.151    -1626743.815 5  -1406996.55249  25821207.7614
  26111203.339    14691965.602 6  11556173.47649  26111207.2294
  26552375.487      -34654.696 4   -566524.97848  26552380.1984
  22939044.026    -3426571.380 7  -2596450.02349  22939045.7144
 95  2 19 19 18 30.0070000  0  8 18 14 28 19 31 22 27 29
  22830215.081    -8678581.552 7  -6710390.08249  22830216.8154
  25438540.737    18181157.784 5  14251064.24449  25438546.0224
  25830612.784    -1998703.897 6  -1508257.05449  25830617.3314
  23763205.292    -6416831.080 7  -4944618.80949  23763207.8474
  25812715.589    -1671331.338 5  -1441740.06649  25812721.3664
  26137568.409    14830515.944 6  11664134.68349  26137572.3004
  26545572.870      -70405.254 4   -594382.52849  26545577.4524
  22949180.198    -3373305.962 7  -2554944.51949  22949182.0504
 95  2 19 19 19  0.0070000  0  8 18 14 28 19 31 22 27 29
  22830085.198    -8679265.451 7  -6710922.98849  22830086.9094
  25465818.597    18324507.229 5  14362764.99349  25465822.5344
  25830593.440    -1998808.109 6  -1508338.20749  25830598.2334
  23763181.972    -6416951.374 7  -4944712.53649  23763184.4914
  25804261.831    -1715757.883 5  -1476358.08549  25804267.6324
  26163969.823    14969259.521 6  11772246.46449  26163973.4564
  26538788.370     -106057.525 5   -622163.46349  26538793.5264
  22959394.604    -3319628.310 7  -2513117.79849  22959396.2454
 95  2 19 19 19 30.0080000  0  8 18 14 28 19 31 22 27 29
  22830026.992    -8679572.393 7  -6711162.16749  22830028.5744
  25493132.625    18468039.232 5  14474607.99749  25493137.1724
  25830657.836    -1998470.597 6  -1508075.13049  25830661.7734
  23763201.883    -6416848.147 7  -4944632.09449  23763204.5904
  25795842.898    -1760001.211 5  -1510833.33049  25795847.9264
  26190410.133    15108203.629 5  11880514.50949  26190414.7384
  26532023.383     -141606.341 4   -649863.82349  26532028.2694
  22969689.633    -3265527.362 7  -2470961.23349  22969691.2034
 95  2 19 19 20  0.0080000  0  8 18 14 28 19 31 22 27 29
  22830044.219    -8679480.786 7  -6711090.78549  22830045.7894
  25520479.109    18611746.370 6  14586587.46449  25520483.5394
  25830807.625    -1997682.208 6  -1507460.74149  25830811.6214
  23763265.609    -6416512.059 7  -4944370.19849  23763268.4104
  25787464.406    -1804031.901 5  -1545142.90049  25787469.7384
  26216889.687    15247348.192 6  11988938.75849  26216893.1564
  26525278.609     -177050.906 5   -677482.88549  26525284.1764
  22980068.609    -3210987.185 7  -2428462.41149  22980070.0624
 95  2 19 19 20 30.0080000  0  8 18 14 28 19 31 22 27 29
  22830140.930    -8678973.402 7  -6710695.44249  22830142.4414
  25547855.562    18755609.987 5  14698688.87649  25547859.6874
  25831042.351    -1996447.561 6  -1506498.62449  25831046.6414
  23763372.945    -6415948.921 7  -4943931.35149  23763375.5354
  25779126.047    -1847847.313 5  -1579284.69349  25779132.0004
  26243406.726    15386702.383 5  12097526.36049  26243410.7344
  26518553.883     -212393.701 5   -705022.73149  26518558.3834
  22990530.117    -3156010.802 7  -2385623.68349  22990531.6054
 95  2 19 19 21  0.0080000  0  8 18 14 28 19 31 22 27 29
  22830317.656    -8678045.478 7  -6709972.35549  22830318.9924
  25575264.273    18899639.351 6  14810919.41449  25575268.5514
  25831363.625    -1994758.500 6  -1505182.42949  25831367.3874
  23763524.930    -6415151.407 7  -4943309.94049  23763527.2384
  25770831.594    -1891434.042 5  -1613248.32549  25770836.7504
  26269964.156    15526258.348 5  12206271.16749  26269968.0354
  26511847.695     -247632.079 5   -732481.15849  26511853.0044
  23001075.797    -3100592.634 7  -2342440.71349  23001077.3554
 95  2 19 19 21 30.0080000  0  8 18 14 28 19 31 22 27 29
  22830572.883    -8676703.838 7  -6708926.92449  22830574.1134
  25602700.539    19043822.859 5  14923270.09649  25602705.8484
  25831770.914    -1992618.248 6  -1503514.64649  25831774.7114
  23763717.805    -6414138.803 7  -4942520.89949  23763720.2774
  25762580.711    -1934794.021 5  -1647035.25249  25762585.6914
  26296552.226    15665982.153 5  12315146.77949  26296556.6334
  26505160.102     -282771.840 4   -759862.74849  26505164.9414
  23011703.656    -3044742.792 7  -2298921.37649  23011705.3914
 95  2 19 19 22  0.0080000  0  8 18 14 28 19 31 22 27 29
  22830908.172    -8674941.552 7  -6707553.71649  22830909.5314
  25630167.961    19188163.341 5  15035743.06349  25630173.4344
  25832265.000    -1990019.522 6  -1501489.60649  25832269.0434
  23763951.797    -6412906.664 7  -4941560.79149  23763954.2344
  25754370.328    -1977939.929 5  -1680655.37549  25754374.9574
  26323170.820    15805860.068 5  12424142.47249  26323175.6254
  26498491.133     -317816.699 4   -787170.39349  26498496.0434
  23022412.859    -2988467.422 7  -2255070.46249  23022414.4764
 95  2 19 19 22 30.0080000  0  8 18 14 28 19 31 22 27 29
  22831319.453    -8672778.778 7  -6705868.43949  22831320.9064
  25657665.461    19332669.642 5  15148345.25149  25657671.1094
  25832847.687    -1986962.003 6  -1499107.05849  25832851.4844
  23764225.336    -6411469.303 7  -4940440.76849  23764227.5744
  25746197.391    -2020888.523 5  -1714121.71349  25746202.9694
  26349815.148    15945878.080 5  12533247.33649  26349818.9804
  26491839.844     -352773.076 5   -814409.07249  26491844.4844
  23033198.852    -2931785.477 7  -2210902.73949  23033200.5624
 95  2 19 19 23  0.0080000  0  8 18 14 28 19 31 22 27 29
  22831805.594    -8670225.649 7  -6703878.98649  22831807.1294
  25685197.687    19477350.527 5  15261083.46949  25685203.2894
  25833516.766    -1983444.871 6  -1496366.38049  25833520.2234
  23764536.656    -6409833.850 7  -4939166.38149  23764539.0594
  25738058.766    -2063654.699 5  -1747445.91649  25738064.5664
  26376483.891    16086023.003 5  12642451.09549  26376488.4264
  26485206.273     -387634.630 5   -841573.85549  26485209.0864
  23044061.531    -2874702.552 7  -2166422.56049  23044063.0904
 95  2 19 19 23 30.0080000  0  8 18 14 28 19 31 22 27 29
  22832366.328    -8667276.278 7  -6701580.76849  22832367.7694
  25712759.594    19622185.040 5  15373941.39649  25712765.3014
  25834272.852    -1979470.828 6  -1493269.67049  25834276.8944
  23764882.953    -6408012.695 7  -4937747.29549  23764885.5434
  25729954.992    -2106241.229 5  -1780630.13149  25729960.0434
  26403174.656    16226283.813 5  12751745.13549  26403179.5314
  26478589.812     -422398.030 4   -868662.17649  26478595.9184
  23055000.008    -2817218.955 7  -2121630.16849  23055001.5314
 95  2 19 19 24  0.0080000  0  8 18 14 28 19 31 22 27 29
  22833001.891    -8663940.200 8  -6698981.22149  22833003.0744
  25740347.812    19767161.668 5  15486910.06749  25740353.7664
  25835117.562    -1975036.626 6  -1489814.38949  25835121.3244
  23765266.203    -6405999.187 7  -4936178.32249  23765268.9104
  25721884.203    -2148650.535 5  -1813676.23649  25721889.2544
  26429891.594    16366682.344 5  12861146.53049  26429895.8714
  26471993.250     -457064.620 5   -895675.04849  26471997.5514
  23066016.344    -2759327.067 7  -2076519.62949  23066017.8794
 95  2 19 19 24 30.0080000  0  8 18 14 28 19 31 22 27 29
  22833712.008    -8660208.511 7  -6696073.40949  22833713.3204
  25767963.289    19912282.370 5  15599991.01649  25767968.0234
  25836049.648    -1970129.597 6  -1485990.66149  25836053.1764
  23765688.211    -6403781.202 7  -4934450.02149  23765690.6724
  25713852.625    -2190857.475 5  -1846564.67049  25713857.4654
  26456639.836    16507245.354 5  12970676.05549  26456643.8444
  26465418.461     -491616.844 5   -922598.85149  26465423.7234
  23077116.617    -2700995.042 7  -2031066.13049  23077118.3634
 95  2 19 19 25  0.0080000  0  8 18 14 28 19 31 22 27 29
  22834497.328    -8656080.210 7  -6692856.55249  22834498.8874
  25795602.305    20057524.995 5  15713166.94549  25795607.2734
  25837072.195    -1964756.471 6  -1481803.74849  25837075.9924
  23766149.656    -6401355.806 7  -4932560.10549  23766152.2114
  25705862.547    -2232847.599 5  -1879284.14749  25705867.5864
  26483419.680    16647971.802 5  13080332.95149  26483423.6994
  26458863.461     -526062.519 5   -949439.57449  26458867.9494
  23088303.133    -2642209.611 7  -1985259.32749  23088304.8444
 95  2 19 19 25 30.0080000  0  8 18 14 28 19 31 22 27 29
  22835359.703    -8651549.294 7  -6689325.96449  22835361.1914
  25823263.422    20202883.177 5  15826432.93949  25823268.6484
  25838184.742    -1958914.325 6  -1477251.36349  25838187.7194
  23766650.156    -6398725.912 7  -4930510.82949  23766652.6174
  25697916.141    -2274606.982 5  -1911823.82749  25697921.2154
  26510231.312    16788869.518 5  13190123.27149  26510235.7544
  26452324.516     -560424.112 4   -976214.79949  26452330.2234
  23099575.555    -2582974.007 7  -1939101.74549  23099577.0904
 95  2 19 19 26  0.0080000  0  8 18 14 28 19 31 22 27 29
  22836299.539    -8646607.669 7  -6685475.34249  22836301.4024
  25850948.289    20348370.774 5  15939799.74849  25850953.1874
  25839387.836    -1952589.922 6  -1472323.19649  25839391.8794
  23767193.383    -6395872.386 7  -4928287.29349  23767196.0554
  25690015.172    -2316129.272 6  -1944178.76549  25690019.6844
  26537079.219    16929955.308 5  13300060.13149  26537084.4224
  26445803.047     -594694.601 4  -1002919.03549  26445808.1564
  23110933.781    -2523286.204 7  -1892591.79349  23110935.4224
 95  2 19 19 26 30.0080000  0  8 18 14 28 19 31 22 27 29
  22837321.680    -8641237.153 7  -6681290.51949  22837323.4144
  25878661.242    20493998.128 5  16053275.46949  25878665.7544
  25840683.648    -1945781.317 6  -1467017.71649  25840687.5864
  23767777.750    -6392801.374 7  -4925894.29049  23767780.4224
  25682161.648    -2357397.184 5  -1976335.49849  25682165.5514
  26563959.055    17071209.250 5  13410128.04149  26563963.7074
  26439299.117     -628873.097 5  -1029551.57449  26439304.5194
  23122375.961    -2463156.718 7  -1845737.68049  23122377.6724
 95  2 19 19 27  0.0080000  0  8 18 14 28 19 31 22 27 29
  22838426.305    -8635433.813 7  -6676768.43849  22838428.0744
  25906399.289    20639761.240 5  16166856.97349  25906404.4924
  25842072.437    -1938483.105 6  -1461330.75149  25842076.4344
  23768402.695    -6389516.148 7  -4923334.36849  23768405.3204
  25674356.805    -2398411.874 5  -2008294.90749  25674360.9654
  26590869.086    17212622.151 5  13520319.83449  26590873.5164
  26432814.883     -662952.128 5  -1056106.62349  26432819.7584
  23133898.844    -2402605.153 7  -1798554.67549  23133900.5314
 95  2 19 19 27 30.0080000  0  8 18 14 28 19 31 22 27 29
  22839609.797    -8629214.279 7  -6671922.04749  22839611.4614
  25934158.586    20785639.595 5  16280528.27949  25934164.0474
  25843552.562    -1930704.059 6  -1455269.08049  25843556.6524
  23769065.187    -6386036.212 7  -4920622.72649  23769067.6254
  25666596.633    -2439188.948 6  -2040069.16649  25666600.5124
  26617805.867    17354177.520 5  13630622.60949  26617810.1804
  26426347.891     -696935.043 5  -1082586.78249  26426351.2664
  23145495.820    -2341662.157 7  -1751066.65449  23145497.4964
 95  2 19 19 28  0.0080000  0  8 18 14 28 19 31 22 27 29
  22840873.008    -8622574.286 7  -6666748.02349  22840874.5784
  25961939.891    20931633.681 5  16394289.75549  25961945.4694
  25845126.812    -1922429.445 6  -1448821.26749  25845130.5394
  23769768.969    -6382339.227 7  -4917741.95349  23769771.2424
  25658886.828    -2479706.776 6  -2071641.42149  25658891.2814
  26644773.305    17495888.242 5  13741046.42749  26644778.7664
  26419905.062     -730790.439 5  -1108967.55049  26419908.5664
  23157173.773    -2280294.847 7  -1703247.99449  23157175.3444
 95  2 19 19 28 30.0080000  0  8 18 14 28 19 31 22 27 29
  22842215.469    -8615520.179 7  -6661251.31949  22842217.0044
  25989743.773    21077739.706 5  16508138.46749  25989748.8244
  25846796.258    -1913658.633 6  -1441986.81449  25846800.2664
  23770512.039    -6378432.934 7  -4914698.08349  23770514.2544
  25651228.227    -2519949.619 5  -2102999.40049  25651233.1254
  26671770.555    17637758.035 5  13851594.22049  26671774.9734
  26413486.281     -764517.641 5  -1135248.46149  26413490.7114
  23168935.039    -2218488.541 7  -1655087.26049  23168936.4804
 95  2 19 19 29  0.0080000  0  8 18 14 28 19 31 22 27 29
  22843635.992    -8608055.498 7  -6655434.68249  22843637.7154
  26017567.172    21223953.842 5  16622071.41649  26017573.1484
  25848561.383    -1904379.685 6  -1434756.39949  25848565.1914
  23771298.344    -6374300.236 7  -4911477.79249  23771300.9574
  25643624.750    -2559911.660 6  -2134138.57849  25643628.3944
  26698799.391    17779797.043 5  13962273.87949  26698803.8554
  26407096.133     -798098.809 5  -1161415.54149  26407100.9374
  23180783.844    -2156221.869 7  -1606567.80049  23180785.1334
 95  2 19 19 29 30.0080000  0  8 18 14 28 19 31 22 27 29
  22845133.617    -8600186.191 7  -6649302.75049  22845135.3754
  26045414.000    21370287.185 5  16736097.22849  26045419.6024
  25850423.648    -1894594.456 6  -1427131.47549  25850427.6914
  23772127.961    -6369938.143 7  -4908078.74949  23772130.5864
  25636073.961    -2599588.577 6  -2165055.57949  25636077.7584
  26725858.672    17921995.752 5  14073077.98549  26725862.6334
  26400728.687     -831555.972 5  -1187486.01249  26400733.2464
  23192724.617    -2093474.350 7  -1557673.65649  23192725.8124
 95  2 19 19 30  0.0080000  0  8 18 14 28 19 31 22 27 29
  22846709.297    -8591904.917 7  -6642849.80649  22846710.9964
  26073285.742    21516754.115 5  16850227.19549  26073289.9024
  25852381.555    -1884303.884 6  -1419112.80149  25852385.5984
  23773003.312    -6365341.306 7  -4904496.78949  23773005.6684
  25628578.125    -2638977.188 6  -2195747.92249  25628582.3204
  26752946.336    18064338.773 5  14183994.53449  26752951.1644
  26394384.266     -864899.625 5  -1213468.03749  26394389.6334
  23204757.578    -2030239.871 7  -1508400.06849  23204759.0784
 95  2 19 19 30 30.0080000  0  8 18 14 28 19 31 22 27 29
  22848362.016    -8583219.823 7  -6636082.20049  22848363.5624
  26101183.805    21663358.821 5  16964464.48049  26101189.8054
  25854433.711    -1873520.652 6  -1410710.21149  25854437.6604
  23773917.547    -6360536.819 7  -4900753.02849  23773919.7624
  25621134.062    -2678092.128 5  -2226227.02749  25621139.3244
  26780054.023    18206791.727 5  14294996.74649  26780059.1214
  26388056.742     -898148.455 5  -1239376.15649  26388061.9454
  23216877.851    -1966548.000 7  -1458770.06249  23216879.5624
 95  2 19 19 31  0.0080000  0  8 18 14 28 19 31 22 27 29
  22850095.070    -8574113.617 7  -6628986.45649  22850096.6994
  26129110.352    21810111.679 5  17078817.19449  26129115.8484
  25856581.375    -1862234.514 6  -1401915.76349  25856584.4344
  23774873.086    -6355513.707 7  -4896838.91749  23774875.3364
  25613744.852    -2716925.983 6  -2256487.08849  25613749.5864
  26807181.945    18349347.495 5  14406079.03949  26807186.3284
  26381748.687     -931298.859 5  -1265207.57549  26381752.4264
  23229086.500    -1902391.537 7  -1408778.04249  23229087.8484
 95  2 19 19 31 30.0080000  0  8 18 14 28 19 31 22 27 29
  22851910.656    -8564570.948 7  -6621550.61049  22851912.1334
  26157065.000    21957016.268 5  17193288.15649  26157069.3594
  25858824.070    -1850450.404 6  -1392733.28149  25858826.9774
  23775870.094    -6350276.290 7  -4892757.80149  23775872.3554
  25606407.180    -2755484.198 6  -2286532.36049  25606411.4694
  26834328.375    18492002.432 5  14517238.64649  26834332.8634
  26375455.875     -964369.026 5  -1290976.50349  26375459.6134
  23241380.539    -1837785.769 7  -1358435.91049  23241381.7694
 95  2 19 19 32  0.0080000  0  8 18 14 28 19 31 22 27 29
  22853808.242    -8554600.892 7  -6613781.73349  22853809.8714
  26185043.187    22104040.888 5  17307852.67749  26185048.3554
  25861158.469    -1838181.358 6  -1383172.91749  25861162.3484
  23776904.867    -6344838.772 7  -4888520.77849  23776907.3054
  25599120.469    -2793779.345 6  -2316372.64649  25599124.3944
  26861491.547    18634745.588 5  14628466.98149  26861495.4844
  26369181.047     -997346.302 5  -1316673.03749  26369184.7154
  23253753.664    -1772765.105 7  -1307770.48549  23253754.8484
 95  2 19 19 32 30.0080000  0  8 18 14 28 19 31 22 27 29
  22855788.773    -8544193.160 7  -6605671.81149  22855790.1914
  26213042.375    22251176.967 5  17422504.02449  26213047.4964
  25863587.359    -1825416.538 6  -1373226.25349  25863590.9224
  23777977.922    -6339199.066 7  -4884126.19149  23777980.1374
  25591883.234    -2831807.676 6  -2346005.02249  25591887.6874
  26888676.289    18777604.827 5  14739785.76549  26888680.8944
  26362925.891    -1030213.633 5  -1342283.91349  26362930.6374
  23266208.742    -1707313.824 7  -1256769.51149  23266210.1484
 95  2 19 19 33  0.0080000  0  8 18 14 28 19 31 22 27 29
  22857853.703    -8533342.003 7  -6597216.36349  22857855.2034
  26241059.328    22398404.940 5  17537226.94649  26241065.0004
  25866111.086    -1812155.260 6  -1362892.73649  25866114.5434
  23779091.641    -6333345.903 7  -4879565.28749  23779093.9374
  25584696.047    -2869576.123 6  -2375434.89449  25584699.6914
  26915887.320    18920598.641 5  14851209.41249  26915892.2544
  26356690.617    -1062978.399 5  -1367814.84049  26356695.4454
  23278745.891    -1641431.199 7  -1205432.42849  23278747.1444
 95  2 19 19 33 30.0080000  0  8 18 14 28 19 31 22 27 29
  22860002.226    -8522049.456 7  -6588416.97949  22860003.6684
  26269092.766    22545726.236 5  17652022.63649  26269098.1804
  25868731.305    -1798385.891 6  -1352163.29849  25868734.5984
  23780247.117    -6327274.187 7  -4874834.07649  23780249.6134
  25577559.727    -2907078.653 6  -2404657.53249  25577563.6414
  26943129.930    19063757.225 5  14962761.46249  26943134.5824
  26350480.922    -1095617.906 5  -1393248.19849  26350484.7424
  23291364.281    -1575120.600 7  -1153761.85149  23291365.6294
 95  2 19 19 34  0.0080000  0  8 18 14 28 19 31 22 27 29
  22862232.695    -8510330.097 7  -6579285.01149  22862234.2424
  26297142.320    22693125.905 5  17766879.33849  26297148.4374
  25871447.672    -1784107.794 6  -1341037.46149  25871451.1414
  23781442.125    -6320993.955 7  -4869940.38949  23781444.6334
  25570474.312    -2944310.061 6  -2433668.94149  25570479.0944
  26970405.148    19207085.312 5  15074445.59949  26970409.5194
  26344293.125    -1128129.265 5  -1418581.69449  26344297.3794
  23304067.352    -1508363.843 7  -1101743.62349  23304068.8524
 95  2 19 19 34 30.0080000  0  8 18 14 28 19 31 22 27 29
  22864544.008    -8498183.115 7  -6569819.83149  22864545.6254
  26325206.437    22840603.353 5  17881796.68949  26325212.2504
  25874260.758    -1769323.656 6  -1329517.31649  25874265.4454
  23782674.195    -6314519.075 7  -4864895.02649  23782676.5394
  25563440.578    -2981270.278 6  -2462469.00349  25563444.8444
  26997708.859    19350575.460 5  15186255.99949  26997714.0164
  26338125.250    -1160542.995 5  -1443839.09649  26338128.8714
  23316856.016    -1441159.841 7  -1049376.89249  23316857.5394
 95  2 19 19 35  0.0080000  0  8 18 14 28 19 31 22 27 29
  22866937.680    -8485604.828 7  -6560018.57649  22866938.9104
  26353286.477    22988163.261 5  17996778.28449  26353291.8914
  25877171.211    -1754030.466 6  -1317600.48549  25877174.4694
  23783943.984    -6307845.784 7  -4859695.06149  23783946.4694
  25556460.758    -3017950.269 6  -2491050.72549  25556465.1054
  27025039.094    19494197.191 5  15298168.90449  27025042.7034
  26331976.852    -1192854.499 5  -1469016.85149  26331981.8324
  23329726.937    -1373523.618 7   -996673.37749  23329728.2384
 95  2 19 19 35 30.0080000  0  8 18 14 28 19 31 22 27 29
  22869414.664    -8472589.046 7  -6549876.41249  22869415.6954
  26381382.312    23135807.655 5  18111825.76349  26381387.8094
  25880179.305    -1738226.399 6  -1305285.59649  25880181.8364
  23785249.867    -6300984.210 7  -4854348.37849  23785252.3054
  25549537.180    -3054337.384 6  -2519404.23649  25549541.6214
  27052389.406    19637920.934 5  15410161.32049  27052393.9884
  26325846.500    -1225066.004 5  -1494116.70949  26325850.6014
  23342681.242    -1305448.782 7   -943628.07549  23342682.3444
 95  2 19 19 36  0.0080000  0  8 18 14 28 19 31 22 27 29
  22871979.016    -8459113.989 7  -6539376.37549  22871980.2114
  26409494.922    23283541.667 5  18226942.98049  26409499.7624
  25883285.609    -1721903.754 6  -1292566.61449  25883289.2774
  23786592.219    -6293930.592 7  -4848852.04749  23786594.7624
  25542671.898    -3090412.158 6  -2547514.36449  25542676.2694
  27079754.203    19781720.208 5  15522212.58649  27079759.2074
  26319733.234    -1257193.529 5  -1519151.08949  26319737.5944
  23355722.008    -1236918.930 7   -890228.21449  23355723.1804
 95  2 19 19 36 30.0080000  0  8 18 14 28 19 31 22 27 29
  22874628.758    -8445188.685 7  -6528525.48849  22874630.1874
  26437623.570    23431359.939 5  18342125.90949  26437628.9374
  25886488.492    -1705067.908 6  -1279447.74649  25886492.2074
  23787970.320    -6286688.411 7  -4843208.78749  23787972.9574
  25535865.352    -3126178.492 6  -2575384.16149  25535869.8984
  27107128.312    19925571.994 5  15634304.79049  27107132.7664
  26313635.164    -1289239.591 5  -1544122.02849  26313639.0084
  23368846.055    -1167952.303 7   -836488.00949  23368847.1214
 95  2 19 19 37  0.0080000  0  8 18 14 28 19 31 22 27 29
  22877366.023    -8430805.047 7  -6517317.45949  22877367.2194
  26465769.172    23579259.486 5  18457372.17249  26465775.5124
  25889793.242    -1687705.268 6  -1265918.38749  25889796.9224
  23789390.266    -6279225.311 7  -4837393.38349  23789392.8794
  25529122.070    -3161617.022 6  -2602998.51649  25529126.1484
  27134515.148    20069492.756 5  15746450.73549  27134520.8444
  26307555.516    -1321187.022 5  -1569016.11549  26307559.0434
  23382056.461    -1098530.509 7   -782393.13349  23382057.4574
 95  2 19 19 37 30.0080000  0  8 18 14 28 19 31 22 27 29
  22880190.867    -8415961.057 8  -6505750.71849  22880192.3324
  26493925.469    23727225.142 5  18572669.95049  26493931.9374
  25893197.336    -1669813.051 6  -1251976.36349  25893200.3714
  23790854.703    -6271532.118 7  -4831398.68949  23790857.0354
  25522442.266    -3196721.901 6  -2630352.89249  25522446.2384
  27161919.898    20213509.330 5  15858671.34349  27161924.2114
  26301492.242    -1353047.619 5  -1593842.50749  26301496.8834
  23395356.695    -1028637.007 7   -727930.68749  23395357.9614
 95  2 19 19 38  0.0080000  0  8 18 14 28 19 31 22 27 29
  22883104.023    -8400651.093 8  -6493820.88049  22883105.5004
  26522096.539    23875260.119 5  18688021.70449  26522102.4344
  25896704.578    -1651385.913 6  -1237617.52049  25896708.0354
  23792366.687    -6263585.980 7  -4825206.89749  23792368.8444
  25515824.828    -3231492.254 6  -2657446.59249  25515828.5664
  27189347.687    20357643.987 4  15970983.95749  27189353.0664
  26295449.719    -1384800.863 5  -1618585.25749  26295453.8204
  23408745.555     -958277.168 7   -673104.86949  23408746.7264
 95  2 19 19 38 30.0080000  0  8 18 14 28 19 31 22 27 29
  22886108.125    -8384864.674 7  -6481519.78149  22886109.6954
  26550279.250    24023362.419 5  18803425.93949  26550284.8754
  25900314.016    -1632416.012 6  -1222835.75249  25900316.7934
  23793931.406    -6255363.298 7  -4818799.62349  23793933.4924
  25509271.953    -3265929.134 6  -2684280.45649  25509276.1134
  27216802.742    20501922.087 4  16083408.32448  27216808.5904
  26289433.312    -1416418.646 5  -1643222.43549  26289438.2464
  23422223.687     -887449.109 7   -617914.20549  23422225.2114
 95  2 19 19 39  0.0080000  0  8 18 14 28 19 31 22 27 29
  22889205.922    -8368585.283 7  -6468834.54649  22889207.3874
  26578472.000    24171517.981 5  18918871.71549  26578478.0354
  25904026.851    -1612904.845 6  -1207632.22349  25904029.5704
  23795546.492    -6246875.177 7  -4812185.50449  23795548.7664
  25502781.133    -3300039.399 6  -2710859.79449  25502785.1644
  27244284.141    20646337.290 4  16195939.51149  27244290.8444
  26283442.000    -1447903.082 5  -1667755.73649  26283447.3444
  23435791.039     -816154.055 7   -562359.64349  23435792.3634
 95  2 19 19 39 30.0080000  0  8 18 14 28 19 31 22 27 29
  22892397.273    -8351812.781 7  -6455765.07049  22892398.9964
  26606678.328    24319743.122 5  19034371.65249  26606684.7504
  25907843.734    -1592848.688 6  -1192004.03349  25907846.5704
  23797207.719    -6238145.445 7  -4805383.12049  23797209.8524
  25496351.734    -3333826.268 6  -2737187.16749  25496355.7894
  27271788.797    20790872.293 4  16308564.06849  27271794.8794
  26277478.422    -1479239.728 5  -1692173.87349  26277482.3484
  23449448.773     -744382.339 7   -506433.66249  23449450.2504
 95  2 19 19 40  0.0080000  0  8 18 14 28 19 31 22 27 29
  22895681.719    -8334554.797 8  -6442317.30649  22895683.3014
  26634899.148    24468043.187 5  19149929.98949  26634904.8914
  25911763.328    -1572249.954 6  -1175953.04349  25911766.4804
  23798910.859    -6229196.724 7  -4798410.09149  23798913.0624
  25489984.047    -3367285.589 6  -2763259.30049  25489988.3244
  27299312.234    20935505.554 5  16421265.21149  27299317.7194
  26271542.164    -1510435.409 5  -1716482.16549  26271546.3944
  23463196.437     -672135.644 7   -450137.56949  23463198.1954
 95  2 19 19 40 30.0090000  0  8 18 14 28 19 31 22 27 29
  22899056.020    -8316823.307 8  -6428500.57349  22899057.2984
  26663131.677    24616406.631 5  19265537.71248  26663137.5244
  25915786.903    -1551106.643 6  -1159477.72149  25915789.3994
  23800650.872    -6220052.229 7  -4791284.51949  23800653.1224
  25483681.575    -3400406.788 6  -2789067.96149  25483685.5604
  27326851.263    21080223.181 5  16534032.04949  27326856.2314
  26265629.130    -1541509.858 5  -1740696.00749  26265634.1344
  23477037.591     -599402.575 7   -393462.48349  23477039.1734
 95  2 19 19 41  0.0090000  0  8 18 14 28 19 31 22 27 29
  22902516.067    -8298638.027 8  -6414330.23349  22902517.3104
  26691374.942    24764825.969 4  19381188.99749  26691380.8844
  25919912.856    -1529423.839 6  -1142582.00649  25919915.5524
  23802424.552    -6210730.930 7  -4784021.17449  23802426.8844
  25477445.192    -3433178.885 6  -2814604.59449  25477449.5284
  27354399.583    21224988.856 5  16646836.35749  27354405.2434
  26259734.302    -1572485.978 5  -1764833.21049  26259738.6384
  23490968.653     -526194.547 7   -336417.29549  23490970.1534
 95  2 19 19 41 30.0090000  0  8 18 14 28 19 31 22 27 29
  22906058.544    -8280021.974 7  -6399824.22849  22906060.2784
  26719630.927    24913308.234 5  19496889.31249  26719637.5244
  25924139.810    -1507207.801 6  -1125270.76749  25924143.1734
  23804232.325    -6201230.432 7  -4776618.19849  23804234.5634
  25471275.684    -3465601.630 6  -2839868.99949  25471279.7514
  27381955.364    21369797.244 5  16759673.97149  27381960.5674
  26253854.185    -1603387.661 5  -1788912.42249  26253859.4584
  23504986.567     -452529.427 7   -279015.94149  23504988.2314
 95  2 19 19 42  0.0090000  0  8 18 14 28 19 31 22 27 29
  22909684.349    -8260970.532 7  -6384978.95649  22909685.9544
  26747896.388    25061842.966 5  19612630.52849  26747903.8454
  25928469.997    -1484456.084 6  -1107542.12649  25928473.0564
  23806076.622    -6191538.553 7  -4769066.08449  23806078.8844
  25465172.786    -3497670.800 6  -2864857.89549  25465176.3954
  27409522.044    21514658.417 5  16872552.67549  27409526.5204
  26247986.825    -1634218.917 5  -1812936.75449  26247991.4664
  23519088.544     -378423.028 7   -221270.72549  23519090.1384
 95  2 19 19 42 30.0090000  0  8 18 14 28 19 31 22 27 29
  22913391.856    -8241487.338 7  -6369797.25449  22913393.3684
  26776170.052    25210419.672 5  19728404.40349  26776176.0994
  25932899.450    -1461175.038 6  -1089401.02149  25932902.0634
  23807960.294    -6181640.995 7  -4761353.70049  23807962.6144
  25459135.224    -3529396.824 6  -2889579.39849  25459139.0204
  27437099.419    21659577.918 5  16985476.84849  27437105.2084
  26242135.505    -1664967.395 5  -1836896.59549  26242139.8644
  23533270.099     -303897.558 7   -163198.96049  23533271.7634
 95  2 19 19 43  0.0090000  0  8 18 14 28 19 31 22 27 29
  22917181.950    -8221570.831 7  -6354277.90249  22917183.3924
  26804454.763    25359056.241 5  19844224.94449  26804460.9974
  25937431.317    -1437364.767 6  -1070847.54649  25937434.5404
  23809883.974    -6171531.787 7  -4753476.39749  23809886.2004
  25453162.231    -3560785.597 6  -2914038.11849  25453166.2984
  27464691.575    21804574.826 5  17098461.26948  27464696.2164
  26236301.989    -1695624.272 5  -1860785.07249  26236305.9624
  23547531.247     -228955.827 7   -104802.84249  23547532.9234
 95  2 19 19 43 30.0090000  0  8 18 14 28 19 31 22 27 29
  22921057.239    -8201204.537 7  -6338408.07549  22921058.5174
  26832747.966    25507741.302 5  19960083.26649  26832754.2354
  25942063.130    -1413020.411 6  -1051877.89349  25942066.8214
  23811848.513    -6161207.953 7  -4745431.85649  23811850.7044
  25447251.880    -3591845.353 6  -2938240.43449  25447255.0674
  27492301.599    21949666.657 5  17211519.72949  27492307.5994
  26230489.981    -1726164.869 5  -1884582.91849  26230494.8924
  23561873.841     -153585.946 7    -46073.10049  23561875.4234
 95  2 19 19 44  0.0090000  0  8 18 14 28 19 31 22 27 29
  22925020.755    -8180375.744 7  -6322177.86149  22925022.3134
  26861048.802    25656462.986 4  20075970.15249  26861055.7784
  25946797.341    -1388140.525 6  -1032490.94749  25946801.9464
  23813853.388    -6150672.421 7  -4737222.34749  23813855.7784
  25441403.372    -3622580.809 6  -2962190.06849  25441406.3604
  27519930.966    22094866.215 3  17324662.17649  27519936.5914
  26224702.825    -1756576.478 5  -1908280.27049  26224707.8764
  23576301.067      -77770.739 7     13003.65249  23576302.6734
 95  2 19 19 44 30.0090000  0  8 18 14 28 19 31 22 27 29
  22929074.395    -8159074.221 7  -6305579.28049  22929075.8604
  26889357.645    25805225.661 4  20191888.91949  26889363.3994
  25951634.575    -1362721.815 6  -1012684.14549  25951638.5484
  23815897.622    -6139929.560 7  -4728851.28949  23815900.0714
  25435618.294    -3652977.943 6  -2985876.08949  25435621.8094
  27547581.692    22240163.562 5  17437880.75849  27547586.6734
  26218940.075    -1786861.516 5  -1931878.95747  26218943.7784
  23590813.958       -1505.120 7     72431.37249  23590815.5524
 95  2 19 19 45  0.0090000  0  8 18 14 28 19 31 22 27 29
  22933219.880    -8137289.316 7  -6288604.03449  22933221.4274
  26917673.403    25954023.989 4  20307835.49949  26917680.4504
  25956574.309    -1336764.349 6   -992457.53049  25956577.6024
  23817976.966    -6129003.334 7  -4720337.34649  23817979.4624
  25429897.716    -3683039.954 6  -3009300.94049  25429901.5134
  27575243.599    22385534.462 4  17551156.67648  27575249.9154
  26213196.942    -1817040.946 5  -1955395.44649  26213202.0174
  23605414.161       75220.079 7    132217.20649  23605416.0134
 95  2 19 19 45 30.0090000  0  7 18 14 28 19 31 27 29
  22937459.450    -8115011.092 7  -6271244.38549  22937461.2554
  26945991.817    26102834.718 5  20423791.74748  26945997.6424
  25961615.403    -1310270.839 6   -971813.21349  25961619.1534
  23820090.192    -6117897.047 7  -4711683.10149  23820092.3374
  25424240.489    -3712769.696 6  -3032466.88949  25424244.6144
  26207472.388    -1847122.621 5  -1978835.67949  26207477.0054
  23620100.536      152394.827 7    192353.33949  23620101.9544
 95  2 19 19 46  0.0090000  0  7 18 14 28 19 31 27 29
  22941793.325    -8092237.061 7  -6253498.40049  22941794.9774
  26974314.942    26251674.244 5  20539770.41749  26974320.7204
  25966759.677    -1283239.694 6   -950749.96649  25966762.7354
  23822238.208    -6106611.272 7  -4702888.98549  23822240.3764
  25418651.958    -3742134.139 6  -3055348.19949  25418655.5794
  26201765.520    -1877117.745 5  -2002208.48449  26201768.9664
  23634869.388      230007.248 7    252830.51949  23634870.9234
 95  2 19 19 46 30.0090000  0  7 18 14 28 19 31 27 29
  22946219.497    -8068977.531 7  -6235374.09849  22946220.9274
  27002640.028    26400522.935 5  20655756.30149  27002645.2314
  25972003.880    -1255681.614 6   -929276.11649  25972006.8924
  23824417.856    -6095156.348 7  -4693963.07049  23824420.0604
  25413134.692    -3771125.189 6  -3077938.56449  25413138.5364
  26196069.302    -1907048.047 5  -2025530.77549  26196073.6844
  23649717.770      308036.311 7    313632.34949  23649719.5754
 95  2 19 19 47  0.0090000  0  7 18 14 28 19 31 27 29
  22950739.747    -8045222.843 7  -6216863.95949  22950741.1424
  27030965.645    26549372.606 5  20771742.89049  27030971.9854
  25977350.677    -1227584.754 6   -907382.44249  25977353.7474
  23826632.888    -6083515.280 7  -4684892.10649  23826634.9744
  25407691.849    -3799732.608 6  -3100229.97649  25407695.9744
  26190387.997    -1936904.495 5  -2048795.51049  26190391.8764
  23664648.841      386499.051 7    374772.11449  23664650.5404
 95  2 19 19 47 30.0090000  0  7 18 14 28 19 31 27 29
  22955349.833    -8020995.974 7  -6197985.88749  22955351.3454
  27059288.255    26698207.016 5  20887717.59548  27059294.7124
  25982797.622    -1198959.379 6   -885076.93249  25982800.5754
  23828884.028    -6071686.361 7  -4675674.77049  23828886.5244
  25402322.270    -3827948.362 6  -3122216.20449  25402326.1964
  26184722.028    -1966681.274 5  -2071998.17449  26184726.0714
  23679661.208      465389.709 7    436245.32449  23679662.8254
 95  2 19 19 48  0.0090000  0  7 18 14 28 19 31 27 29
  22960047.856    -7996309.038 7  -6178749.32049  22960049.4744
  27087606.849    26847023.335 5  21003678.15149  27087613.3294
  25988345.028    -1169807.926 6   -862361.49949  25988347.9464
  23831169.770    -6059676.030 7  -4666316.07949  23831172.1494
  25397028.466    -3855767.659 6  -3143893.50349  25397032.6144
  26179069.895    -1996380.178 5  -2095140.16749  26179074.1494
  23694756.145      544715.338 7    498057.46649  23694757.8454
 95  2 19 19 48 30.0090000  0  7 18 14 28 19 31 27 29
  22964832.403    -7971165.897 8  -6159157.27249  22964833.8564
  27115919.216    26995806.829 4  21119613.17448  27115925.5324
  25993992.645    -1140129.702 6   -839235.59849  25993996.0564
  23833489.622    -6047484.900 7  -4656816.49349  23833492.1424
  25391806.013    -3883212.266 6  -3165278.86449  25391809.5994
  26173432.786    -2026005.220 5  -2118224.59549  26173437.0404
  23709937.685      624494.015 7    560222.63349  23709939.2314
 95  2 19 19 49  0.0090000  0  6 18 28 19 31 27 29
  22969701.692    -7945576.505 7  -6139217.49749  22969703.2164
  25999740.997    -1109920.326 6   -815695.81449  25999744.1494
  23835842.333    -6035118.164 7  -4647180.08149  23835844.9814
  25386652.153    -3910294.354 6  -3186381.72849  25386656.3134
  26167811.966    -2055541.926 5  -2141240.17449  26167815.9034
  23725206.403      704730.701 7    622744.69849  23725208.1494
 95  2 19 19 49 30.0090000  0  7 18 14 28 19 31 27 29
  22974654.763    -7919549.576 7  -6118936.78149  22974656.3924
  27172542.247       24791.06214
  26005591.458    -1079180.130 6   -791742.39649  26005594.6104
  23838228.864    -6022578.675 7  -4637409.05349  23838231.5834
  25381565.802    -3937021.485 6  -3207208.00949  25381570.2314
  26162208.028    -2084993.741 6  -2164189.61549  26162211.9664
  23740561.763      785424.578 7    685623.01349  23740563.4274
 95  2 19 19 50  0.0090000  0  7 18 14 28 19 31 27 29
  22979691.677    -7893080.175 7  -6098311.28249  22979693.3294
  27200855.919       24792.23414
  26011542.083    -1047905.960 6   -767372.89849  26011545.3884
  23840650.302    -6009853.372 7  -4627493.23249  23840652.5404
  25376545.770    -3963404.005 6  -3227765.76349  25376549.6494
  26156617.489    -2114367.947 5  -2187078.58049  26156621.4034
  23756003.825      866573.015 7    748855.53049  23756005.6424
 95  2 19 19 50 30.0090000  0  7 18 14 28 19 31 27 29
  22984813.419    -7866165.253 8  -6077338.62449  22984814.6614
  27229169.981       54551.70714
  26017595.661    -1016094.604 6   -742584.82349  26017598.9774
  23843109.497    -5996930.686 7  -4617423.60649  23843111.7124
  25371590.817    -3989443.433 6  -3248056.17049  25371595.3294
  26151042.513    -2143664.103 5  -2209906.73749  26151047.0364
  23771530.778      948167.240 7    812435.41649  23771532.5014
 95  2 19 19 51  0.0090000  0  7 18 14 28 19 31 27 29
  22990017.653    -7838815.508 8  -6056027.14549  22990019.0014
  27257480.075      203326.276 5
  26023749.052     -983756.301 6   -717386.13849  26023752.2274
  23845606.231    -5983808.710 7  -4607198.69149  23845608.5874
  25366700.552    -4015142.311 6  -3268081.21249  25366704.7124
  26145483.091    -2172881.255 5  -2232673.33149  26145487.4974
  23787138.513     1030186.286 7    876346.32349  23787140.1654
 95  2 19 19 51 30.0090000  0  7 18 14 28 19 31 27 29
  22995310.442    -7811002.512 8  -6034354.68549  22995311.9664
  27285783.231      352058.945 5    112027.00558  27285788.7864
  26030004.700     -950883.585 6   -691771.02849  26030007.8174
  23848144.786    -5970470.144 7  -4596805.00949  23848147.1774
  25361878.161    -4040482.055 6  -3287826.41349  25361881.8764
  26139940.099    -2202010.454 5  -2255371.38449  26139944.8684
  23802828.567     1112637.641 7    940594.10449  23802830.1494
 95  2 19 19 52  0.0090000  0  7 18 14 28 19 31 27 29
  23000695.239    -7782706.238 8  -6012305.64649  23000696.6924
  27314079.942      500756.634 4    227895.15047  27314087.0484
  26036363.091     -917472.388 6   -665736.32949  26036366.2314
  23850723.341    -5956919.188 7  -4586245.82949  23850725.7904
  25357128.856    -4065438.592 6  -3307273.01649  25357133.0754
  26134415.825    -2231040.270 6  -2277992.01049  26134419.6104
  23818599.450     1195514.778 7   1005173.65749  23818601.1144
 95  2 19 19 52 30.0090000  0  7 18 14 28 19 31 27 29
  23006173.677    -7753917.014 8  -5989872.48449  23006175.0954
  27342367.161      649407.804 3    343727.05846  27342372.7164
  26042822.856     -883524.600 6   -639283.51349  26042826.3844
  23853337.028    -5943185.825 7  -4575544.51149  23853339.2314
  25352455.927    -4089992.919 6  -3326406.20249  25352460.0404
  26128910.856    -2259969.530 6  -2300534.27949  26128914.4074
  23834449.442     1278806.148 7   1070075.99549  23834451.2594
 95  2 19 19 53  0.0090000  0  8 18 14 28 19 31  2 27 29
  23011748.099    -7724622.714 8  -5967045.76649  23011749.5284
  27370644.817      798009.221 3    459520.21147  27370651.6384
  26049385.341     -849039.209 6   -612411.78049  26049388.5174
  23855983.364    -5929277.971 7  -4564707.22749  23855985.6024
  25347863.278    -4114128.865 6  -3345213.37849  25347867.8374
  27640348.708      -31310.74214
  26123423.919    -2288800.028 5  -2322999.60849  26123428.3844
  23850378.059     1362511.516 7   1135300.91949  23850379.7124
 95  2 19 19 53 30.0090000  0  8 18 14 28 19 31  2 27 29
  23017422.864    -7694802.328 8  -5943809.10549  23017424.4464
  27398919.833      946595.946 3    575301.79846  27398927.7244
  26056052.239     -814002.737 6   -585110.61949  26056055.4274
  23858661.880    -5915200.722 7  -4553737.95349  23858664.4584
  25343352.388    -4137835.277 6  -3363685.83949  25343356.1264
  27629855.724      -86452.067 4     -2860.77959  27629860.9154
  26117956.091    -2317536.137 5  -2345391.34449  26117960.5444
  23866386.794     1446638.573 7   1200854.44149  23866388.5874
 95  2 19 19 54  0.0090000  0  8 18 14 28 19 31  2 27 29
  23023191.169    -7664488.766 8  -5920188.15349  23023192.6924
  27427189.942     1095157.015 3    691063.44048  27427196.7744
  26062822.208     -778430.130 6   -557391.72349  26062824.6814
  23861368.567    -5900978.415 7  -4542655.64449  23861371.0754
  25338918.013    -4161138.184 6  -3381843.89749  25338921.9154
  27619384.606     -141478.133 4    -45738.20649  27619390.9704
  26112499.903    -2346208.583 5  -2367733.51249  26112503.5954
  23882471.763     1531164.592 7   1266718.83949  23882473.4034
 95  2 19 19 54 30.0090000  0  8 18 14 28 19 31  2 27 29
  23029051.770    -7633691.724 8  -5896190.45949  23029053.3644
  27455452.950     1243675.457 3    806791.86247  27455459.6534
  26069693.724     -742321.384 6   -529255.02649  26069696.6534
  23864105.075    -5886598.832 7  -4531450.77849  23864107.2554
  25334557.106    -4184054.345 6  -3399700.57949  25334560.9154
  27608934.091     -196399.277 4    -88533.87446  27608939.6694
  26107053.638    -2374829.911 5  -2390035.82049  26107057.6344
  23898633.263     1616095.821 7   1332898.98749  23898635.1844
 95  2 19 19 55  0.0090000  0  8 18 14 28 19 31  2 27 29
  23035002.489    -7602418.840 8  -5871821.98249  23035004.3294
  27483707.677     1392155.012 3    922490.00946  27483714.9814
  26076666.935     -705672.342 6   -500697.33949  26076670.3684
  23866874.888    -5872041.870 7  -4520107.69349  23866877.0914
  25330266.560    -4206602.162 6  -3417270.24649  25330270.4744
  27598504.903     -251200.849 4   -131236.32349  27598510.4934
  26101616.403    -2403398.213 5  -2412296.81849  26101620.5054
  23914875.395     1701445.809 7   1399405.43949  23914876.9894
 95  2 19 19 55 30.0090000  0  8 18 14 28 19 31  2 27 29
  23041039.184    -7570697.282 8  -5847103.89149  23041040.7904
  27511952.028     1540583.752 3   1038148.49147  27511957.7354
  26083743.247     -668488.805 6   -471723.15049  26083746.0714
  23869677.825    -5857316.083 7  -4508633.05849  23869680.0994
  25326041.966    -4228802.135 6  -3434568.86549  25326045.8094
  27588103.192     -305859.927 3   -173827.75548  27588108.8064
  26096190.856    -2431911.844 5  -2434515.21449  26096194.6304
  23931196.434     1787213.977 7   1466237.74549  23931197.8994
 95  2 19 19 56  0.0090000  0  8 18 14 28 19 31  2 27 29
  23047158.466    -7538539.090 8  -5822045.57049  23047160.2474
  27540184.583     1688940.687 3   1153751.13345  27540190.3604
  26090919.474     -630772.204 6   -442333.59449  26090922.7314
  23872514.591    -5842407.376 7  -4497015.88649  23872516.9354
  25321886.153    -4250637.839 6  -3451583.63849  25321889.5874
  27577734.224     -360354.383 4   -216290.94447  27577739.9544
  26090778.036    -2460357.178 5  -2456680.38149  26090782.3134
  23947598.849     1873410.881 7   1533404.12549  23947600.7004
 95  2 19 19 56 30.0090000  0  8 18 14 28 19 31  2 27 29
  23053363.044    -7505935.040 8  -5796639.82649  23053364.9424
  27568402.153     1837224.019 3   1269296.36146  27568409.8804
  26098198.997     -592523.930 6   -412529.75649  26098202.4424
  23875387.802    -5827306.831 7  -4485249.22249  23875389.8644
  25317802.856    -4272095.451 6  -3468303.80449  25317806.4894
  27567397.310                      -30755.48214
  26085380.270    -2488721.366 5  -2478782.32249  26085384.6884
  23964085.942     1960050.592 7   1600915.55349  23964087.8764
 95  2 19 19 57  0.0090000  0  8 18 14 28 19 31  2 27 29
  23059654.411    -7472874.035 8  -5770878.00449  23059656.2164
  27596606.263     1985438.269 3   1384787.75146  27596615.0444
  26105578.403     -553739.108 6   -382307.80949  26105581.9074
  23878297.200    -5812018.236 7  -4473336.03049  23878299.3454
  25313795.591    -4293154.258 6  -3484713.20649  25313798.8254
  27557095.138                      -84891.687 3
  26080001.497    -2516986.712 6  -2500807.26649  26080005.3884
  23980656.739     2047132.339 7   1668771.42649  23980658.5914
 95  2 19 19 57 30.0090000  0  8 18 14 28 19 31  2 27 29
  23066034.825    -7439343.132 8  -5744750.03749  23066036.5834
  27624798.653     2133590.039 3   1500230.46447  27624804.6424
  26113061.583     -514412.219 6   -351663.48349  26113064.8064
  23881241.153    -5796548.527 7  -4461281.71449  23881243.1694
  25309868.935    -4313792.758 6  -3500795.09049  25309872.3804
  27546825.427     -138862.294 3    -33632.68958  27546831.2864
  26074640.364    -2545159.633 5  -2522760.18149  26074644.1734
  23997311.794     2134653.566 7   1736969.75349  23997313.5994
 95  2 19 19 58  0.0090000  0  7 18 28 19 31  2 27 29
  23072508.599    -7405323.750 8  -5718241.43449  23072510.2744
  26120650.325     -474540.106 6   -320594.28549  26120653.0794
  23884220.013    -5780894.222 7  -4449083.54849  23884222.2514
  25306023.427    -4333999.768 6  -3516540.76349  25306026.6964
  27536583.302     -192682.975 3    -75570.78848  27536590.4664
  26069296.911    -2573238.955 5  -2544640.16149  26069301.7744
  24014050.341     2222613.566 7   1805509.97649  24014052.1924
 95  2 19 19 58 30.0090000  0  7 18 28 19 31  2 27 29
  23079077.247    -7370806.454 8  -5691344.84849  23079078.8064
  26128342.489     -434118.712 6   -289097.10149  26128345.5834
  23887230.927    -5765070.763 7  -4436753.58049  23887233.2824
  25302258.755    -4353781.251 6  -3531954.85449  25302262.2354
  27526370.060     -246354.259 3   -117392.48048  27526374.9344
  26063969.567    -2601229.896 5  -2566451.26249  26063974.2434
  24030870.520     2311004.135 7   1874385.71349  24030872.4074
 95  2 19 19 59  0.0090000  0  7 18 28 19 31  2 27 29
  23085736.161    -7335813.074 8  -5664077.28949  23085737.7784
  26136136.684     -393157.879 6   -257179.54849  26136139.5324
  23890269.130    -5749105.910 7  -4424313.43449  23890271.2394
  25298572.935    -4373151.260 6  -3547048.32549  25298577.2474
  27516180.270     -299894.574 3   -159112.12348  27516186.9384
  26058655.497    -2629159.822 6  -2588214.82249  26058659.9744
  24047765.934     2399792.002 7   1943571.02849  24047768.0094
 95  2 19 19 59 30.0090000  0  7 18 28 19 31  2 27 29
  23092483.114    -7300357.148 8  -5636449.30649  23092484.7204
  26144034.388     -351656.374 6   -224840.69849  26144037.6574
  23893334.474    -5732995.799 7  -4411760.11149  23893336.5714
  25294963.474    -4392118.931 6  -3561828.27049  25294966.8604
  27506017.833     -353298.303 3   -200725.33749  27506023.3994
  26053350.997    -2657036.744 6  -2609937.09149  26053354.9934
  24064738.700     2488984.432 7   2013071.58749  24064740.8684
 95  2 19 20  0  0.0090000  0  7 18 28 19 31  2 27 29
  23099319.317    -7264431.923 8  -5608455.63849  23099321.0054
  26152035.122     -309611.273 6   -192078.26349  26152038.6614
  23896431.138    -5716724.313 7  -4399081.03249  23896433.3294
  25291431.513    -4410676.204 6  -3576288.44049  25291434.8294
  27495887.528     -406537.736 4   -242210.51448  27495893.6454
  26048058.935    -2684847.208 6  -2631607.57549  26048062.8954
  24081790.114     2578589.891 7   2082893.99149  24081792.2244
 95  2 19 20  0 30.0090000  0  7 18 28 19 31  2 27 29
  23106247.731    -7228023.104 8  -5580085.14749  23106249.5604
  26160139.645     -267018.241 6   -158888.86549  26160142.5054
  23899559.997    -5700281.987 7  -4386268.83349  23899562.0834
  25287981.677    -4428807.677 6  -3590416.81549  25287985.1224
  27485790.669                      -40663.01114
  26042778.185    -2712596.335 6  -2653230.27249  26042782.0054
  24098920.427     2668608.742 7   2153038.51649  24098922.3134
 95  2 19 20  1  0.0100000  0  7 18 28 19 31  2 27 29
  23113272.228    -7191109.963 8  -5551321.67749  23113274.1744
  26168350.908     -223870.620 6   -125267.32449  26168353.4984
  23902724.924    -5683650.902 7  -4373309.55149  23902727.1854
  25284614.424    -4446499.574 6  -3604202.65549  25284618.4084
  27475729.033      -93540.882 4    -15090.29358  27475733.7564
  26037511.986    -2740273.279 6  -2674796.71749  26037516.0534
  24116132.041     2759056.177 7   2223517.00049  24116133.6354
 95  2 19 20  1 30.0100000  0  7 18 28 19 31  2 27 29
  23120393.861    -7153686.080 8  -5522160.22149  23120395.7134
  26176665.096     -180179.332 6    -91222.14549  26176667.3104
  23905926.142    -5666826.964 7  -4360199.99049  23905928.4984
  25281332.049    -4463750.203 6  -3617644.65949  25281335.6464
  27465701.447     -146233.486 4    -56149.35248  27465706.3344
  26032260.338    -2767866.450 6  -2696297.89449  26032264.5574
  24133427.260     2849942.958 7   2294337.83449  24133428.8654
 95  2 19 20  2  0.0100000  0  7 18 28 19 31  2 27 29
  23127618.439    -7115720.893 8  -5492576.96949  23127620.1624
  26185084.939     -135932.802 6    -56744.33849  26185088.5844
  23909165.330    -5649804.040 7  -4346935.38049  23909167.5804
  25278137.416    -4480539.254 6  -3630726.98649  25278140.7564
  27455710.057                      -29727.05014
  26027028.049    -2795363.418 6  -2717724.09549  26027031.6824
  24150807.783     2941280.000 7   2365509.51449  24150809.8344
 95  2 19 20  2 30.0100000  0  7 18 28 19 31  2 27 29
  23134943.244    -7077228.690 8  -5462583.05749  23134944.9784
  26193609.924      -91133.661 6    -21835.90249  26193613.7214
  23912441.002    -5632589.710 7  -4333521.61849  23912443.2994
  25275028.955    -4496874.266 6  -3643455.51349  25275031.9674
  27445755.010      -82046.473 5    -13573.19858  27445760.8104
  26021814.119    -2822760.519 5  -2739072.47249  26021817.6234
  24168272.658     3033059.445 7   2437025.92349  24168274.8264
 95  2 19 20  3  0.0100000  0  7 18 28 19 31  2 27 29
  23142363.572    -7038234.165 8  -5432197.72049  23142365.2364
  26202240.994      -45777.341 6     13506.71949  26202243.6314
  23915753.080    -5615187.364 7  -4319961.34749  23915755.3304
  25272007.135    -4512753.848 6  -3655829.16149  25272010.3224
  27435833.025     -134185.328 5    -54200.79149  27435838.8854
  26016622.228    -2850049.094 6  -2760336.29349  26016625.6744
  24185824.572     3125293.500 7   2508896.57549  24185826.8464
 95  2 19 20  3 30.0100000  0  7 18 28 19 31  2 27 29
  23149877.760    -6998746.686 8  -5401428.26549  23149879.6464
  26210978.353         139.277 6     49285.92249  26210981.2714
  23919099.385    -5597600.582 7  -4306257.36549  23919101.3424
  25269072.385    -4528178.219 6  -3667848.09049  25269075.4554
  27425945.900     -186140.048 5    -94684.83148  27425952.1464
  26011446.674    -2877243.994 6  -2781527.11849  26011450.9044
  24203461.064     3217974.186 7   2581115.25549  24203463.1394
 95  2 19 20  4  0.0100000  0  7 18 28 19 31  2 27 29
  23157485.064    -6958770.319 8  -5370277.86549  23157486.9514
  26219823.689       46623.033 6     85507.03849  26219827.2404
  23922479.908    -5579836.965 7  -4292415.59349  23922481.9004
  25266225.596    -4543134.513 6  -3679502.29849  25266228.8184
  27416093.002     -237916.277 4   -135029.84649  27416099.5174
  26006288.885    -2904347.633 5  -2802646.81849  26006292.9984
  24221179.705     3311086.099 7   2653669.95449  24221181.4984
 95  2 19 20  4 30.0100000  0  7 18 28 19 31  2 27 29
  23165180.518    -6918330.138 8  -5338766.04949  23165182.4514
  26228775.330       93661.117 6    122160.09949  26228778.4244
  23925891.955    -5561906.866 7  -4278444.08949  23925894.0534
  25263467.705    -4557627.505 6  -3690795.49949  25263470.9984
  27406270.478     -289532.752 5   -175250.34049  27406276.2214
  26001145.447    -2931377.496 5  -2823709.03049  26001149.7014
  24238978.588     3404617.683 7   2726551.67049  24238980.6394
 95  2 19 20  5  0.0100000  0  7 18 28 19 31  2 27 29
  23172968.447    -6877404.522 8  -5306875.97849  23172970.1114
  26237833.338      141260.912 6    159250.83949  26237836.6784
  23929335.775    -5543809.445 7  -4264342.20649  23929337.7444
  25260800.502    -4571641.295 6  -3701715.28049  25260803.7014
  27396478.267                       -8564.41814
  25996014.025    -2958341.654 5  -2844720.04049  25996018.5724
  24256859.049     3498581.738 7   2799770.37349  24256861.2054
 95  2 19 20  5 30.0100000  0  7 18 28 19 31  2 27 29
  23180854.736    -6835961.464 8  -5274582.69849  23180856.1314
  26246998.205      189424.550 6    196780.94649  26247001.1824
  23932813.002    -5525537.809 7  -4250104.57149  23932815.2284
  25258225.346    -4585175.483 6  -3712261.35249  25258228.7214
  27386716.205                      -59865.657 4
  25990898.010    -2985228.026 6  -2865670.45349  25990902.2054
  24274822.033     3592975.726 7   2873324.09349  24274824.2834
 95  2 19 20  6  0.0100000  0  7 18 28 19 31  2 27 29
  23188839.385    -6794001.978 8  -5241887.01849  23188841.0254
  26256270.291      238149.379 6    234748.34649  26256274.0884
  23936323.322    -5507089.517 7  -4235729.27749  23936325.4434
  25255741.963    -4598227.981 6  -3722432.08649  25255744.7404
  27376984.760                      -39191.83114
  25985798.197    -3012025.046 6  -2886551.22949  25985802.5454
  24292866.689     3687800.846 7   2947213.75849  24292868.6354
 95  2 19 20  6 30.0100000  0  7 18 28 19 31  2 27 29
  23196923.338    -6751521.111 8  -5208785.05949  23196925.0844
  26265649.002      287433.831 6    273151.80049  26265652.3074
  23939870.580    -5488448.170 7  -4221203.55649  23939872.8184
  25253345.853    -4610816.111 6  -3732240.98349  25253349.1354
  27367288.822      -90141.635 5    -10570.39159  27367294.3534
  25980714.877    -3038739.827 6  -2907367.91749  25980719.3184
  24310993.228     3783058.171 7   3021440.20849  24310995.3034
 95  2 19 20  7  0.0100000  0  7 18 28 19 31  2 27 29
  23205108.955    -6708506.104 8  -5175266.88849  23205110.5374
  26275134.299      337283.372 6    311995.59849  26275137.7914
  23943455.736    -5469607.579 7  -4206522.58549  23943458.0574
  25251036.814    -4622947.687 6  -3741694.11149  25251040.4124
  27357634.432     -140877.820 5    -50104.99449  27357639.0024
  25975648.603    -3065365.779 6  -2928115.38149  25975652.7874
  24329200.885     3878739.325 7   3095996.91749  24329202.7954
 95  2 19 20  7 30.0100000  0  7 18 28 19 31  2 27 29
  23213394.783    -6664964.242 8  -5141338.18449  23213396.2954
  26284727.018      387692.106 6    351275.11249  26284729.8654
  23947078.822    -5450569.341 7  -4191687.59649  23947081.0724
  25248814.346    -4634630.718 6  -3750797.73149  25248818.0494
  27348022.877     -191384.556 4    -89460.78349  27348027.9284
  25970598.924    -3091899.532 6  -2948791.02149  25970603.0724
  24347484.963     3974821.655 7   3170866.22749  24347487.0144
 95  2 19 20  8  0.0100000  0  7 18 28 19 31  2 27 29
  23221779.728    -6620899.553 8  -5107002.08249  23221781.7914
  26294428.658      438675.083 6    391002.09949  26294431.6934
  23950741.846    -5431318.410 7  -4176686.87749  23950744.1784
  25246679.650    -4645849.146 6  -3759539.33249  25246683.1314
  27338462.846     -241620.891 5   -128605.87249  27338468.1434
  25965566.721    -3118344.614 6  -2969397.55049  25965570.3654
  24365847.799     4071317.419 7   3246057.69549  24365849.7564
 95  2 19 20  8 30.0100000  0  7 18 28 19 31  2 27 29
  23230263.525    -6576317.062 8  -5072262.49149  23230265.6234
  26304239.267      490227.342 6    431172.68249  26304242.3964
  23954445.932    -5411855.659 7  -4161521.09849  23954448.1354
  25244633.611    -4656599.483 6  -3767916.17349  25244637.3034
  27328951.885     -291602.103 5   -167552.18449  27328957.1824
  25960551.557    -3144697.095 6  -2989931.93049  25960556.0924
  24384288.963     4168227.097 7   3321571.68849  24384290.7324
 95  2 19 20  9  0.0100000  0  7 18 28 19 31  2 27 29
  23238844.150    -6531225.123 8  -5037125.93749  23238846.2134
  26314157.088      542346.982 6    471785.37449  26314160.5334
  23958186.424    -5392200.132 7  -4146205.10749  23958188.2994
  25242680.236    -4666863.916 6  -3775914.39849  25242683.6584
  27319483.158     -341358.416 5   -206323.23949  27319489.0064
  25955557.033    -3170946.771 6  -3010386.19049  25955560.6434
  24402810.642     4265559.032 7   3397414.70949  24402812.2134
 95  2 19 20  9 30.0100000  0  7 18 28 19 31  2 27 29
  23247517.682    -6485645.187 8  -5001609.12749  23247519.7684
  26324182.338      595027.975 6    512835.47949  26324185.2214
  23961963.744    -5372349.350 7  -4130736.97049  23961965.8074
  25240821.111    -4676634.989 6  -3783528.18849  25240824.2054
  27310053.588     -390909.794 5   -244934.63549  27310059.1894
  25950578.721    -3197105.479 6  -3030769.56349  25950582.4124
  24421413.642     4363318.790 7   3473591.10549  24421415.7054
 95  2 19 20 10  0.0100000  0  7 18 28 19 31  2 27 29
  23256284.299    -6439578.227 8  -4965712.81549  23256286.3144
  26334314.400      648277.829 6    554328.85049  26334317.5064
  23965779.361    -5352295.755 7  -4115110.79849  23965781.4714
  25239058.275    -4685898.496 6  -3790746.46249  25239061.0764
  27300660.244     -440272.669 5   -283399.13049  27300665.8574
  25945620.291    -3223161.403 6  -3051072.85449  25945624.1004
  24440102.682     4461530.051 7   3550119.31749  24440104.6624
 95  2 19 20 10 30.0100000  0  7 18 28 19 31  2 27 29
  23265146.502    -6393006.499 8  -4929423.17549  23265148.1544
  26344557.307      702099.723 6    596267.97249  26344559.8964
  23969634.299    -5332038.641 7  -4099326.03749  23969636.3964
  25237395.197    -4694637.245 6  -3797555.82849  25237398.3854
  27291298.627     -489472.097 5   -321736.26649  27291303.9824
  25940685.494    -3249095.296 6  -3071281.05249  25940689.8074
  24458879.525     4560201.961 7   3627006.47549  24458881.4244
 95  2 19 20 11  0.0100000  0  7 18 28 19 31  2 27 29
  23274106.635    -6345921.073 8  -4892733.25549  23274108.3224
  26354908.135      756496.455 6    638655.01849  26354911.8034
  23973527.830    -5311578.771 7  -4083383.28549  23973529.9634
  25235830.572    -4702858.490 6  -3803961.95249  25235834.1114
  27281967.791     -538507.065 5   -359945.24249  27281973.1824
  25935772.986    -3274910.874 6  -3091397.05149  25935777.2524
  24477742.549     4659328.091 7   3704247.57149  24477744.2014
 95  2 19 20 11 30.0100000  0  7 18 28 19 31  2 27 29
  23283166.166    -6298311.786 8  -4855635.12949  23283168.1704
  26365367.307      811459.934 6    681483.68149  26365370.4594
  23977458.244    -5290923.694 7  -4067288.42649  23977460.4124
  25234362.682    -4710575.325 6  -3809975.03149  25234365.7054
  27272666.853     -587377.568 5   -398026.08149  27272671.8924
  25930880.596    -3300622.443 6  -3111432.01349  25930884.2284
  24496688.588     4758890.961 7   3781828.98349  24496690.4514
 95  2 19 20 12  0.0100000  0  7 18 28 19 31  2 27 29
  23292330.728    -6250151.505 8  -4818107.65749  23292332.8384
  26375935.728      866993.943 6    724756.92849  26375938.1664
  23981424.447    -5270082.469 7  -4051048.51849  23981426.3814
  25232989.299    -4717788.009 6  -3815595.24949  25232992.4984
  27263401.963     -636068.327 5   -435966.84349  27263407.9514
  25926010.478    -3326213.153 6  -3131372.80549  25926013.7364
  24515718.150     4858891.670 7   3859751.56749  24515720.1434
 95  2 19 20 12 30.0100000  0  7 18 28 19 31  2 27 29
  23301602.150    -6201431.615 8  -4780144.13149  23301604.1664
  26386612.064      923100.551 6    768476.34349  26386615.2054
  23985424.963    -5249058.609 7  -4034666.28849  23985426.8734
  25231713.049    -4724497.304 6  -3820823.23349  25231716.3534
  27254174.377     -684558.314 5   -473751.17449  27254180.7054
  25921161.689    -3351691.445 6  -3151225.99449  25921165.7794
  24534829.314     4959322.045 7   3938008.96349  24534831.3894
 95  2 19 20 13  0.0100000  0  7 18 28 19 31  2 27 29
  23310976.619    -6152168.412 8  -4741757.24049  23310978.3304
  26397394.791      979765.762 6    812631.03049  26397397.7324
  23989458.127    -5227865.269 7  -4018151.99549  23989459.9904
  25230528.478    -4730720.198 6  -3825672.18749  25230531.8534
  27244987.119     -732837.724 5   -511371.39349  27244992.5804
  25916329.471    -3377088.186 6  -3171015.63949  25916333.5144
  24554018.252     5060161.870 7   4016585.41149  24554020.6074
 95  2 19 20 13 30.0100000  0  7 18 28 19 31  2 27 29
  23320452.736    -6102371.363 8  -4702954.36149  23320454.4594
  26408282.846     1036983.943 6    857216.60549  26408286.4324
  23993522.291    -5206507.547 7  -4001509.62049  23993524.4004
  25229438.142    -4736450.916 6  -3830137.62349  25229441.4714
  27235842.166     -780895.103 5   -548818.65049  27235847.9904
  25911510.588    -3402411.602 6  -3190748.14049  25911514.1394
  24573287.127     5161418.796 7   4095486.86949  24573289.4354
 95  2 19 20 14  0.0100000  0  7 18 28 19 31  2 27 29
  23330029.041    -6052046.927 8  -4663740.53049  23330030.7404
  26419278.439     1094764.166 6    902240.13949  26419281.9904
  23997622.603    -5184960.141 7  -3984719.43749  23997624.9714
  25228443.861    -4741673.849 6  -3834207.39149  25228447.2714
  27226741.744     -828717.610 5   -586082.86749  27226746.9944
  25906707.018    -3427653.281 6  -3210416.96549  25906711.2134
  24592638.072     5263107.791 7   4174725.00349  24592640.3574
 95  2 19 20 14 30.0100000  0  7 18 28 19 31  2 27 29
  23339702.939    -6001211.414 8  -4624128.46249  23339704.6504
  26430379.603     1153099.433 6    947696.17249  26430383.2364
  24001759.596    -5163221.642 7  -3967780.35349  24001761.6114
  25227548.072    -4746382.668 6  -3837876.53949  25227551.2604
  27217683.010     -876316.791 5   -623173.06449  27217688.3424
  25901916.182    -3452828.693 6  -3230034.15049  25901920.2014
  24612069.111     5365219.300 7   4254292.36249  24612071.4904
 95  2 19 20 15  0.0100000  0  7 18 28 19 31  2 27 29
  23349473.314    -5949867.300 8  -4584120.07449  23349474.9324
  26441586.213     1211991.866 6    993586.35549  26441589.8344
  24005935.775    -5141273.691 7  -3950678.04549  24005937.9674
  25226750.549    -4750573.109 6  -3841141.75649  25226753.9474
  27208666.971     -923698.420 5   -660093.77749  27208672.7254
  25897138.971    -3477933.811 6  -3249596.54849  25897142.8734
  24631581.385     5467755.831 7   4334190.91549  24631583.7174
 95  2 19 20 15 30.0100000  0  7 18 28 19 31  2 27 29
  23359340.619    -5898015.786 8  -4543716.31449  23359342.1424
  26452899.471     1271442.445 6   1039911.45849  26452902.9394
  24010151.369    -5119120.923 7  -3933416.14849  24010153.5494
  25226052.807    -4754241.712 6  -3844000.34949  25226055.4784
  27199691.017     -970865.212 5   -696847.07249  27199696.5964
  25892377.182    -3502958.322 6  -3269096.13849  25892380.9554
  24651174.432     5570717.240 7   4414420.54349  24651176.5064
 95  2 19 20 16  0.0100000  0  7 18 28 19 31  2 27 29
  23369304.244    -5845655.153 8  -4502915.83749  23369305.7094
  26464318.291     1331449.343 6   1086670.06649  26464321.8074
  24014403.814    -5096774.040 7  -3916002.98549  24014405.7604
  25225453.713    -4757387.262 6  -3846451.36649  25225456.3144
  27190754.713    -1017826.404 5   -733440.17449  27190760.6894
  25887629.041    -3527909.587 6  -3288538.66249  25887632.7444
  24670841.643     5674070.297 7   4494955.35549  24670843.6004
 95  2 19 20 16 30.0100000  0  7 18 28 19 31  2 27 29
  23379365.611    -5792782.765 8  -4461716.59149  23379367.2284
  26475842.775     1392009.820 6   1133860.03749  26475845.6584
  24018688.682    -5074257.944 7  -3898457.96849  24018690.6624
  25224953.885    -4760015.112 6  -3848498.97449  25224956.9434
  27181859.447    -1064575.242 5   -769867.78949  27181865.3074
  25882893.643    -3552791.838 6  -3307927.39549  25882897.4284
  24690581.299     5777802.894 7   4575785.90449  24690583.1034
 95  2 19 20 17  0.0100000  0  7 18 28 19 31  2 27 29
  23389525.400    -5739393.427 8  -4420114.52649  23389526.9244
  26487472.182     1453122.847 6   1181480.55749  26487475.4044
  24023002.838    -5051586.232 7  -3880791.69449  24023004.9354
  25224548.697    -4762142.914 6  -3850156.93449  25224551.5684
  27173006.244    -1111099.639 5   -806120.48549  27173011.9284
  25878171.291    -3577606.202 6  -3327263.24149  25878175.2644
  24710392.994     5881912.521 7   4656910.25249  24710394.9164
 95  2 19 20 17 30.0100000  0  7 18 28 19 31  2 27 29
  23399781.846    -5685493.669 8  -4378114.73149  23399783.6504
  26499205.353     1514780.454 6   1229525.42649  26499208.8344
  24027341.775    -5028784.741 7  -3863024.28549  24027343.9904
  25224237.041    -4763778.389 6  -3851431.27149  25224240.2994
  27164195.072    -1157398.597 5   -842197.56149  27164200.8734
  25873462.447    -3602351.287 6  -3346545.08049  25873466.5964
  24730275.127     5986395.187 7   4738325.27549  24730277.3184
 95  2 19 20 18  0.0100000  0  7 18 28 19 31  2 27 29
  23410135.861    -5631083.244 8  -4335717.00949  23410137.6314
  26511042.822     1576986.587 6   1277997.70449  26511046.7714
  24031708.627    -5005834.977 7  -3845141.34849  24031711.0764
  25224019.330    -4764924.158 6  -3852324.02749  25224022.6354
  27155428.205    -1203469.624 5   -878097.02349  27155433.5374
  25868768.096    -3627019.753 6  -3365767.23449  25868771.8464
  24750229.736     6091256.284 7   4820035.17749  24750231.9864
 95  2 19 20 18 30.0100000  0  7 18 28 19 31  2 27 29
  23420586.096    -5576167.457 8  -4292925.50649  23420588.0064
  26522984.393     1639739.164 6   1326895.80049  26522987.6974
  24036107.072    -4982721.777 7  -3827131.05649  24036109.5684
  25223893.213    -4765588.614 7  -3852841.73149  25223896.2134
  27146705.025    -1249312.413 5   -913818.61449  27146710.2644
  25864091.002    -3651599.512 6  -3384920.24849  25864095.2324
  24770260.932     6196523.244 7   4902061.33849  24770263.1934
 95  2 19 20 19  0.0100000  0  7 18 28 19 31  2 27 29
  23431133.189    -5520741.487 8  -4249736.45449  23431135.0764
  26535030.611     1703041.656 6   1376222.38549  26535034.1154
  24040540.307    -4959424.506 7  -3808977.32949  24040542.6744
  25223862.018    -4765753.078 6  -3852969.83149  25223865.0644
  27138023.580    -1294934.287 5   -949368.08749  27138028.6664
  25859433.189    -3676078.954 6  -3403995.09449  25859436.9984
  24790373.549     6302213.109 7   4984417.03649  24790375.8224
 95  2 19 20 19 30.0100000  0  7 18 28 19 31  2 27 29
  23441777.018    -5464808.658 8  -4206152.44949  23441778.8694
  26547180.713     1766892.818 6   1425976.50849  26547184.2994
  24045010.611    -4935932.717 7  -3790672.03549  24045013.0144
  25223929.775    -4765397.510 7  -3852692.72349  25223932.3424
  27129380.002    -1340354.118 5   -984760.11249  27129385.0764
  25854793.682    -3700459.479 6  -3422992.86649  25854796.8344
  24810567.049     6408331.339 7   5067106.51649  24810569.5454
 95  2 19 20 20  0.0100000  0  7 18 28 19 31  2 27 29
  23452517.346    -5408366.229 8  -4162171.35049  23452519.4324
  26559435.150     1831289.301 6   1476155.56949  26559438.5604
  24049519.150    -4912242.479 7  -3772212.10449  24049521.4354
  25224096.103    -4764517.700 6  -3852007.10949  25224099.1154
  27120773.463    -1385581.874 5  -1020002.43949  27120778.9824
  25850169.978    -3724754.685 6  -3441924.16149  25850173.3074
  24830841.275     6514872.975 7   5150125.92949  24830843.9824
 95  2 19 20 20 30.0100000  0  7 18 28 19 31  2 27 29
  23463358.674    -5351396.557 8  -4117779.41749  23463360.6074
  26571793.158     1896232.058 6   1526760.29649  26571796.4514
  24054061.986    -4888370.044 7  -3753610.20249  24054064.1784
  25224366.932    -4763098.742 7  -3850901.40249  25224369.5574
  27112203.088    -1430617.651 5  -1055095.19949  27112208.0684
  25845562.041    -3748969.729 6  -3460792.98749  25845565.5334
  24851197.400     6621844.124 7   5233480.02049  24851199.7794
 95  2 19 20 21  0.0110000  0  7 18 28 19 31  2 27 29
  23474299.265    -5293902.059 8  -4072978.53049  23474301.3274
  26584254.983     1961720.361 6   1577790.11549  26584258.6984
  24058635.936    -4864334.121 7  -3734880.90549  24058638.0224
  25224740.132    -4761136.234 6  -3849372.14949  25224742.9444
  27103667.632    -1475472.318 5  -1090046.82349  27103673.3394
  25840966.077    -3773120.601 6  -3479611.81149  25840969.0544
  24871633.335     6729235.211 7   5317161.33249  24871635.6434
 95  2 19 20 21 30.0110000  0  7 18 28 19 31  2 27 29
  23485339.851    -5235883.598 8  -4027769.35949  23485341.8314
  26596821.515     2027759.386 6   1629249.06949  26596824.9484
  24063241.475    -4840130.799 7  -3716021.17549  24063243.5264
  25225216.890    -4758629.850 6  -3847419.10649  25225219.8544
  27095168.515    -1520131.612 5  -1124846.19249  27095174.0464
  25836384.858    -3797198.458 6  -3498373.74749  25836388.0694
  24892145.819     6837030.500 7   5401157.61049  24892148.0584
 95  2 19 20 22  0.0110000  0  7 18 28 19 31  2 27 29
  23496477.022    -5177358.728 8  -3982165.57749  23496478.9444
  26609492.710     2094341.227 6   1681131.00649  26609495.5814
  24067876.507    -4815772.510 7  -3697040.68649  24067878.8154
  25225795.960    -4755588.531 7  -3845049.22649  25225799.1014
  27086708.132    -1564593.838 5  -1159492.00849  27086713.8744
  25831815.843    -3821206.455 6  -3517081.25049  25831819.5114
  24912731.608     6945209.048 7   5485452.52849  24912733.8934
 95  2 19 20 22 30.0110000  0  7 18 28 19 31  2 27 29
  23507711.452    -5118320.511 8  -3936161.79349  23507713.4214
  26622265.632     2161469.626 6   1733438.80949  26622269.3354
  24072542.702    -4791252.757 7  -3677934.38649  24072544.8004
  25226479.038    -4752000.228 7  -3842253.14349  25226482.0854
  27078285.405    -1608850.478 5  -1193977.62049  27078291.5584
  25827263.265    -3845129.344 6  -3535722.43649  25827266.3704
  24933391.968     7053777.778 7   5570051.48949  24933394.3474
 95  2 19 20 23  0.0110000  0  7 18 28 19 31  2 27 29
  23519038.140    -5058797.100 8  -3889779.93249  23519040.1204
  26635142.624     2229131.618 6   1786162.40649  26635145.7884
  24077240.147    -4766566.897 7  -3658698.64449  24077242.3514
  25227262.460    -4747879.567 7  -3839042.22349  25227265.0974
  27069900.608    -1652912.922 5  -1228311.90849  27069906.8664
  25822725.827    -3868974.174 6  -3554302.77949  25822729.1324
  24954120.913     7162711.105 7   5654934.55049  24954123.3504
 95  2 19 20 23 30.0110000  0  7 18 28 19 31  2 27 29
  23530463.569    -4998758.370 8  -3842996.52749  23530465.5614
  26648121.608     2297341.434 6   1839312.87049  26648125.1594
  24081975.218    -4741683.148 7  -3639308.71149  24081977.5974
  25228151.866    -4743208.225 7  -3835402.20949  25228154.5154
  27061561.194    -1696743.495 5  -1262465.54049  27061566.9134
  25818206.155    -3892726.290 6  -3572810.88149  25818209.3784
  24974922.054     7272020.518 7   5740110.67249  24974924.8784
 95  2 19 20 24  0.0110000  0  7 18 28 19 31  2 27 29
  23541990.382    -4938184.379 8  -3795796.03649  23541992.3274
  26661206.921     2366102.138 6   1892892.59149  26661210.2964
  24086749.772    -4716593.018 7  -3619757.96449  24086752.1984
  25229145.577    -4737985.942 7  -3831332.88649  25229148.6124
  27053266.249    -1740332.086 5  -1296430.60649  27053271.7454
  25813703.366    -3916388.309 6  -3591248.79449  25813706.8354
  24995798.663     7381726.910 7   5825596.11349  24995801.2294
 95  2 19 20 24 30.0110000  0  7 18 28 19 31  2 27 29
  23553619.413    -4877074.008 8  -3748177.58049  23553621.2764
  26674394.632     2435402.896 6   1946893.13849  26674398.0424
  24091563.077    -4691300.549 7  -3600049.54749  24091565.5974
  25230240.132    -4732231.327 7  -3826848.76449  25230243.1324
  27045016.202    -1783686.769 5  -1330213.39549  27045021.6634
  25809214.108    -3939978.441 6  -3609630.68049  25809217.0854
  25016748.983     7491821.948 7   5911384.39949  25016751.5614
 95  2 19 20 25  0.0110000  0  7 18 28 19 31  2 27 29
  23565347.483    -4815442.652 8  -3700153.17049  23565349.3584
  26687684.061     2505240.286 6   2001311.85049  26687687.5894
  24096413.671    -4665810.350 7  -3580187.05349  24096416.1204
  25231435.483    -4725951.360 7  -3821955.27649  25231438.2724
  27036808.757    -1826815.034 5  -1363819.78749  27036814.6634
  25804736.733    -3963508.426 6  -3627965.70549  25804740.6944
  25037770.491     7602291.454 7   5997464.48849  25037772.7764
 95  2 19 20 25 30.0110000  0  8 18 16 28 19 31  2 27 29
  23577177.249    -4753276.441 8  -3651711.98449  23577179.0544
  28104317.765       -8012.34913
  26701077.663     2575623.903 6   2056156.19849  26701081.2614
  24101301.913    -4640122.048 7  -3560170.20049  24101304.3394
  25232733.272    -4719133.384 7  -3816642.55549  25232736.2494
  27028646.476    -1869711.196 5  -1397245.31449  27028651.7614
  25800272.850    -3986965.744 6  -3646244.09149  25800276.4364
  25058866.593     7713151.601 7   6083848.96249  25058869.1474
 95  2 19 20 26  0.0110000  0  8 18 16 28 19 31  2 27 29
  23589105.546    -4690592.058 8  -3602867.02849  23589107.4214
  28100214.655      -29575.627 3
  26714575.061     2646554.464 6   2111426.72749  26714578.4014
  24106224.202    -4614255.728 7  -3540014.63149  24106226.4874
  25234134.085    -4711769.461 7  -3810904.41649  25234137.1554
  27020522.780    -1912397.613 5  -1430507.40749  27020528.3474
  25795825.483    -4010335.983 6  -3664454.63649  25795829.3394
  25080036.944     7824401.973 7   6170537.50949  25080039.6164
 95  2 19 20 26 30.0110000  0  8 18 16 28 19 31  2 27 29
  23601130.882    -4627399.705 8  -3553626.24849  23601132.5224
  28096198.022      -50682.811 3     -4896.31657  28096204.9174
  26728177.311     2718031.244 6   2167122.88449  26728180.1714
  24111177.726    -4588222.747 7  -3519729.19449  24111180.2224
  25235642.179    -4703844.615 6  -3804729.19049  25235645.2254
  27012440.452    -1954872.664 5  -1463604.78749  27012445.8784
  25791394.257    -4033620.141 6  -3682598.09149  25791397.7024
  25101278.257     7936026.782 7   6257517.82249  25101280.8584
 95  2 19 20 27  0.0110000  0  8 18 16 28 19 31  2 27 29
  23613249.890    -4563714.254 8  -3504001.24149  23613251.7654
  28092266.319      -71342.201 3    -20994.49149  28092273.2254
  26741879.030     2790036.811 6   2223231.08649  26741881.6904
  24116159.593    -4562044.068 7  -3499330.23049  24116161.8434
  25237254.202    -4695371.561 7  -3798126.79549  25237257.2964
  27004394.819    -1997153.310 5  -1496550.69149  27004400.0814
  25786977.163    -4056834.094 6  -3700686.85049  25786980.5154
  25122588.304     8048010.542 7   6344777.83649  25122591.3154
 95  2 19 20 27 30.0110000  0  8 18 16 28 19 31  2 27 29
  23625465.265    -4499522.266 8  -3453981.52749  23625467.1514
  28088421.319      -12746.35314    -36740.29049  28088427.4484
  26755681.413     2862570.112 6   2279750.51949  26755684.6474
  24121168.983    -4535718.803 7  -3478817.03449  24121171.2224
  25238972.444    -4686345.347 7  -3791093.35149  25238975.4794
  26996391.554    -2039213.223 5  -1529324.61649  26996396.5224
  25782573.296    -4079975.712 6  -3718719.23649  25782576.2144
  25143967.765     8160361.389 6   6432323.90949  25143970.4254
 95  2 19 20 28  0.0110000  0  8 18 16 28 19 31  2 27 29
  23637777.069    -4434821.878 8  -3403565.66749  23637778.9214
  28084660.530      -32502.959 3    -52135.00148  28084666.2964
  26769583.327     2935623.433 6   2336675.16049  26769586.6794
  24126206.679    -4509247.010 7  -3458189.66749  24126209.0114
  25240794.046    -4676772.287 7  -3783633.79949  25240796.7294
  26988431.335    -2081042.087 5  -1561918.50749  26988436.1514
  25778179.600    -4103062.442 6  -3736708.86149  25778183.4444
  25165415.663     8273070.924 6   6520149.47149  25165418.3824
 95  2 19 20 28 30.0110000  0  8 18 16 28 19 31  2 27 29
  23650187.554    -4369604.680 8  -3352747.08449  23650189.3934
  28080987.397      -51811.943 3    -67180.91547  28080994.4684
  26783584.788     3009200.288 6   2394007.75649  26783588.1634
  24131276.765    -4482601.416 7  -3437426.87149  24131278.9094
  25242718.335    -4666658.823 7  -3775753.15249  25242721.5114
  26980520.077    -2122613.273 5  -1594311.60949  26980526.0074
  25773797.710    -4126091.019 6  -3754653.15749  25773801.4014
  25186932.491     8386144.375 6   6608258.60049  25186935.1984
 95  2 19 20 29  0.0110000  0  8 18 16 28 19 31  2 27 29
  23662696.272    -4303872.551 8  -3301527.26149  23662697.8314
  28077391.350      -70701.694 3    -81900.15948  28077398.9134
  26797682.874     3083289.909 6   2451739.89049  26797686.5774
  24136380.311    -4455784.127 7  -3416530.28349  24136382.3974
  25244744.007    -4656013.092 7  -3767457.74749  25244746.6674
  26972655.640    -2163939.893 5  -1626514.12549  26972660.5854
  25769428.624    -4149051.849 6  -3772544.67049  25769432.4794
  25208518.749     8499578.538 6   6696648.80449  25208521.3394
 95  2 19 20 29 30.0110000  0  8 18 16 28 19 31  2 27 29
  23675302.561    -4237624.309 8  -3249905.27249  23675304.4484
  28073878.741      -89165.114 3    -96287.24646  28073885.1164
  26811881.710     3157902.531 6   2509879.56849  26811885.0734
  24141517.390    -4428788.360 7  -3395494.62749  24141519.6404
  25246873.350    -4644822.136 7  -3758737.49949  25246875.9174
  26964838.038    -2205020.769 5  -1658525.15449  26964843.0544
  25765075.710    -4171925.562 6  -3790368.29249  25765079.0504
  25230176.616     8613389.276 6   6785332.44049  25230179.1124
 95  2 19 20 30  0.0110000  0  8 18 16 28 19 31  2 27 29
  23688006.546    -4170865.962 8  -3197885.79849  23688008.3154
  28070448.101     -107199.466 4   -110339.97048  28070454.7104
  26826179.491     3233040.395 6   2568428.52549  26826182.7614
  24146688.585    -4401613.532 7  -3374319.44249  24146690.7414
  25249106.163    -4633089.585 7  -3749595.23349  25249108.9294
  26957062.780    -2245883.232 5  -1690365.99649  26957067.4334
  25760742.249    -4194699.125 6  -3808113.89049  25760745.4134
  25251905.733     8727577.419 6   6874310.16149  25251908.4874
 95  2 19 20 30 30.0110000  0  7 18 16 19 31  2 27 29
  23700805.413    -4103606.396 8  -3145475.76549  23700807.3114
  28067096.999     -124803.733 3   -124057.53847  28067102.6014
  24151892.358    -4374269.445 7  -3353012.36449  24151894.3744
  25251443.358    -4620806.914 7  -3740024.29549  25251446.2414
  26949325.390    -2286543.733 5  -1722049.46649  26949329.7374
  25756428.936    -4217364.428 6  -3825775.12649  25756432.0184
  25273706.335     8842142.285 6   6963581.43549  25273708.9364
 95  2 19 20 31  0.0110000  0  8 18 16 28 19 31  2 27 29
  23713700.038    -4035843.046 8  -3092673.16649  23713702.0774
  28063832.679     -141956.739 3   -137423.42647  28063838.0344
                     73659.222 5     45553.44419  26855080.272    26855077.108
  24157125.858    -4346764.961 7  -3331580.30149  24157127.9334
  25253889.132    -4607955.289 7  -3730010.02549  25253891.9094
  26941623.608    -2327017.003 5  -1753587.04349  26941627.8864
  25752135.351    -4239929.984 6  -3843358.63049  25752138.3624
  25295580.702     8957092.376 6   7053152.87349  25295583.6204
 95  2 19 20 31 30.0110000  0  8 18 16 28 19 31  2 27 29
  23726686.515    -3967600.652 8  -3039497.29649  23726688.6124
  28060655.319     -158655.792 3   -150435.65047  28060660.6984
                    150379.749 5    105335.630 9  26869679.933    26869676.436
  24162389.069    -4319106.237 7  -3310028.04549  24162390.9214
  25256441.343    -4594542.624 7  -3719558.57549  25256443.7684
  26933957.468    -2367300.490 5  -1784976.73549  26933962.3664
  25747855.944    -4262415.296 6  -3860879.61249  25747859.3194
  25317527.718     9072423.663 6   7143021.35949  25317530.2264
 95  2 19 20 32  0.0110000  0  8 18 16 28 19 31  2 27 29
  23739766.265    -3898865.387 8  -2985937.36849  23739768.3744
  28057564.374     -174896.780 3   -163090.94648  28057571.6794
                    227630.343 5    165530.859 9  26884379.913    26884377.272
  24167684.819    -4291276.236 7  -3288342.32649  24167686.9994
  25259103.546    -4580553.246 7  -3708657.75049  25259106.5584
  26926332.366    -2407369.369 5  -1816199.20749  26926337.2064
  25743590.663    -4284830.359 6  -3878345.85049  25743593.8044
  25339546.507     9188131.883 6   7233183.56349  25339549.5304
 95  2 19 20 32 30.0110000  0  8 18 16 28 19 31  2 27 29
  23752942.530    -3829625.225 8  -2931984.00849  23752944.5344
  28054561.343     -190680.381 3   -175389.85346  28054570.0654
                    305410.976 5    226139.108 9  26899181.561    26899178.194
  24173014.647    -4263267.528 7  -3266517.35349  24173017.1204
  25261878.929    -4565968.292 7  -3697292.82849  25261881.5774
  26918753.741    -2447200.072 6  -1847236.07749  26918758.2764
  25739336.522    -4307185.460 6  -3895765.36649  25739339.4524
  25361635.241     9304209.168 6   7323633.33749  25361638.0654
 95  2 19 20 33  0.0110000  0  8 18 16 28 19 31  2 27 29
  23766215.546    -3759873.256 8  -2877631.84849  23766217.4794
  28051647.546     -205993.749 3   -187322.37449  28051652.8084
                    383728.770 5    287165.918 9  26914084.522    26914081.554
  24178383.280    -4235054.574 7  -3244533.23149  24178385.6834
  25264767.569    -4550790.941 7  -3685466.30849  25264770.1364
  26911222.655    -2486774.897 5  -1878073.55349  26911227.7764
  25735095.819    -4329470.744 6  -3913130.47949  25735099.2064
  25383795.429     9420662.878 6   7414376.42949  25383797.9954
 95  2 19 20 33 30.0110000  0  8 18 16 28 19 31  2 27 29
  23779586.280    -3689610.475 8  -2822881.64649  23779588.3904
  28048821.319     -220848.681 3   -198897.54647  28048828.0694
                    462575.741 5    348605.076 9  26929089.327    26929085.507
  24183792.147    -4206632.562 7  -3222386.20749  24183794.4794
  25267765.132    -4535036.850 7  -3673190.38249  25267767.6044
  26903741.608    -2526085.180 5  -1908704.90449  26903747.0584
  25730869.288    -4351679.933 6  -3930436.28749  25730872.5224
  25406024.569     9537475.329 6   7505399.06049  25406027.0894
 95  2 19 20 34  0.0110000  0  8 18 16 28 19 31  2 27 29
  23793056.499    -3618824.854 8  -2767724.03849  23793058.3154
  28046081.608     -235239.992 4   -210111.51848  28046089.2764
  26944190.319                       45039.83716
  24189240.405    -4178003.733 7  -3200078.02149  24189242.4444
  25270872.225    -4518709.992 7  -3660468.14849  25270874.9214
  26896308.241    -2565146.984 5  -1939142.62149  26896313.6794
  25726659.077    -4373804.694 6  -3947676.32349  25726662.4644
  25428321.561     9654647.192 6   7596701.74949  25428324.2224
 95  2 19 20 34 30.0110000  0  8 18 16 28 19 31  2 27 29
  23806623.663    -3547527.697 8  -2712167.82949  23806625.7964
  28043431.983     -249165.113 4   -220962.28247  28043439.1474
  26959394.983      124938.643 6     20795.74659  26959398.6284
  24194724.616    -4149183.454 7  -3177620.65449  24194726.5034
  25274084.030    -4501832.475 7  -3647316.82849  25274086.7144
  26888918.718    -2603981.201 5  -1969403.01849  26888923.9914
  25722466.202    -4395838.240 6  -3964845.26449  25722469.4364
  25450688.288     9772185.971 6   7688290.35749  25450691.0774
 95  2 19 20 35  0.0110000  0  8 18 16 28 19 31  2 27 29
  23820287.327    -3475724.102 8  -2656216.99449  23820289.6004
  28040872.022     -262615.899 3   -231443.42447  28040877.1674
  26974699.718      205367.926 6     83467.88249  26974703.3744
  24200244.374    -4120175.418 7  -3155016.99249  24200246.3084
  25277399.186    -4484410.197 7  -3633741.02049  25277401.6944
  26881572.929    -2642583.197 6  -1999482.44949  26881577.2414
  25718293.366    -4417767.010 6  -3981932.57249  25718296.9644
  25473127.015     9890104.155 6   7780174.59749  25473130.4724
 95  2 19 20 35 30.0110000  0  8 18 16 28 19 31  2 27 29
  23834051.624    -3403393.880 8  -2599855.80949  23834053.8154
  28038401.960     -275599.740 3   -241560.67847  28038408.1474
  26990105.952      286329.578 6    146554.84149  26990109.6204
  24205797.061    -4090996.539 7  -3132280.21349  24205799.3474
  25280820.600    -4466430.012 7  -3619730.48049  25280822.9794
  26874274.382    -2680936.525 6  -2029368.11049  26874279.0114
  25714139.811    -4439594.819 6  -3998941.21649  25714143.2574
  25495638.210    10008400.517 6   7872353.52549  25495641.4914
 95  2 19 20 36  0.0110000  0  8 18 16 28 19 31  2 27 29
  23847918.350    -3330523.852 8  -2543073.98749  23847920.5074
  28036020.311     -288108.753 4   -251307.92848  28036027.3234
  27005614.421      367826.515 6    210058.91349  27005617.9364
  24211382.921    -4061645.060 7  -3109408.92749  24211385.0074
  25284351.554    -4447873.778 7  -3605271.06049  25284354.2844
  26867024.647    -2719034.177 5  -2059054.54849  26867029.4404
  25710004.265    -4461327.832 6  -4015875.97649  25710006.9834
  25518223.335    10127085.484 6   7964835.26549  25518226.5114
 95  2 19 20 36 30.0110000  0  8 18 16 28 19 31  2 27 29
  23861887.288    -3257115.545 8  -2485872.73449  23861889.5154
  28033731.475     -300144.108 3   -260686.19746  28033736.1044
  27021223.491      449850.783 6    273973.90349  27021227.1004
  24217000.929    -4032117.580 7  -3086400.50849  24217003.3434
  25287994.335    -4428729.825 7  -3590353.69449  25287996.9484
  26859828.147    -2756855.447 6  -2088525.61849  26859833.2334
  25705882.077    -4482986.207 6  -4032752.58149  25705885.5114
  25540877.663    10246134.070 6   8057600.33349  25540880.5934
 95  2 19 20 37  0.0110000  0  8 18 16 28 19 31  2 27 29
  23875959.968    -3183162.364 8  -2428246.90149  23875962.0654
  28031532.640     -311693.320 3   -269685.57348  28031538.8624
  27036933.054      532403.276 6    338300.49349  27036936.9794
  24222655.913    -4002402.776 7  -3063246.10849  24222658.1754
  25291754.007    -4408974.948 7  -3574960.27349  25291756.4564
  26852684.319    -2794395.366 6  -2117777.44049  26852688.9134
  25701775.819    -4504566.578 6  -4049568.40149  25701779.2654
  25563598.194    10365528.550 6   8150634.93349  25563600.8664
 95  2 19 20 37 30.0110000  0  8 18 16 28 19 31  2 27 29
  23890138.475    -3108655.490 8  -2370189.61849  23890140.5504
  28029429.530       -5467.42115   -278301.50049  28029436.0694
  27052741.975      615483.617 6    403038.40749  27052746.1474
  24228348.788    -3972487.789 7  -3039935.73449  24228350.6044
  25295629.640    -4388607.647 7  -3559089.64149  25295631.8084
  26845590.436    -2831672.876 6  -2146824.79949  26845595.0424
  25697684.522    -4526066.545 6  -4066321.57749  25697687.4174
  25586384.022    10485268.020 6   8243938.36549  25586386.9644
 95  2 19 20 38  0.0110000  0  8 18 16 28 19 31  2 27 29
  23904417.936    -3033617.157 8  -2311718.20849  23904419.9404
  28027417.757      -16038.241 4   -286538.51649  28027423.9794
  27068651.093      699082.017 6    468179.97249  27068654.7264
  24234079.421    -3942371.912 7  -3016468.81049  24234081.3194
  25299620.468    -4367636.212 7  -3542748.26249  25299622.7534
  26838541.335    -2868714.363 6  -2175688.24849  26838546.0694
  25693610.358    -4547475.497 6  -4083003.83349  25693613.3474
  25609233.702    10605345.514 6   8337505.17349  25609236.8904
 95  2 19 20 38 30.0110000  0  8 18 16 28 19 31  2 27 29
  23918796.975    -2958056.096 8  -2252839.48649  23918798.6634
  28025497.085      -26131.036 4   -294403.03049  28025502.7454
  27084657.905      783201.251 6    533727.38149  27084661.2104
  24239847.788    -3912056.476 7  -2992846.38949  24239849.9914
  25303725.304    -4346065.074 7  -3525939.58249  25303727.9404
  26831536.827    -2905523.490 6  -2204370.62849  26831541.5734
  25689557.819    -4568772.332 6  -4099598.72249  25689560.9484
  25632147.601    10725758.011 6   8431333.03449  25632150.6594
 95  2 19 20 39  0.0110000  0  7 18 28 19 31  2 27 29
  23933273.882    -2881977.620 8  -2193557.57749  23933275.6404
  27100762.632      867832.850 6    599674.03449  27100766.9214
  24245651.851    -3881557.103 7  -2969080.64049  24245653.8904
  25307941.554    -4323907.903 7  -3508674.25049  25307944.5184
  26824571.929    -2942123.011 6  -2232889.68249  26824576.4644
  25685527.436    -4589948.111 6  -4116099.28849  25685531.0584
  25655128.100    10846519.495 6   8525432.83249  25655131.3114
 95  2 19 20 39 30.0110000  0  8 18 16 28 19 31  2 27 29
  23947846.272    -2805398.700 8  -2133885.71349  23947848.1244
  28021919.061       -6996.43115
  27116963.780      952967.873 6    666012.96049  27116967.3904
  24251488.702    -3850883.672 7  -2945179.26549  24251490.6944
  25312269.327    -4301166.071 7  -3490953.33949  25312272.5034
  26817648.147    -2978506.251 5  -2261240.20649  26817652.8114
  25681519.460    -4611011.926 6  -4132512.60849  25681522.9404
  25678174.976    10967633.213 6   8619807.09749  25678178.0114
 95  2 19 20 40  0.0110000  0  8 18 16 28 19 31  2 27 29
  23962513.546    -2728322.296 7  -2073826.19649  23962515.6794
  28020258.343      -15719.387 5     -2675.73659  28020264.7884
  27133260.366     1038606.415 6    732744.24249  27133263.7414
  24257358.976    -3820035.728 7  -2921141.90149  24257360.8514
  25316711.632    -4277820.471 7  -3472761.95549  25316714.2924
  26810769.499    -3014653.084 5  -2289406.51649  26810774.5734
  25677530.358    -4631975.592 6  -4148847.89049  25677533.5934
  25701288.671    11089096.741 6   8714453.92849  25701291.4014
 95  2 19 20 40 30.0110000  0  8 18 16 28 19 31  2 27 29
  23977275.561    -2650746.399 7  -2013377.46849  23977277.6364
  28018690.718      -23958.697 4     -9096.01549  28018696.6834
  27149653.444     1124751.729 6    799870.39949  27149657.2884
  24263263.140    -3789009.618 7  -2896965.70049  24263265.1674
  25321271.663    -4253859.335 7  -3454090.94649  25321274.4294
  26803938.640    -3050553.106 5  -2317380.50049  26803943.7254
  25673556.671    -4652854.550 6  -4165117.16549  25673560.2224
  25724470.202    11210915.645 6   8809377.69049  25724473.1434
 95  2 19 20 41  0.0120000  0  8 18 16 28 19 31  2 27 29
  23992133.144    -2572669.892 7  -1952538.65449  23992135.3364
  28017217.793      -31694.718 4    -15124.05549  28017223.6874
  27166141.941     1211403.862 5    867391.48149  27166146.2424
  24269201.277    -3757804.999 7  -2872650.40649  24269203.5864
  25325948.144    -4229284.468 7  -3434941.69549  25325950.6764
  26797155.269    -3086198.896 6  -2345156.37149  26797160.6014
  25669595.918    -4673667.848 6  -4181335.27549  25669599.6334
  25747720.066    11333094.506 6   8904581.92049  25747723.1134
 95  2 19 20 41 30.0120000  0  8 18 16 28 19 31  2 27 29
  24007083.410    -2494105.515 7  -1891319.67849  24007085.4844
  28015839.996      -38936.158 4    -20766.72548  28015846.5474
  27182726.691     1298552.665 6    935299.58949  27182730.9344
  24275171.426    -3726431.290 7  -2848203.35549  24275173.6174
  25330738.558    -4204109.975 7  -3415325.20449  25330741.2304
  26790421.332    -3121587.404 6  -2372731.77749  26790426.6294
  25665645.941    -4694425.957 6  -4197510.37549  25665649.4104
  25771033.402    11455604.988 6   9000044.56549  25771036.2734
 95  2 19 20 42  0.0120000  0  8 18 16 28 19 31  2 27 29
  24022130.848    -2415030.455 7  -1829702.76649  24022132.9454
  28014557.051      -45674.734 3    -26017.54649  28014562.3944
  27199406.543     1386206.574 6   1003601.27649  27199410.8204
  24281174.746    -3694884.910 7  -2823621.75949  24281177.0314
  25335639.371    -4178355.599 7  -3395256.86349  25335641.9964
  26783736.246    -3156714.838 6  -2400103.73449  26783741.4844
  25661710.441    -4715110.442 6  -4213628.10849  25661713.4414
  25794411.496    11578455.999 6   9095772.55249  25794414.5314
 95  2 19 20 42 30.0120000  0  8 18 16 28 19 31  2 27 29
  24037274.926    -2335448.244 7  -1767690.67549  24037277.0354
  28013370.894      -51913.096 4    -30878.65349  28013376.3094
  27216182.324     1474365.566 6   1072296.53949  27216186.6484
  24287209.832    -3663170.708 7  -2798909.39949  24287212.0824
  25340646.887    -4152038.954 7  -3374750.38249  25340649.6524
  26777101.965    -3191579.443 6  -2427270.89849  26777106.3484
  25657792.879    -4735696.444 6  -4229669.10049  25657795.5164
  25817853.144    11701643.842 6   9191763.01049  25817856.0274
 95  2 19 20 43  0.0120000  0  8 18 16 28 19 31  2 27 29
  24052515.488    -2255358.579 7  -1705283.16349  24052517.7624
  28012274.660      -57677.747 4    -35370.51448  28012281.3284
  27233054.402     1563029.942 6   1141385.60649  27233058.4454
  24293277.144    -3631284.174 7  -2774062.75249  24293279.5124
  25345760.965    -4125165.877 7  -3353810.32149  25345763.8714
  26770517.246    -3226181.340 6  -2454233.34049  26770521.5234
  25653897.348    -4756168.416 6  -4245621.22949  25653899.9494
  25841357.527    11825160.940 6   9288010.02949  25841360.1414
 95  2 19 20 43 30.0120000  0  8 18 16 28 19 31  2 27 29
  24067852.433    -2174762.122 7  -1642480.75049  24067854.5784
  28011265.738      -62972.826 3    -39496.54448  28011271.7384
  27250022.551     1652195.500 6   1210865.22349  27250026.5234
  24299379.387    -3599217.240 7  -2749075.53049  24299381.5904
  25350980.801    -4097736.332 7  -3332436.64649  25350983.6254
  26763981.082    -3260527.434 6  -2480996.47049  26763985.1954
  25650026.433    -4776508.066 6  -4261470.25749  25650029.4454
  25864923.512    11949000.995 6   9384508.70849  25864926.0904
 95  2 19 20 44  0.0120000  0  8 18 16 28 19 31  2 27 29
  24083286.113    -2093657.708 7  -1579282.52449  24083288.1414
  28010351.902      -67776.165 3    -43239.39349  28010356.8834
  27267087.058     1741870.064 6   1280741.43949  27267090.6914
  24305520.683    -3566945.440 7  -2723928.67849  24305522.8164
  25356310.426    -4069729.663 7  -3310613.27049  25356313.1444
  26757495.738    -3294606.624 6  -2507551.62649  26757500.5904
  25646184.613    -4796695.541 6  -4277200.70449  25646187.8944
  25888553.676    12073178.872 6   9481270.61049  25888556.8284
 95  2 19 20 44 30.0120000  0  8 18 16 28 19 31  2 27 29
  24098815.199    -2012053.134 7  -1515694.56849  24098817.1214
  28009533.582      -72077.219 4    -46590.88248  28009539.4884
  27284247.543     1832050.365 6   1351011.76749  27284251.3984
  24311702.324    -3534459.565 7  -2698615.01149  24311704.3164
  25361755.527    -4041113.252 7  -3288314.76849  25361758.3514
  26751061.144    -3328422.955 6  -2533901.95849  26751066.1254
  25642367.785    -4816753.280 6  -4292830.05049  25642370.8914
  25912248.582    12197694.215 6   9578295.48849  25912251.9104
 95  2 19 20 45  0.0120000  0  8 18 16 28 19 31  2 27 29
  24114440.379    -1929941.035 7  -1451711.13249  24114442.3714
  28008812.660      -75866.646 4    -49543.65648  28008817.6414
  27301503.754     1922730.737 6   1421671.74449  27301507.6804
  24317926.316    -3501753.662 7  -2673129.89549  24317928.2154
  25367318.269    -4011881.537 7  -3265536.80249  25367321.2114
  26744674.637    -3361982.471 6  -2560052.16149  26744679.5124
  25638570.043    -4836710.226 6  -4308380.87049  25638573.4184
  25936007.613    12322548.509 6   9675584.46749  25936010.9184
 95  2 19 20 45 30.0120000  0  8 18 16 28 19 31  2 27 29
  24130163.980    -1847313.387 7  -1387325.97449  24130166.0554
  28008191.910      -79132.061 4    -52088.09548  28008197.0784
  27318854.238     2013912.338 5   1492722.28549  27318859.0194
  24324193.262    -3468820.757 7  -2647467.90149  24324195.0194
  25372998.894    -3982028.780 7  -3242274.91049  25373001.6484
  26738338.918    -3395279.370 6  -2585997.73849  26738344.1804
  25634789.496    -4856574.705 6  -4323859.63549  25634792.9534
  25959834.051    12447758.348 6   9773150.50649  25959837.4614
 95  2 19 20 46  0.0120000  0  8 18 16 28 19 31  2 27 29
  24145985.199    -1764173.718 7  -1322541.83749  24145987.1914
  28007665.191      -81897.287 3    -54242.81048  28007671.2974
  27336300.184     2105587.200 5   1564157.18849  27336304.4614
  24330498.723    -3435686.617 7  -2621649.09649  24330500.7384
  25378798.308    -3951552.438 7  -3218527.10849  25378801.3324
  26732051.801    -3428317.290 6  -2611741.50249  26732056.5234
  25631021.707    -4876379.293 6  -4339291.73049  25631025.0704
  25983728.215    12573323.310 6   9870993.25849  25983731.4844
 95  2 19 20 46 30.0120000  0  8 18 16 28 19 31  2 27 29
  24161903.605    -1680520.794 7  -1257357.76649  24161905.5274
  28007232.269      -84171.100 3    -56014.56948  28007238.6564
  27353838.566     2197752.167 5   1635974.01249  27353842.5164
  24336840.707    -3402356.762 7  -2595677.78549  24336843.0514
  25384716.129    -3920455.358 7  -3194295.61449  25384719.1644
  26725814.144    -3461096.988 6  -2637284.06749  26725818.2114
  25627261.379    -4896137.849 6  -4354687.95849  25627264.2624
  26007689.160    12699235.907 6   9969106.90949  26007692.4064
 95  2 19 20 47  0.0120000  0  8 18 16 28 19 31  2 27 29
  24177920.613    -1596351.310 7  -1191771.17349  24177922.5594
  28006890.152      -85968.651 3    -57415.22347  28006896.6444
  27371470.746     2290410.227 5   1708175.04449  27371475.0944
  24343218.762    -3368839.186 7  -2569560.19649  24343221.2234
  25390747.379    -3888760.737 7  -3169598.50349  25390750.0744
  26719626.027    -3493615.966 6  -2662623.49449  26719629.7074
  25623513.832    -4915831.154 6  -4370033.34549  25623516.7624
  26031714.840    12825490.566 6  10067487.08249  26031717.5704
 95  2 19 20 47 30.0120000  0  8 18 16 28 19 31  2 27 29
  24194034.840    -1511670.582 7  -1125786.21549  24194036.6334
  28006636.371      -87308.291 4    -58459.06349  28006641.7624
  27389196.519     2383558.980 5   1780758.42549  27389200.3284
  24349631.816    -3335139.377 7  -2543300.60749  24349634.0904
  25396892.676    -3856467.444 7  -3144434.89449  25396895.3714
  26713487.098    -3525875.023 6  -2687760.36349  26713491.6444
  25619780.723    -4935448.876 6  -4385319.84449  25619783.5704
  26055802.965    12952075.781 6  10166124.83949  26055805.8124
 95  2 19 20 48  0.0120000  0  8 18 16 28 19 31  2 27 29
  24210245.262    -1426482.006 7  -1059405.53449  24210247.3124
  28006470.332      -88176.247 3    -59135.36948  28006476.6014
  27407015.426     2477199.303 5   1853724.88149  27407019.1764
  24356077.699    -3301264.284 7  -2516904.43649  24356079.9964
  25403154.238    -3823560.506 7  -3118793.11149  25403157.0514
  26707397.543    -3557875.913 6  -2712696.07449  26707402.0314
  25616063.793    -4954981.258 7  -4400539.84749  25616066.6764
  26079949.519    13078968.975 6  10265002.59549  26079952.5314
 95  2 19 20 48 30.0120000  0  8 18 16 28 19 31  2 27 29
  24226553.129    -1340784.116 7   -992627.98049  24226555.0394
  28006398.683      -88546.155 3    -59423.58148  28006404.8364
  27424928.816     2571335.776 5   1927077.90249  27424933.3874
  24362561.785    -3267193.178 7  -2490355.52249  24362564.1644
  25409533.605    -3790038.649 7  -3092672.17849  25409536.1844
  26701354.926    -3589628.722 6  -2737438.45249  26701359.6374
  25612366.449    -4974410.185 6  -4415679.23749  25612369.2384
  26104153.043    13206158.638 6  10364111.35349  26104156.5704
 95  2 19 20 49  0.0120000  0  8 18 16 28 19 31  2 27 29
  24242960.355    -1254565.163 7   -925444.39749  24242962.1844
  28006426.426      -88403.166 4    -59312.12449  28006432.6844
  27442937.629     2665967.910 5   2000817.15949  27442942.1874
  24369081.355    -3232930.916 7  -2463657.65649  24369083.7464
  25416029.801    -3755899.205 7  -3066069.99649  25416032.2384
  26695359.957    -3621132.907 6  -2761987.11049  26695364.9494
  25608691.824    -4993722.418 7  -4430727.69849  25608694.6484
  26128412.316    13333638.361 6  10463446.13249  26128415.5164
 95  2 19 20 49 30.0120000  0  8 18 16 28 19 31  2 27 29
  24259464.379    -1167836.397 7   -857863.56549  24259466.0084
  28006554.621      -87734.232 4    -58790.82748  28006561.3014
  27461038.410     2761090.958 5   2074938.96149  27461041.9614
  24375638.957    -3198470.471 7  -2436805.35049  24375641.3014
  25422647.746    -3721122.466 7  -3038971.23049  25422650.5474
  26689411.723    -3652389.973 6  -2786343.20449  26689416.3984
  25605038.441    -5012919.165 7  -4445686.16649  25605041.2894
  26152727.137    13461412.683 6  10563010.47549  26152729.8094
 95  2 19 20 50  0.0120000  0  8 18 16 28 19 31  2 27 29
  24276063.379    -1080608.187 7   -789893.55049  24276064.8914
  28006783.566      -86528.713 4    -57851.45847  28006790.1644
  27479232.426     2856701.671 5   2149440.75649  27479236.6564
  24382232.230    -3163822.019 7  -2409806.54449  24382234.8674
  25429384.059    -3685721.208 7  -3011385.81549  25429386.8014
  26683511.113    -3683399.942 6  -2810506.75849  26683515.5554
  25601409.262    -5031991.191 7  -4460547.45449  25601412.0624
  26177098.941    13589490.354 6  10662811.18649  26177102.1994
 95  2 19 20 50 30.0120000  0  8 18 16 28 19 31  2 27 29
  24292759.535     -992869.034 7   -721525.39649  24292761.3164
  28007113.199      -84796.410 4    -56501.58947  28007119.6214
  27497520.590     2952801.375 6   2224323.58749  27497524.8444
  24388863.269    -3128975.917 7  -2382653.72849  24388866.0354
  25436235.379    -3649717.591 7  -2983331.03549  25436238.4374
  26677659.762    -3714147.985 6  -2834466.20249  26677664.4024
  25597805.590    -5050927.570 7  -4475303.03149  25597808.3324
  26201533.121    13717893.019 6  10762865.14649  26201536.5784
 95  2 19 20 51  0.0120000  0  7 18 28 19 31  2 27 29
  24309549.762     -904635.417 7   -652771.94649  24309551.7894
  27515899.769     3049385.873 6   2299584.18149  27515903.4734
  24395530.277    -3093939.602 7  -2355352.69849  24395532.5984
  25443200.808    -3613115.013 7  -2954809.54249  25443203.8444
  26671861.637    -3744615.446 6  -2858207.00849  26671865.5744
  25594228.262    -5069726.600 7  -4489951.59549  25594231.2504
  26226031.957    13846633.652 6  10863182.44549  26226034.8164
 95  2 19 20 51 30.0120000  0  8 18 16 28 19 31  2 27 29
  24326430.316     -815928.703 7   -583649.85349  24326432.3554
  28008060.621        2651.977 4
  27534370.160     3146449.599 5   2375218.18549  27534374.7664
  24402232.668    -3058719.384 7  -2327908.36149  24402235.0004
  25450277.848    -3575924.663 7  -2925830.03349  25450280.6724
  26666116.144    -3774809.556 6  -2881734.81949  26666120.3284
  25590674.363    -5088404.776 7  -4504505.97949  25590677.1644
  26250595.902    13975717.728 6  10963767.36649  26250600.0514
 95  2 19 20 52  0.0120000  0  8 18 16 28 19 31  2 27 29
  24343405.894     -726722.745 7   -514138.73349  24343407.6644
  28008675.723        5886.845 4       179.32659  28008681.7234
  27552932.441     3243997.924 5   2451229.81549  27552936.4614
  24408969.223    -3023320.179 7  -2300324.55549  24408971.3444
  25457467.027    -3538142.238 7  -2896389.17849  25457469.8404
  26660423.355    -3804723.465 6  -2905044.28949  26660427.8554
  25587143.293    -5106958.857 7  -4518963.66749  25587145.8124
  26275222.941    14105135.299 6  11064612.15949  26275226.4574
 95  2 19 20 52 30.0120000  0  8 18 16 28 19 31  2 27 29
  24360475.238     -637022.165 7   -444242.19949  24360477.0554
  28009386.598        9618.619 5      3087.22449  28009393.6214
  27571587.152     3342023.550 5   2527613.36849  27571591.3714
  24415739.887    -2987739.947 7  -2272599.68849  24415741.9614
  25464772.238    -3499756.605 7  -2866478.27649  25464774.7584
  26654783.543    -3834361.439 6  -2928138.73849  26654787.6684
  25583631.082    -5125415.477 7  -4533345.40649  25583633.5784
  26299912.019    14234874.890 6  11165707.87849  26299915.6414
 95  2 19 20 53  0.0120000  0  8 18 16 28 19 31  2 27 29
  24377636.894     -546835.692 7   -373967.03949  24377638.5594
  28010191.871       13852.214 5      6386.17649  28010199.2234
  27590330.324     3440520.382 5   2604364.09449  27590334.8944
  24422544.910    -2951978.763 7  -2244733.82049  24422547.2304
  25472194.887    -3460750.408 7  -2836083.82149  25472197.3364
  26649194.105    -3863732.739 6  -2951025.39849  26649198.6174
  25580133.598    -5143793.683 7  -4547666.04249  25580136.2584
  26324659.730    14364923.198 6  11267044.15649  26324662.5904
 95  2 19 20 53 30.0120000  0  8 18 16 28 19 31  2 27 29
  24394895.371     -456142.297 7   -303296.87849  24394897.2464
  28011097.183       18604.291 5     10089.09948  28011103.5354
  27609163.433     3539491.435 5   2681484.32949  27609168.2034
  24429385.668    -2916029.911 7  -2216721.70849  24429388.3054
  25479737.574    -3421111.141 7  -2805196.06949  25479740.5274
  26643655.426    -3892839.608 6  -2973705.98849  26643659.3634
  25576650.965    -5162095.305 7  -4561927.00249  25576653.6254
  26349466.308    14495282.536 6  11368622.78449  26349469.9184
 95  2 19 20 54  0.0120000  0  8 18 16 28 19 31  2 27 29
  24412252.715     -364930.226 7   -232222.55749  24412254.4374
  28012103.535       23893.076 5     14210.26849  28012109.3014
  27628087.644     3638937.390 5   2758974.63549  27628091.5004
  24436266.480    -2879871.470 7  -2188546.29149  24436268.7544
  25487403.090    -3380828.977 7  -2773807.35049  25487406.3594
  26638169.441    -3921667.461 6  -2996169.16349  26638173.4734
  25573185.598    -5180307.207 7  -4576118.05749  25573188.3164
  26374334.590    14625967.951 6  11470455.52449  26374337.7304
 95  2 19 20 54 30.0120000  0  8 18 16 28 19 31  2 27 29
  24429704.699     -273217.765 7   -160758.32449  24429706.6334
  28013213.043       29723.959 5     18753.84847  28013218.5624
  27647101.269     3738857.417 5   2836834.31549  27647105.3944
  24443190.879    -2843483.803 7  -2160192.25649  24443192.9534
  25495190.871    -3339906.586 7  -2741919.76349  25495193.6374
  26632736.433    -3950216.577 6  -3018415.15549  26632740.2424
  25569735.637    -5198435.235 7  -4590243.75849  25569738.4614
  26399267.894    14756993.123 6  11572552.98749  26399271.4104
 95  2 19 20 55  0.0120000  0  8 18 16 28 19 31  2 27 29
  24447252.551     -181002.298 7    -88902.13549  24447254.4964
  28014423.676       36090.085 4     23714.55748  28014428.9024
  27666204.879     3839244.220 5   2915057.74749  27666209.3094
  24450159.816    -2806861.419 7  -2131655.32849  24450161.8204
  25503099.465    -3298345.314 7  -2709534.34649  25503102.2894
  26627356.558    -3978489.239 6  -3040445.72849  26627361.5864
  25566302.863    -5216474.607 7  -4604300.36949  25566305.5124
  26424261.769    14888341.174 6  11674902.05549  26424265.6254
 95  2 19 20 55 30.0120000  0  8 18 16 28 19 31  2 27 29
  24464896.332      -88285.289 7    -16655.13749  24464898.3124
  28015736.012        1187.07314
  27685396.387     3940098.337 5   2993645.32149  27685399.5984
  24457173.121    -2770006.653 7  -2102937.32649  24457175.1134
  25511128.949    -3256149.173 7  -2676654.23049  25511131.7384
  26622028.121    -4006488.611 6  -3062263.33749  26622032.9964
  25562889.910    -5234410.279 7  -4618276.17549  25562892.4534
  26449318.184    15020010.066 6  11777501.11649  26449322.0164
 95  2 19 20 56  0.0120000  0  8 18 16 28 19 31  2 27 29
  24482634.699        4930.778 7     55980.73749  24482636.8914
  28017149.902        8615.549 5
  27704678.988     4041425.227 5   3072601.27749  27704682.3404
  24464231.090    -2732914.308 7  -2074034.19549  24464233.3984
  25519278.433    -3213322.121 7  -2643282.48149  25519281.1294
  26616752.730    -4034212.035 6  -3083865.93549  26616756.9494
  25559499.160    -5252227.566 7  -4632159.74149  25559501.5744
  26474431.809    15151982.983 6  11880337.09949  26474435.6414
 95  2 19 20 56 30.0120000  0  8 18 16 28 19 31  2 27 29
  24500467.332       98642.524 7    129002.85449  24500469.7584
  28018662.074       16562.307 4      4579.42059  28018667.9224
  27724049.988     4143223.611 5   3151924.64249  27724053.8794
  24471332.840    -2695596.407 7  -2044955.30549  24471335.2304
  25527548.051    -3169866.243 7  -2609420.75149  25527550.8164
  26611528.738    -4061664.989 6  -3105257.77049  26611532.6644
  25556130.894    -5269928.790 7  -4645952.87349  25556133.5194
  26499596.824    15284226.505 6  11983383.91049  26499601.1134
 95  2 19 20 57  0.0120000  0  8 18 16 28 19 31  2 27 29
  24518394.230      192848.451 7    202410.04449  24518396.4924
  28020270.449       25014.756 4     11165.81848  28020276.8124
  27743510.332     4245490.911 5   3231613.40649  27743514.9374
  24478474.793    -2658065.457 7  -2015710.40149  24478476.7974
  25535935.113    -3125794.154 7  -2575078.86249  25535937.7154
  26606356.441    -4088843.123 6  -3126435.46349  26606360.3914
  25552788.730    -5287493.294 7  -4659639.45949  25552791.3324
  26524812.363    15416731.873 6  12086634.77349  26524816.4304
 95  2 19 20 57 30.0120000  0  8 18 16 28 19 31  2 27 29
  24536411.348      287529.677 7    276187.59249  24536413.6684
  28021974.832       33970.173 5     18144.10749  28021981.8794
  27763060.019     4348221.905 5   3311663.48249  27763065.1874
  24485654.168    -2620336.222 7  -1986310.99549  24485656.2304
  25544433.629    -3081133.222 7  -2540278.13349  25544436.0434
  26601234.434    -4115759.039 6  -3147408.82749  26601238.7934
  25549474.004    -5304910.803 7  -4673211.50949  25549476.5704
  26550076.683    15549496.245 6  12190087.44649  26550080.3754
 95  2 19 20 58  0.0120000  0  8 18 16 28 19 31  2 27 29
  24554519.371      382688.792 7    350337.53049  24554521.8554
  28023775.918       43430.578 5     25515.92948  28023782.5624
  27782697.574     4451415.663 5   3392074.18649  27782702.7304
  24492872.879    -2582402.174 7  -1956751.99649  24492875.1054
  25553045.504    -3035877.359 7  -2505013.82249  25553047.8944
  26596164.426    -4142399.829 6  -3168167.81049  26596168.6094
  25546188.441    -5322176.756 7  -4686665.46049  25546191.0664
  26575390.699    15682523.063 6  12293744.63649  26575394.6014
 95  2 19 20 58 30.0120000  0  8 18 16 28 19 31  2 27 29
  24572720.574      478335.668 7    424867.54149  24572723.0124
  28025670.793       53394.885 4     33280.32449  28025675.8444
  27802421.980     4555069.252 5   3472843.16849  27802426.6444
  24500130.590    -2544262.957 7  -1927033.12649  24500132.8514
  25561772.691    -2990014.594 7  -2469276.61049  25561775.3284
  26591148.699    -4168758.982 6  -3188707.34149  26591152.8244
  25542930.074    -5339297.587 7  -4700006.33349  25542933.0164
  26600758.926    15815834.811 6  12397623.85549  26600762.1604
 95  2 19 20 59  0.0120000  0  8 18 16 28 19 31  2 27 29
  24591013.746      574466.286 7    499774.48949  24591016.2544
  28027662.215       63858.008 5     41433.45048  28027667.5354
  27822231.879     4659172.237 5   3553962.35049  27822236.7544
  24507424.894    -2505930.397 7  -1897163.59649  24507427.2034
  25570614.410    -2943552.030 7  -2433072.02049  25570617.2814
  26586184.293    -4194850.147 6  -3209038.05349  26586188.0084
  25539698.566    -5356280.683 7  -4713239.88449  25539701.3444
  26626182.426    15949433.557 6  12501726.69149  26626186.6094
 95  2 19 20 59 30.0120000  0  8 18 16 28 19 31  2 27 29
  24609400.519      671090.296 7    575065.90449  24609403.0394
  28029747.754       74819.904 5     49975.26648  28029754.1644
  27842127.488     4763722.013 5   3635429.67849  27842131.8944
  24514756.496    -2467404.341 7  -1867143.28949  24514758.6524
  25579573.098    -2896474.397 7  -2396388.16249  25579575.5824
  26581270.074    -4220675.166 6  -3229161.36549  26581274.3054
  25536487.473    -5373154.186 7  -4726388.02749  25536490.1914
  26651661.738    16083329.020 6  12606060.73049  26651665.1134
 95  2 19 21  0  0.0120000  0  8 18 16 28 19 31  2 27 29
  24627884.934      768225.600 7    650755.72549  24627887.3484
  28031928.980                        4260.45015
  27862107.660     4868716.168 5   3717243.28549  27862110.9654
  24522124.785    -2428684.346 7  -1836971.86149  24522126.9884
  25588651.418    -2848768.894 7  -2359215.05649  25588653.8914
  26576406.918    -4246225.748 6  -3249070.84649  26576410.9264
  25533294.504    -5389932.954 7  -4739462.36049  25533297.2584
  26677198.816    16217529.584 6  12710632.52449  26677202.4964
 95  2 19 21  0 30.0120000  0  8 18 16 28 19 31  2 27 29
  24646464.144      865859.850 7    726834.33649  24646466.4764
  28034207.934                       16233.665 5
  27882169.980     4974146.244 5   3799396.56049  27882174.7624
  24529527.254    -2389781.648 7  -1806658.06449  24529529.5864
  25597845.176    -2800454.154 7  -2321567.21849  25597847.6724
  26571593.457    -4271522.637 6  -3268782.65049  26571597.5584
  25530115.894    -5406637.969 7  -4752479.21449  25530118.1444
  26702793.707    16352025.966 6  12815434.82949  26702796.9414
 95  2 19 21  1  0.0130000  0  7 18 28 19 31  2 27 29
  24665135.579      963981.044 7    803292.39149  24665138.2864
  27902316.954     5080016.457 5   3881892.79149  27902321.4074
  24536967.845    -2350682.437 7  -1776191.14149  24536970.1304
  25607154.141    -2751536.559 7  -2283449.62049  25607157.0014
  26566828.821    -4296559.701 6  -3288291.98249  26566833.0994
  25526953.134    -5423257.960 7  -4765429.82549  25526955.1264
  26728443.157    16486818.019 6  12920467.50249  26728447.2124
 95  2 19 21  1 30.0130000  0  8 18 16 28 19 31  2 27 29
  24683897.595     1062574.114 7    880118.13349  24683900.0674
  28039066.282       10039.85814
  27922544.657     5186317.265 5   3964724.56849  27922548.1494
  24544445.282    -2311388.581 7  -1745572.54349  24544447.4154
  25616576.017    -2702021.514 7  -2244866.48749  25616579.1574
  26562116.345    -4321326.186 6  -3307590.48549  26562120.2704
  25523806.681    -5439791.331 7  -4778312.92949  25523809.1184
  26754148.196    16621901.959 6  13025727.62949  26754152.0054
 95  2 19 21  2  0.0130000  0  8 18 16 28 19 31  2 27 29
  24702745.243     1161619.503 7    957296.33649  24702747.6574
  28041650.985       23617.408 5      4988.83259  28041656.2594
  27942854.438     5293043.757 5   4047888.01949  27942858.6104
  24551958.970    -2271904.286 7  -1714805.55649  24551960.7634
  25626111.446    -2651913.233 7  -2205821.08149  25626113.8844
  26557452.196    -4345836.858 6  -3326689.64649  26557455.7594
  25520679.860    -5456223.034 7  -4791116.81849  25520682.3454
  26779906.329    16757258.601 6  13131200.24449  26779910.7944
 95  2 19 21  2 30.0130000  0  8 18 16 28 19 31  2 27 29
  24721675.313     1261095.770 7   1034810.28849  24721677.7984
  28044337.243       37736.630 5     15990.83249  28044342.7514
  27963244.977     5400196.955 5   4131383.97349  27963248.7864
  24559509.337    -2232226.156 7  -1683887.51949  24559511.3414
  25635761.501    -2601199.359 7  -2166303.78149  25635764.3604
  26552837.829    -4370086.523 6  -3345585.42449  26552841.6024
  25517574.548    -5472540.562 7  -4803831.73049  25517577.1494
  26805713.899    16892873.185 6  13236873.87249  26805717.8844
 95  2 19 21  3  0.0130000  0  8 18 16 28 19 31  2 27 29
  24740688.126     1361010.991 7   1112666.28749  24740690.6814
  28047123.907                       11276.01814
  27983716.157     5507774.216 5   4215210.36349  27983720.0834
  24567096.891    -2192352.277 7  -1652816.95449  24567099.0244
  25645530.688    -2549863.512 7  -2126301.82149  25645533.5484
  26548274.454    -4394061.355 6  -3364267.04649  26548278.4154
  25514493.641    -5488730.841 7  -4816447.49749  25514496.3604
  26831566.782    17028735.959 6  13342740.87649  26831570.9774
 95  2 19 21  3 30.0130000  0  8 18 16 28 19 31  2 27 29
  24759786.274     1461372.550 7   1190870.08349  24759788.7354
  28050008.915       26437.217 4      4771.95957  28050014.4234
  28004267.657     5615770.345 5   4299363.12749  28004271.1264
  24574718.884    -2152298.946 7  -1621606.55649  24574721.0054
  25655418.743    -2497901.335 7  -2085811.82349  25655421.6494
  26543761.141    -4417780.638 6  -3382749.54649  26543765.1734
  25511435.352    -5504801.895 7  -4828970.36049  25511438.0364
  26857464.196    17164828.576 6  13448786.97649  26857469.0134
 95  2 19 21  4  0.0130000  0  8 18 16 28 19 31  2 27 29
  24778968.649     1562176.331 7   1269418.46049  24778971.1224
  28052987.720       42088.839 5     16968.06749  28052993.1574
  28024896.774     5724182.312 5   4383839.96149  28024900.7474
  24582376.993    -2112053.630 7  -1590246.56149  24582379.4424
  25665427.188    -2445306.900 7  -2044829.14349  25665430.0244
  26539295.595    -4441247.035 6  -3401034.98449  26539299.7554
  25508399.790    -5520754.395 7  -4841400.84749  25508402.3214
  26883402.665    17301133.953 6  13554998.86449  26883406.8844
 95  2 19 21  4 30.0130000  0  8 18 16 28 19 31  2 27 29
  24798237.907     1663437.021 7   1348322.87349  24798240.3684
  28056057.438       58219.290 5     29537.28148  28056063.2274
  28045606.704     5833009.188 5   4468640.07249  28045610.7944
  24590074.454    -2071603.546 7  -1558727.00549  24590077.0674
  25675553.985    -2392090.536 7  -2003361.83449  25675556.5054
  26534880.720    -4464447.221 6  -3419112.99449  26534884.7274
  25505385.056    -5536596.345 7  -4853745.18949  25505387.4814
  26909381.423    17437653.670 6  13661377.78649  26909385.7004
 95  2 19 21  5  0.0130000  0  8 18 16 28 19 31  2 27 29
  24817596.087     1765164.788 7   1427591.24249  24817598.7004
  28059216.563       74826.491 4     42478.04949  28059222.8094
  28066393.649     5942246.088 5   4553759.70849  28066396.7904
  24597810.868    -2030949.062 7  -1527048.17749  24597813.5634
  25685796.915    -2338266.744 7  -1961421.20649  25685799.3064
  26530513.727    -4487396.043 6  -3436995.12749  26530518.1104
  25502388.923    -5552340.758 7  -4866013.52749  25502391.5484
  26935403.095    17574395.705 6  13767929.93049  26935407.5484
 95  2 19 21  5 30.0130000  0  8 18 16 28 19 31  2 27 29
  24837043.267     1867359.921 7   1507223.78949  24837045.7164
  28062470.415       91920.266 5     55797.95749  28062478.0364
  28087259.485     6051899.611 5   4639203.95049  28087262.2274
  24605586.868    -1990085.577 7  -1495206.48849  24605589.3644
  25696154.579    -2283834.382 7  -1919006.37349  25696156.8064
  26526195.212    -4510088.403 6  -3454677.42249  26526199.4194
  25499411.384    -5567986.356 7  -4878204.86149  25499413.9274
  26961469.891    17711377.317 6  13874668.76149  26961473.8294
 95  2 19 21  6  0.0130000  0  8 18 16 28 19 31  2 27 29
  24856578.860     1970019.448 7   1587218.20549  24856581.3214
  28065818.243      109510.994 5     69505.02049  28065823.4584
  28108205.181     6161968.925 5   4724972.21149  28108208.4974
  24613404.837    -1949002.436 7  -1463193.63649  24613407.2744
  25706627.532    -2228797.990 7  -1876120.86649  25706630.2164
  26521929.149    -4532506.172 6  -3472145.76149  26521933.7434
  25496453.501    -5583530.240 7  -4890316.94349  25496456.2784
  26987585.704    17848616.672 6  13981608.41649  26987589.8644
 95  2 19 21  6 30.0130000  0  8 18 16 28 19 31  2 27 29
  24876203.477     2073147.574 7   1667577.76249  24876206.0674
  28069261.157      127609.450 5     83607.79149  28069267.5674
  28129228.845     6272448.714 5   4811060.30149  28129232.6654
  24621260.134    -1907722.996 7  -1431027.82749  24621262.4194
  25717213.149    -2173169.110 7  -1832773.68049  25717215.7274
  26517712.595    -4554665.427 6  -3489412.66449  26517716.8254
  25493514.657    -5598976.022 7  -4902352.58649  25493517.3994
  27013753.313    17986129.238 6  14088760.96849  27013757.3454
 95  2 19 21  7  0.0130000  0  8 18 16 28 19 31  2 27 29
  24895917.274     2176743.743 7   1748302.02849  24895919.7704
  28072803.509      146222.531 5     98111.52749  28072808.9114
  28150331.946     6383342.935 5   4897471.37349  28150335.8954
  24629150.845    -1866256.889 7  -1398716.56549  24629153.1184
  25727914.040    -2116937.413 7  -1788956.75349  25727916.6304
  26513545.540    -4576565.256 6  -3506477.40049  26513549.2084
  25490598.181    -5614300.609 7  -4914293.78449  25490600.8414
  27039976.110    18123928.430 6  14196136.88949  27039980.2244
 95  2 19 21  7 30.0130000  0  8 18 16 28 19 31  2 27 29
  24915719.477     2280805.143 7   1829388.81949  24915721.8454
  28076440.751      165341.841 4    113009.75049  28076447.2204
  28171512.931     6494652.188 5   4984205.79749  28171516.9384
  24637078.798    -1824594.750 7  -1366252.55349  24637080.9774
  25738728.767    -2060103.853 7  -1744670.84649  25738731.3564
  26509432.196    -4598179.090 6  -3523319.29649  26509435.9704
  25487708.868    -5629483.157 7  -4926124.30949  25487711.5994
  27066252.517    18262012.321 6  14303734.63249  27066256.2554
 95  2 19 21  8  0.0130000  0  8 18 16 28 19 31  2 27 29
  24935611.235     2385337.740 7   1910842.76549  24935613.2864
  28080177.743      184972.116 5    128306.12549  28080183.9424
  28192773.759     6606376.066 5   5071263.31949  28192777.8024
  24645046.016    -1782725.638 7  -1333627.26549  24645048.3254
  25749657.446    -2002674.073 7  -1699920.34949  25749660.0134
  26505373.563    -4619507.002 6  -3539938.38949  26505377.7824
  25484849.095    -5644512.309 7  -4937835.30949  25484851.7674
  27092582.657    18400377.636 6  14411551.67249  27092585.7864
 95  2 19 21  8 30.0130000  0  8 18 16 28 19 31  2 27 29
  24955594.532     2490349.084 7   1992669.76249  24955596.6064
  28084011.595      205122.393 5    144007.64849  28084017.5134
  28214113.048     6718514.104 5   5158643.57949  28214116.6454
  24653054.712    -1740640.594 7  -1300833.71549  24653056.9384
  25760701.391    -1944639.597 7  -1654698.66049  25760703.7124
  26501369.196    -4640549.277 6  -3556334.91649  26501373.3684
  25482019.321    -5659383.119 7  -4949422.91949  25482021.9464
  27118963.743    18539009.309 6  14519576.25549  27118966.6964
 95  2 19 21  9  0.0130000  0  8 18 16 28 19 31  2 27 29
  24975664.345     2595818.315 7   2074853.55649  24975666.6064
  28087945.102      225790.129 5    160112.42948  28087951.3494
  28235528.720     6831058.451 5   5246340.44649  28235532.8924
  24661105.392    -1698333.280 7  -1267866.96849  24661107.6884
  25771860.399    -1885999.725 7  -1609005.23849  25771863.0244
  26497422.149    -4661292.061 6  -3572498.07049  26497426.3684
  25479217.962    -5674104.371 7  -4960893.98149  25479220.3884
  27145388.845    18677874.361 6  14627782.70149  27145392.0204
 95  2 19 21  9 30.0130000  0  8 18 16 28 19 31  2 27 29
  24995818.368     2701727.477 7   2157380.15049  24995820.6184
  28091979.720      246990.835 5    176632.53949  28091986.0954
  28257021.251     6944000.555 5   5334347.22949  28257025.2704
  24669198.360    -1655804.994 7  -1234728.03549  24669200.6224
  25783134.321    -1826753.807 7  -1562839.57149  25783136.6884
  26493529.024    -4681751.117 6  -3588440.13749  26493532.7274
  25476438.673    -5688710.663 7  -4972275.46849  25476441.1224
  27171855.782    18816960.936 6  14736161.75249  27171859.1344
 95  2 19 21 10  0.0130000  0  8 18 16 28 19 31  2 27 29
  25016055.345     2808076.131 7   2240249.20749  25016057.7944
  28096119.642      268750.174 5    193587.88149  28096124.6924
  28278589.165     7057340.245 5   5422663.83149  28278593.7124
  24677331.845    -1613063.172 7  -1201422.71149  24677334.3174
  25794526.767    -1766885.484 7  -1516188.91449  25794529.1574
  26489683.813    -4701955.402 6  -3604183.68149  26489688.1384
  25473678.056    -5703216.285 7  -4983578.50849  25473680.4584
  27198366.735    18956278.921 5  14844721.13549  27198371.7044
 95  2 19 21 10 30.0130000  0  8 18 16 28 19 31  2 27 29
  25036374.735     2914853.460 7   2323452.29949  25036376.9504
  28100366.985      291069.744 4    210979.80449  28100373.1614
  28300233.173     7171080.434 5   5511292.52249  28300238.2704
  24685505.024    -1570113.538 7  -1167955.45749  24685507.1344
  25806040.212    -1706382.855 7  -1469043.99249  25806042.7434
  26485886.868    -4721907.880 6  -3619731.02049  26485890.8524
  25470935.790    -5717627.393 7  -4994807.89549  25470938.1344
  27224923.227    19095829.182 6  14953461.49249  27224927.5164
